GFSSW_850_thetae_000.txt.gz
Theta_e
304 304 305 307 308 308 309 308 307 307 307 307 308 308 308 308 309 309 313 321 318 313 312 318 320 320 323 324 329 329 325 326 325 325 324 325 325 326 327 326 325 326 326 326 326
298 298 300 301 303 304 305 306 307 308 309 307 307 306 307 307 308 308 321 319 320 317 313 313 315 318 324 326 326 326 325 325 324 323 324 325 326 328 326 326 324 324 327 326 325
302 302 301 299 298 299 300 302 304 304 305 308 309 308 306 305 305 310 316 317 320 321 316 312 313 319 326 326 326 326 327 326 326 326 326 327 327 328 326 326 327 325 328 327 325
302 303 303 302 302 301 301 300 299 299 301 304 305 307 309 308 305 312 313 316 317 317 316 311 314 325 324 324 326 326 325 326 326 326 326 325 327 327 327 326 328 328 329 328 325
301 301 302 302 302 301 301 302 301 300 299 299 302 306 307 310 305 311 315 316 313 316 317 312 319 324 323 323 324 323 324 326 326 327 326 326 325 326 326 327 328 329 328 327 325
301 301 301 301 301 301 301 301 301 302 301 300 302 306 309 309 310 310 310 312 310 310 312 312 313 322 324 324 324 325 325 325 326 326 326 326 326 327 328 328 328 328 328 327 326
300 300 300 300 300 300 301 301 301 301 302 301 301 305 309 309 309 310 307 310 310 309 310 311 312 316 319 317 318 319 319 318 319 321 322 324 324 325 326 327 327 327 327 325 326
299 300 300 301 301 300 300 300 301 301 302 302 301 309 308 307 308 310 310 309 309 309 310 310 314 315 316 317 316 317 317 318 318 320 321 322 323 323 325 326 325 325 325 326 326
299 300 300 301 301 301 301 301 300 301 304 305 303 306 307 304 306 309 309 310 311 309 311 313 312 317 315 316 315 314 316 316 316 318 319 322 321 322 323 323 323 324 325 325 325
301 303 302 302 302 302 302 301 301 307 308 305 305 305 305 305 309 308 308 308 311 310 309 309 314 313 311 314 317 315 315 315 316 318 318 318 319 321 322 322 323 324 324 323 324
303 304 303 303 302 303 303 301 307 308 307 307 305 305 303 308 309 309 309 308 308 309 307 311 312 315 314 315 315 314 314 314 315 317 318 318 319 319 321 321 320 321 322 323 324
304 304 303 302 302 303 302 303 306 304 305 306 307 307 306 304 308 309 311 307 308 308 309 313 313 313 315 315 316 315 314 314 315 319 319 319 319 319 319 320 321 322 322 323 324
304 303 303 302 302 303 303 304 304 304 305 307 306 307 307 305 309 306 309 308 309 308 310 310 312 314 316 317 316 315 315 316 316 319 319 319 320 320 320 320 321 322 323 325 325
304 302 301 302 303 303 302 303 303 306 306 306 307 307 307 306 308 306 309 310 308 308 308 309 311 313 317 318 317 318 317 317 318 320 319 319 321 319 319 321 319 321 323 324 326
303 302 301 302 302 302 302 303 303 306 306 302 306 308 307 307 307 307 306 311 312 307 309 309 311 312 315 318 319 318 318 318 320 320 319 320 319 320 318 319 320 319 323 324 323
302 301 301 301 301 301 302 303 305 306 306 305 306 306 305 309 310 309 310 310 313 308 308 309 312 311 314 316 317 317 317 317 316 316 319 318 319 318 320 321 320 319 322 322 323
301 301 301 301 301 301 301 303 304 305 305 305 306 306 306 308 308 309 310 310 313 314 311 311 309 312 312 312 315 315 313 315 316 317 320 318 319 319 319 319 319 320 322 323 322
300 301 302 303 302 301 303 303 304 304 304 305 306 305 307 308 307 310 312 311 310 312 313 312 312 310 312 312 314 316 315 315 317 320 322 319 322 322 319 320 321 321 321 322 323
300 301 304 305 303 302 304 303 303 305 305 305 305 305 307 306 307 309 310 312 311 310 312 313 313 313 313 314 314 315 314 315 318 319 320 319 320 321 320 320 320 320 320 322 323
301 301 303 305 304 303 303 302 304 304 304 304 304 306 305 305 307 307 310 312 311 312 310 312 313 313 312 313 314 313 314 316 315 319 322 321 321 322 322 320 321 321 319 322 323
301 301 304 304 304 303 304 302 303 303 304 305 305 305 304 306 307 308 310 312 308 308 311 311 311 314 312 313 313 312 313 313 315 315 320 320 321 317 320 319 320 319 320 322 324
300 297 302 304 304 301 302 303 304 304 303 304 305 305 305 306 308 308 309 308 305 307 309 311 309 312 313 312 313 314 314 314 316 317 317 319 321 319 317 317 316 319 321 322 324
300 300 302 304 302 302 302 302 303 303 304 303 304 303 303 305 306 307 307 306 306 307 310 310 311 312 313 314 313 313 313 314 312 313 317 320 320 319 320 319 318 320 322 323 324
300 299 301 303 301 302 302 301 303 303 303 303 303 302 304 306 306 308 307 306 307 308 311 307 309 313 314 314 313 313 313 313 312 313 316 320 320 319 323 320 320 321 323 324 325
300 299 301 301 297 300 301 300 302 304 304 304 304 304 305 306 307 309 308 309 307 308 308 306 309 312 313 316 315 315 314 314 313 314 315 316 317 317 318 320 320 322 323 324 325
300 301 301 301 301 301 299 300 303 303 303 304 304 304 303 304 305 307 307 309 308 308 308 305 308 309 313 316 317 315 313 314 314 314 314 318 317 316 319 323 322 323 324 325 325
300 301 301 301 300 301 301 302 302 302 303 304 303 302 303 303 304 304 305 307 307 308 309 306 307 308 311 311 314 313 314 314 315 314 315 317 317 318 324 324 323 323 324 326 326

GFSSW_850_thetae_003.txt.gz
Theta_e
300 300 301 301 301 302 304 305 306 306 307 308 309 308 308 308 309 310 312 319 321 316 312 318 315 321 323 321 323 329 330 329 328 327 328 326 328 326 326 327 326 325 327 327 326
303 302 301 301 301 300 300 301 301 301 302 304 306 308 309 309 308 309 313 314 318 315 313 313 316 318 324 325 325 328 330 329 328 327 327 327 327 328 328 328 328 327 327 326 328
302 304 305 302 302 302 302 302 301 301 300 301 301 304 305 308 308 309 311 313 315 315 313 312 311 317 323 325 326 327 330 328 328 327 326 327 327 327 327 328 327 328 327 327 327
301 301 301 301 301 301 301 301 301 301 302 301 300 300 302 305 311 310 313 314 314 315 312 313 317 322 322 325 326 327 327 327 327 327 326 327 327 327 328 328 328 327 327 327 329
300 300 300 300 300 300 301 301 301 301 301 302 301 300 302 308 308 310 312 315 311 315 312 315 320 320 322 323 324 327 327 327 327 327 327 327 327 328 327 326 326 327 328 328 328
299 299 299 300 300 300 300 300 300 301 301 301 302 301 304 307 308 309 310 314 312 309 311 312 319 320 321 323 324 324 325 326 326 327 327 327 327 327 327 327 327 327 327 326 327
298 299 299 299 300 300 300 300 300 300 300 301 302 301 307 306 307 309 309 310 310 308 308 309 314 320 321 322 323 324 327 327 326 326 327 324 324 324 324 325 325 325 326 326 326
300 302 302 300 300 300 300 300 300 301 300 301 304 305 306 303 304 307 308 310 308 308 308 309 310 314 316 317 317 319 320 321 321 321 321 321 323 324 324 325 325 326 325 324 324
300 302 302 302 302 302 301 301 301 301 301 303 305 305 305 303 302 305 306 307 309 310 309 311 313 317 316 317 319 319 320 320 321 321 322 323 324 323 323 323 323 324 324 324 324
303 304 303 303 302 302 302 302 302 306 307 304 306 305 303 305 306 307 310 309 308 309 310 309 313 315 317 318 320 320 319 319 320 321 320 321 322 322 322 322 323 323 324 324 323
303 304 303 302 302 302 302 302 306 307 305 306 306 305 304 304 304 305 309 308 310 308 311 310 313 316 315 317 318 319 320 321 322 320 318 320 320 321 322 322 323 323 322 322 323
303 304 303 301 301 301 303 304 305 303 305 304 303 305 305 305 306 305 305 309 309 311 311 312 314 314 315 315 316 318 319 319 318 317 318 319 320 322 322 322 322 323 323 324 325
302 303 302 301 301 303 302 303 303 303 305 305 306 306 306 306 307 305 308 309 309 310 311 313 314 313 314 315 316 317 317 318 318 318 318 319 320 320 322 323 322 322 322 323 323
302 301 301 302 302 302 302 302 302 303 307 305 306 306 307 307 307 306 306 308 309 310 311 312 314 313 313 315 317 317 317 317 317 318 318 321 322 322 322 323 323 322 323 324 323
301 301 300 302 302 302 301 302 302 305 304 304 307 307 306 307 307 308 307 307 311 310 311 312 312 314 314 315 317 317 317 318 318 320 321 321 322 321 322 322 323 324 322 325 323
300 300 301 301 301 301 301 301 304 307 304 305 306 306 305 307 308 309 308 307 309 312 311 313 312 312 314 315 316 317 318 319 320 320 320 320 321 321 322 322 322 324 325 324 323
300 300 301 302 302 302 301 303 305 304 304 305 306 305 304 307 308 309 310 308 309 313 312 311 311 312 313 315 317 319 320 319 318 319 320 320 321 322 321 321 322 324 326 324 322
300 301 302 304 303 302 303 305 304 302 303 304 305 304 303 307 307 308 309 311 309 312 315 312 312 312 313 315 317 320 319 320 322 322 321 321 321 321 324 323 321 322 324 323 324
300 301 303 304 303 302 303 303 302 302 304 304 304 304 304 305 306 307 308 313 311 310 313 315 314 313 313 314 316 318 319 319 318 321 322 324 324 324 325 325 326 325 323 325 326
300 302 303 302 303 302 305 303 303 304 304 304 303 303 304 304 307 307 307 310 309 310 311 314 316 315 312 314 314 315 317 318 318 317 318 318 322 325 327 326 326 327 326 326 326
300 302 302 304 303 301 305 304 304 303 304 304 304 305 304 304 308 308 308 308 307 309 310 313 314 316 313 314 315 314 317 318 319 318 318 318 319 325 328 328 328 327 326 326 327
300 303 302 304 304 301 303 303 303 304 304 304 305 306 306 305 306 307 307 306 306 307 311 313 316 316 316 316 316 316 317 318 317 319 318 323 323 325 327 327 325 325 325 326 327
300 299 301 303 303 302 301 302 303 304 304 304 304 304 305 306 307 307 307 306 306 308 311 312 316 317 317 316 316 316 317 318 320 321 319 318 320 325 327 327 325 326 324 326 327
300 301 301 302 301 301 301 302 303 303 304 304 304 305 306 306 307 308 308 307 307 308 310 310 312 317 317 317 316 316 316 317 318 319 320 320 319 322 323 326 326 325 325 326 327
300 301 301 302 302 302 300 301 303 303 303 303 305 305 304 306 306 310 308 309 308 307 308 309 313 313 315 315 318 316 316 316 317 319 319 321 321 321 325 324 327 326 326 327 327
301 301 301 301 301 302 302 302 302 303 302 303 304 304 303 303 304 305 308 308 309 308 309 310 313 312 314 315 317 318 316 316 316 317 317 318 320 321 322 324 326 326 326 328 327
301 300 301 302 301 302 303 302 303 304 303 303 304 304 304 304 304 304 305 305 307 309 310 310 312 314 316 316 317 318 321 318 317 317 317 318 320 320 321 325 328 327 327 328 328

GFSSW_850_thetae_006.txt.gz
Theta_e
302 302 302 302 301 301 301 301 302 302 303 305 307 308 309 310 311 310 312 312 314 315 314 317 317 325 322 322 325 328 331 331 331 331 331 330 330 330 329 329 330 329 328 329 328
301 301 301 302 302 302 302 302 302 302 302 302 302 303 305 307 309 310 312 313 313 313 314 322 321 322 325 325 327 330 332 332 331 331 331 330 330 330 330 330 330 329 329 329 329
301 301 301 301 301 301 301 301 302 301 301 301 302 302 302 303 309 312 312 313 314 316 316 317 319 320 322 325 327 329 332 331 331 330 330 330 330 329 329 331 329 330 329 329 328
299 299 300 300 300 300 300 300 301 301 301 301 301 302 302 302 313 313 312 313 312 314 314 316 319 319 322 324 326 330 330 330 330 330 330 330 329 329 329 329 329 328 328 328 328
298 298 299 299 299 299 300 300 300 300 300 301 301 302 303 310 309 309 311 313 313 316 315 317 320 321 325 324 323 328 329 329 329 329 329 329 329 330 329 328 328 328 328 328 328
298 299 298 298 298 299 299 300 300 300 300 300 301 301 308 309 308 309 308 313 313 314 317 316 317 321 324 325 325 324 325 326 327 328 328 330 329 329 328 328 327 328 327 327 326
299 300 301 302 300 300 300 300 300 301 300 300 300 303 308 307 304 306 308 308 311 311 315 315 317 321 323 324 324 324 326 326 326 327 328 327 329 329 327 327 327 326 326 326 326
301 302 304 304 302 302 301 301 301 301 300 300 301 307 308 303 304 302 307 309 310 311 311 312 314 316 321 323 323 325 327 328 328 328 328 328 329 328 327 326 326 326 325 325 325
302 303 303 303 302 302 302 301 301 301 301 303 307 307 308 305 306 306 309 309 311 311 312 311 311 315 317 319 322 324 326 328 328 328 326 326 328 328 326 326 326 325 325 324 325
302 303 303 303 301 301 301 301 302 304 308 308 308 307 307 305 307 309 308 311 311 311 313 312 312 317 318 320 325 324 325 325 326 327 326 325 326 327 326 326 325 324 324 324 325
302 302 303 303 301 301 301 306 307 309 307 308 306 307 305 305 305 306 307 311 312 312 315 313 315 317 319 320 321 323 325 326 326 326 325 326 326 326 326 325 324 324 324 324 325
302 302 302 301 301 300 303 304 306 305 306 305 305 305 305 305 306 306 306 308 312 314 314 316 316 318 318 320 321 322 323 325 325 325 325 325 325 325 325 325 324 324 323 324 326
301 301 301 300 300 304 304 305 305 305 307 306 306 306 308 308 308 308 306 307 311 314 315 316 317 316 317 319 320 320 322 323 323 324 324 323 323 323 324 323 322 323 324 326 325
301 300 300 300 305 304 304 304 304 305 308 307 307 308 308 309 310 309 308 307 311 313 314 315 317 317 318 318 319 321 320 320 321 322 323 323 324 324 324 325 325 324 324 325 325
301 301 300 300 303 304 304 304 304 305 307 305 309 309 308 308 308 310 309 309 309 313 314 315 315 317 318 318 319 320 319 320 320 321 322 322 322 323 324 325 325 326 325 326 324
302 301 300 304 303 304 304 304 305 309 306 306 307 308 308 307 308 309 311 309 308 308 313 315 315 316 318 318 318 319 319 320 320 321 322 322 323 324 325 326 326 326 324 325 327
301 300 301 304 305 304 304 304 308 305 305 305 306 307 306 306 306 309 310 312 311 310 311 315 315 316 316 318 318 318 320 322 323 323 323 322 322 323 326 326 325 325 327 329 331
300 301 303 305 304 304 304 306 306 304 303 305 305 305 304 305 307 308 308 310 313 311 312 315 317 315 316 318 318 319 321 321 322 322 323 323 324 325 324 325 325 325 323 327 331
300 304 306 304 303 303 305 308 305 304 305 305 305 305 305 305 305 308 308 311 314 312 312 316 318 316 316 316 319 320 323 322 320 322 324 324 324 326 327 328 327 327 328 329 332
303 304 306 304 303 302 304 306 306 305 305 305 306 305 305 305 305 308 309 309 310 312 312 315 320 317 315 317 318 321 321 321 321 322 322 321 322 324 327 327 327 327 329 331 332
304 305 305 304 304 305 307 305 305 304 305 305 306 306 306 306 307 308 307 307 307 310 312 314 318 319 316 317 318 320 322 322 322 321 322 322 321 325 325 326 330 331 331 332 331
303 306 303 304 306 305 305 304 304 305 305 306 306 306 306 306 307 307 308 308 306 309 312 314 318 321 318 317 318 319 320 322 321 322 320 320 323 326 328 329 330 330 331 332 331
303 303 303 305 306 304 303 304 304 305 305 306 306 306 307 307 307 308 308 308 306 309 312 315 317 321 320 318 318 319 318 320 322 323 323 321 322 324 330 330 330 331 331 331 331
303 306 304 304 303 304 304 304 305 304 304 305 305 306 306 306 307 309 310 309 307 308 308 312 318 320 321 319 319 319 319 319 322 323 322 322 321 322 327 329 329 331 331 331 330
303 304 303 305 305 304 304 303 303 305 304 304 305 306 305 306 306 307 306 308 309 307 311 312 317 318 319 319 320 319 319 319 321 323 322 321 322 322 325 326 328 330 331 331 330
303 302 302 303 303 304 304 305 305 306 305 306 305 305 306 306 306 306 306 308 309 310 313 314 317 317 318 318 319 319 319 319 320 321 321 321 322 323 324 324 327 330 331 332 331
301 302 302 303 303 304 305 305 307 307 305 305 306 306 307 306 306 306 306 307 307 308 311 313 316 317 319 318 319 320 320 319 320 320 321 321 322 326 326 327 328 329 330 332 331

GFSSW_850_thetae_009.txt.gz
Theta_e
301 301 301 301 302 302 302 302 302 302 302 303 304 305 307 308 309 310 315 316 316 316 317 326 326 326 326 325 323 326 331 333 333 333 332 331 332 331 331 331 331 331 331 331 331
300 301 301 301 301 301 301 301 301 302 302 302 303 303 304 305 307 312 313 314 314 313 314 320 326 324 325 326 326 327 332 333 332 333 333 332 332 331 332 332 332 331 331 331 331
299 299 299 300 300 300 300 300 300 300 301 301 301 302 303 304 312 314 315 314 313 313 313 315 323 325 325 326 328 328 331 332 333 332 332 333 332 331 332 333 331 331 331 330 330
297 298 298 298 299 299 299 299 300 300 300 300 301 301 302 303 315 319 313 313 312 312 313 314 317 325 326 327 326 331 330 331 331 331 331 332 331 332 332 332 331 330 330 330 330
297 297 297 297 298 298 298 299 299 299 300 300 300 300 302 310 312 314 312 313 313 317 321 316 317 321 327 326 327 329 329 329 329 330 330 331 331 332 332 331 331 331 330 330 330
298 299 299 299 299 299 299 299 299 299 300 300 300 300 309 310 311 311 312 313 314 315 320 318 318 320 325 327 328 328 328 328 328 328 330 331 331 330 331 330 330 330 330 330 329
300 301 301 301 301 301 301 301 301 300 300 300 300 302 308 308 308 308 309 310 311 313 315 318 319 321 323 326 326 327 329 329 329 328 329 328 331 331 330 330 329 329 329 329 328
302 302 302 302 302 301 301 301 301 301 301 301 301 307 309 306 306 306 307 308 310 312 314 316 318 320 321 323 325 327 329 330 329 329 328 328 330 330 329 329 329 330 329 328 328
304 303 303 303 303 301 301 301 301 301 302 302 305 308 308 308 308 308 307 308 309 311 313 314 315 317 319 323 325 327 329 330 329 329 330 330 331 331 329 328 329 329 329 328 328
302 302 302 302 301 301 301 302 307 307 310 311 310 310 310 308 307 309 310 309 310 312 314 314 316 318 319 322 325 325 328 328 328 329 329 329 330 330 329 327 327 328 328 328 327
301 301 301 301 300 300 300 307 309 311 312 311 309 310 308 307 307 307 307 308 311 312 316 316 318 318 319 320 323 324 326 327 328 328 328 328 328 329 329 327 327 327 328 328 327
302 301 300 300 300 301 307 307 307 306 308 306 306 306 306 307 307 306 306 308 310 314 315 318 319 319 319 320 321 322 324 326 327 328 328 329 329 329 329 329 327 327 327 326 326
301 301 301 300 301 308 306 306 306 306 308 307 306 307 308 308 309 309 308 308 310 311 315 316 319 318 319 319 321 322 324 325 326 327 327 327 328 328 328 327 325 325 325 325 325
302 302 301 300 304 305 306 306 305 306 309 308 309 309 308 309 311 310 310 310 310 310 313 316 316 318 319 319 320 322 323 324 325 326 327 326 330 328 327 327 327 326 326 326 327
301 301 300 300 304 306 305 305 305 306 309 308 308 310 309 309 310 311 311 311 310 310 310 313 317 317 319 319 320 321 322 324 324 324 325 325 326 326 327 327 327 327 326 326 326
301 300 300 306 307 306 306 306 305 309 309 308 309 310 310 309 309 309 311 312 311 311 311 313 314 317 318 319 320 320 321 323 324 324 326 326 326 327 326 327 327 329 327 327 327
301 301 302 306 307 306 306 306 308 310 307 308 307 308 308 308 308 308 309 311 315 312 311 311 314 317 318 318 320 321 323 324 326 327 328 326 325 326 327 326 327 327 326 328 330
301 304 307 306 306 306 306 307 310 307 306 306 306 306 306 306 307 307 309 309 310 312 314 311 312 314 317 319 320 321 323 324 327 328 327 326 326 326 327 327 326 326 326 332 334
304 306 307 307 306 306 307 310 309 307 307 306 307 308 308 308 308 307 307 308 312 313 318 314 312 314 317 318 319 321 324 323 326 327 327 326 327 327 327 328 328 328 328 327 334
306 306 307 306 305 306 308 307 306 307 306 307 307 308 308 307 308 307 308 311 310 310 312 317 314 314 317 318 319 321 322 324 326 328 327 327 326 325 327 327 328 329 330 333 335
307 307 307 305 307 307 309 306 306 305 306 307 307 307 308 309 308 309 309 309 310 310 312 315 318 319 317 320 319 321 322 323 325 326 327 326 326 326 327 327 329 328 330 335 335
306 308 305 306 309 308 308 306 304 305 305 306 308 308 308 308 308 309 310 309 309 310 313 315 318 323 321 320 319 321 323 324 326 327 325 325 326 328 328 329 331 332 334 335 334
307 307 306 306 309 308 306 306 305 306 305 306 306 307 308 309 310 310 311 307 309 310 311 314 318 322 324 321 319 320 321 324 325 327 326 324 325 326 328 331 331 332 334 334 334
306 309 306 306 306 306 307 307 306 305 307 306 307 307 308 308 308 310 309 308 307 309 309 310 316 320 324 322 319 320 321 323 326 326 326 325 325 329 330 330 332 333 334 333 333
307 307 305 308 308 306 306 307 307 307 307 307 307 307 308 307 307 309 308 308 309 309 309 312 316 316 320 324 320 320 321 322 325 325 325 325 324 324 329 329 330 333 333 333 333
305 305 305 304 305 305 307 308 306 307 308 307 308 307 307 308 308 309 308 309 311 310 311 314 318 315 318 320 322 320 320 321 322 324 324 324 324 324 326 327 332 332 333 333 333
306 305 304 305 306 306 308 306 306 306 307 306 307 308 309 308 307 308 308 308 308 309 310 314 318 316 320 321 322 323 321 322 321 323 324 323 327 328 329 330 330 330 333 333 332

GFSSW_850_thetae_012.txt.gz
Theta_e
300 300 300 300 300 301 301 301 301 301 302 302 303 304 305 306 308 307 311 316 316 317 318 320 327 330 331 334 331 324 326 330 332 332 332 332 332 331 332 332 332 331 332 331 331
299 299 299 299 299 299 300 300 300 300 300 301 301 302 303 304 306 307 313 313 314 316 316 319 327 328 328 326 329 328 328 328 330 331 332 332 332 332 333 333 333 333 333 332 331
297 297 298 298 298 298 299 299 299 300 300 300 300 300 301 302 310 314 315 315 314 315 316 316 320 327 327 326 326 328 329 328 329 331 332 332 333 333 333 334 333 333 333 332 331
298 298 298 298 298 298 298 298 299 299 299 299 300 300 300 302 314 317 314 313 315 314 313 313 314 317 325 329 327 328 328 329 329 330 330 332 332 332 331 332 332 331 333 332 331
298 299 299 299 299 298 298 298 298 298 299 299 300 300 300 307 310 312 313 314 313 315 317 318 317 316 320 326 328 328 328 328 329 330 330 331 331 331 331 331 331 330 332 332 331
301 301 301 301 301 301 300 300 300 300 299 300 300 300 307 309 309 311 312 313 314 315 317 320 321 318 319 322 326 328 328 328 328 329 329 329 330 329 329 330 330 331 331 331 331
302 302 302 302 302 301 301 301 301 301 301 301 301 301 308 307 308 310 310 310 312 314 315 317 320 321 320 321 322 325 328 329 329 329 330 329 331 331 329 329 329 330 330 331 331
302 302 301 301 301 301 301 301 301 301 301 301 301 304 308 304 307 308 308 309 309 309 311 314 317 318 320 321 322 324 326 328 328 329 329 329 330 331 330 329 330 330 330 331 330
301 301 301 301 300 300 300 301 301 306 306 304 303 309 310 308 309 309 309 309 308 309 310 313 314 317 319 321 323 324 327 327 329 328 329 330 331 330 330 329 330 330 331 330 329
301 301 301 301 300 300 300 301 305 308 309 312 312 311 312 311 309 309 311 311 310 310 311 312 315 317 319 320 323 323 324 326 329 328 329 329 330 331 330 330 331 331 331 329 329
302 301 301 301 300 303 306 309 308 310 312 314 314 313 311 310 309 308 308 308 309 311 314 313 316 318 319 319 320 322 324 324 326 327 328 330 330 330 331 330 330 330 330 329 328
302 302 301 301 300 307 308 309 308 307 308 308 308 308 308 307 307 307 308 308 309 310 314 314 317 318 318 319 319 320 322 323 325 325 327 328 329 330 331 331 330 330 330 329 328
301 301 301 300 301 309 307 308 306 306 308 307 307 308 308 308 308 308 308 308 308 309 312 315 315 317 318 318 319 320 321 322 323 324 326 328 329 331 330 330 329 329 328 327 327
300 301 300 300 305 306 308 306 306 306 308 309 308 309 308 309 310 309 310 310 310 309 309 311 314 315 317 318 319 321 320 321 322 324 327 327 331 333 330 330 331 329 328 328 329
300 300 300 306 306 308 306 307 306 306 310 310 310 310 310 310 312 311 311 311 311 311 310 310 311 314 315 318 319 320 320 321 322 324 326 325 328 328 328 328 329 330 329 328 327
300 301 302 308 308 308 307 306 307 309 310 310 310 310 311 310 311 310 312 312 312 313 311 311 311 311 316 317 318 320 320 321 322 324 327 327 327 328 329 328 329 330 328 328 328
301 303 306 308 307 307 307 307 310 310 310 308 307 307 308 308 309 309 309 311 312 314 314 312 312 311 312 315 317 319 323 324 323 325 327 326 327 329 329 328 328 328 327 327 331
301 306 307 308 307 307 307 308 309 310 308 307 307 307 307 308 308 307 308 308 310 312 314 315 315 311 313 314 318 319 323 323 323 324 325 325 328 328 330 329 328 327 327 330 332
303 309 309 309 308 307 308 310 308 308 306 306 307 309 309 309 309 310 309 308 310 312 313 315 316 315 312 314 317 319 320 322 325 325 326 328 328 329 330 328 329 328 327 335 334
306 309 309 309 308 308 309 309 308 306 305 306 307 308 309 310 309 309 310 310 310 311 312 312 314 314 317 313 316 319 320 322 324 326 330 328 329 328 329 329 328 329 331 336 337
308 310 310 307 308 309 310 308 307 306 306 306 307 308 309 309 310 310 311 310 312 310 311 311 312 313 317 318 315 319 320 321 326 326 328 331 328 328 327 326 329 330 334 337 337
309 310 308 307 309 310 310 307 307 307 307 307 307 308 308 309 309 310 311 310 308 311 312 312 316 318 317 318 315 319 320 322 325 327 326 329 329 332 330 328 330 335 337 337 337
310 309 309 308 311 310 308 307 307 308 309 307 307 308 308 308 310 311 309 309 309 310 312 311 316 319 318 319 320 319 319 323 326 328 329 328 328 330 328 330 331 337 336 337 336
310 310 308 307 308 308 307 308 308 307 308 307 308 308 309 310 310 311 310 309 309 309 310 310 313 315 320 321 321 323 320 322 325 326 330 329 327 327 330 332 332 337 336 336 335
309 308 308 308 308 307 307 308 308 307 307 307 308 308 308 308 308 309 310 310 309 310 310 310 315 314 314 315 317 322 322 321 324 327 328 328 326 330 333 333 333 336 335 335 335
307 307 306 306 307 308 308 308 308 307 307 308 308 309 308 308 309 310 309 310 310 311 311 311 314 316 315 314 317 320 322 321 323 325 326 328 326 330 333 334 334 335 334 334 335
307 307 306 307 308 308 309 308 309 308 307 307 308 310 309 309 309 309 309 309 310 310 310 311 316 317 316 314 316 323 324 323 323 327 328 327 328 333 332 332 333 334 334 334 333

GFSSW_850_thetae_015.txt.gz
Theta_e
298 298 298 299 299 299 299 300 300 300 301 301 301 302 303 304 307 307 309 316 315 318 316 318 324 320 330 332 332 326 319 320 323 326 328 330 330 331 332 332 332 333 333 332 332
298 298 298 298 298 298 298 298 299 299 300 300 300 301 301 302 304 306 313 312 312 315 317 317 317 324 330 331 333 333 325 322 322 323 325 329 329 330 331 332 332 333 333 332 333
298 298 298 298 298 298 298 298 298 298 299 299 299 300 300 300 303 309 313 314 313 312 315 317 317 319 329 327 328 329 332 328 326 325 326 328 329 330 331 331 332 331 332 332 331
299 299 299 299 299 299 299 299 299 299 299 299 299 299 300 300 310 315 315 314 313 314 313 315 314 314 315 323 327 325 326 328 328 327 326 326 328 329 330 330 330 330 330 330 331
300 300 301 301 301 301 300 300 300 300 300 300 300 300 299 305 304 312 310 313 314 314 313 314 314 314 313 316 320 326 326 326 326 327 327 328 328 328 329 330 330 329 329 329 330
301 301 301 301 301 301 301 301 301 301 301 300 301 301 304 307 303 306 309 311 312 315 315 316 316 316 317 316 316 318 325 327 327 327 327 327 328 328 328 328 328 328 328 328 329
301 301 301 301 301 301 301 301 301 301 301 301 301 302 307 306 302 309 310 311 311 312 314 315 317 320 321 316 317 318 319 320 323 326 326 327 327 327 328 329 329 329 329 329 329
301 301 301 301 301 300 300 300 301 301 301 305 304 303 307 302 306 305 305 307 310 310 310 312 313 313 315 318 319 319 319 319 320 321 324 326 327 326 327 327 328 328 328 329 329
301 301 301 301 301 300 300 302 303 302 304 306 308 306 308 311 309 309 306 307 308 308 308 309 311 312 314 316 317 317 320 319 320 322 323 324 326 326 327 327 328 328 328 328 328
301 301 301 301 301 300 306 307 308 308 308 311 311 311 310 310 311 310 311 311 311 309 309 310 310 312 312 314 319 318 320 320 321 322 323 324 324 325 326 326 327 328 328 329 329
300 300 301 301 300 303 307 308 308 309 311 309 310 313 312 313 313 309 309 308 308 309 310 311 309 311 313 314 317 318 319 320 320 322 323 323 324 325 325 326 326 326 328 329 330
300 300 300 300 300 307 307 308 307 306 306 306 306 307 307 309 310 309 308 307 308 308 309 310 311 311 314 315 316 317 317 318 319 321 321 322 323 324 324 324 326 328 329 329 329
300 300 300 301 305 306 307 307 307 306 306 306 306 307 307 307 308 307 307 308 308 307 307 308 312 314 313 315 316 317 317 317 318 319 320 319 321 322 323 324 327 327 328 328 328
300 300 300 306 307 308 307 307 306 307 305 307 311 309 307 307 308 308 308 308 308 307 307 307 308 311 314 314 316 316 318 318 319 319 319 320 321 322 323 325 325 327 327 328 328
300 301 302 308 309 308 308 307 307 307 308 310 310 310 309 309 310 311 309 309 310 310 308 308 308 308 310 314 315 316 318 318 319 318 318 320 321 322 324 324 324 324 326 326 326
300 302 305 306 309 307 307 307 307 309 310 311 308 307 307 308 309 310 311 311 311 310 310 310 311 309 309 310 313 315 316 317 318 318 318 319 321 322 322 324 325 324 325 326 330
300 304 306 307 308 307 307 308 309 308 308 307 306 307 308 309 310 309 310 311 311 313 312 314 314 311 311 310 310 312 313 315 318 318 319 318 320 322 322 324 324 324 325 332 332
301 307 308 309 309 307 307 307 309 308 307 305 306 308 307 309 309 309 309 307 309 311 309 311 313 313 314 310 309 309 313 315 318 320 319 319 321 321 322 323 326 326 326 336 336
302 309 309 309 308 307 308 309 308 308 308 307 306 307 307 307 310 310 310 310 310 310 312 314 313 313 312 313 311 310 310 315 316 318 320 320 320 320 321 323 325 325 328 338 339
303 308 309 310 308 309 308 308 308 307 307 307 307 307 307 306 308 310 309 311 311 312 311 312 311 310 311 311 312 312 313 315 315 317 320 322 321 324 325 324 325 325 332 337 338
309 311 311 307 307 309 307 308 307 306 307 308 307 307 307 308 308 308 310 310 309 310 308 311 310 311 310 311 312 314 311 312 315 316 319 321 323 324 327 325 324 323 335 336 338
308 311 309 308 309 309 307 307 307 307 308 308 308 308 308 308 308 308 309 310 309 309 309 309 312 315 312 312 313 314 315 313 315 318 319 320 323 323 327 324 330 331 335 337 337
306 310 309 308 308 307 308 306 307 308 308 308 307 308 307 309 309 310 309 309 309 309 311 310 311 314 313 312 314 316 317 314 315 318 318 321 321 323 326 326 335 335 336 337 337
308 310 308 307 307 308 306 308 308 308 306 306 307 307 307 308 307 309 310 309 309 309 310 310 310 311 313 315 315 318 318 318 315 318 320 323 321 323 327 328 334 335 336 336 337
309 307 307 305 306 307 308 308 309 308 308 308 308 308 308 309 308 308 309 310 310 310 311 310 313 312 313 314 313 314 315 316 319 319 319 322 323 324 329 332 334 335 335 335 336
308 307 307 306 307 308 309 309 310 309 308 309 309 309 309 309 309 309 309 308 310 309 312 310 312 313 314 314 314 314 314 314 316 320 319 320 322 325 332 334 334 335 335 336 336
305 306 307 307 307 307 308 309 309 308 309 308 309 309 310 310 309 308 309 309 309 310 308 311 311 313 316 315 314 314 313 314 317 319 320 320 326 330 331 332 331 333 335 335 336

GFSSW_850_thetae_018.txt.gz
Theta_e
298 298 298 298 298 298 298 299 299 299 299 300 300 301 301 302 303 304 306 316 315 315 316 316 322 319 316 329 330 326 317 318 320 323 324 325 325 330 330 330 331 332 332 332 331
298 298 298 298 298 298 298 299 299 299 299 299 299 300 300 300 301 304 311 312 313 311 313 317 317 321 325 329 331 331 320 319 319 322 322 322 323 324 326 328 330 331 331 331 331
299 299 300 300 300 300 300 299 299 299 299 299 299 299 299 299 299 307 313 313 313 312 311 316 317 316 317 326 330 331 333 328 326 326 324 323 324 325 326 326 329 330 330 330 330
299 300 300 300 300 301 301 301 300 300 300 300 300 300 299 300 301 313 312 313 313 314 310 314 315 315 313 315 325 327 328 331 332 331 327 325 326 325 326 326 328 328 329 330 329
300 300 300 300 300 300 300 300 301 301 301 300 300 300 300 302 302 312 314 309 312 313 312 313 313 314 311 313 315 318 325 327 325 326 327 327 326 326 326 327 328 328 329 328 328
300 300 300 300 300 301 300 300 300 300 300 300 300 300 306 305 302 303 304 303 308 314 313 313 313 314 313 314 314 315 316 318 322 325 325 325 325 326 327 327 328 327 327 328 328
301 301 301 301 301 301 300 300 300 300 300 300 300 303 308 306 302 302 301 307 309 311 311 314 313 315 316 315 317 316 315 316 317 318 320 325 325 325 326 327 326 327 327 327 327
300 300 300 300 300 300 300 304 305 308 304 301 302 307 307 307 306 307 305 304 309 308 309 310 311 310 311 314 316 316 315 316 317 318 319 320 321 324 326 327 326 327 327 327 327
299 299 300 300 300 300 304 306 307 307 308 305 306 310 309 308 310 309 309 305 306 308 308 310 309 309 311 312 314 315 318 317 318 318 319 320 322 323 325 326 324 325 325 326 326
300 300 300 300 299 300 306 308 307 309 308 308 311 311 309 307 311 312 310 308 308 310 309 308 309 307 307 311 316 316 317 318 318 319 319 320 320 321 322 323 323 324 324 325 326
300 300 300 299 301 303 307 307 306 307 306 307 306 308 308 304 311 312 310 310 309 310 306 308 306 308 309 310 312 316 317 318 318 318 319 320 321 321 322 323 323 324 324 325 325
300 300 300 302 305 306 308 307 307 306 305 306 305 306 306 306 306 306 309 308 307 306 307 308 308 308 309 311 313 313 314 315 316 316 318 319 320 320 321 321 322 323 323 324 326
300 300 300 301 305 307 307 307 307 307 305 305 308 310 308 307 306 306 307 307 306 306 306 306 308 310 310 310 311 313 313 314 315 316 317 317 317 317 318 319 320 322 323 325 325
300 300 301 302 307 307 308 307 306 306 303 308 308 308 308 307 307 307 306 307 307 306 306 305 306 306 307 310 311 312 313 316 316 317 317 317 318 317 318 318 319 321 324 325 326
300 300 304 305 307 306 306 307 307 307 306 307 308 308 307 308 309 311 309 307 307 307 306 306 307 306 307 308 312 311 314 315 316 316 315 316 316 318 318 319 320 320 322 324 324
300 301 306 306 307 307 305 307 307 305 305 308 308 307 308 308 309 309 309 311 311 307 307 307 308 307 307 308 308 310 312 314 314 314 316 316 316 317 317 319 320 320 323 324 325
300 303 308 308 308 308 306 307 304 304 307 307 307 307 307 308 308 309 309 310 311 313 311 310 312 313 311 309 309 309 307 310 313 315 317 316 316 317 317 318 319 319 321 322 325
301 302 308 309 309 307 308 304 305 306 308 307 307 306 306 307 308 309 309 309 310 311 309 310 309 311 313 311 308 306 306 310 313 317 316 316 317 317 317 318 319 321 323 325 334
304 304 308 310 309 308 308 302 303 309 308 308 307 306 306 306 309 309 309 309 311 310 312 311 311 312 311 310 310 309 308 308 310 313 315 316 317 317 317 318 318 319 325 335 337
306 310 310 310 308 308 303 306 307 307 307 308 307 307 306 306 307 308 309 310 310 309 309 311 311 310 310 310 309 310 310 309 309 313 315 317 318 318 320 320 319 318 331 336 339
308 310 311 308 307 308 300 305 307 306 307 308 308 307 307 308 307 307 310 309 310 309 308 310 309 311 311 309 309 310 311 309 310 311 315 317 317 317 318 319 319 320 332 337 338
307 307 309 308 306 305 302 307 307 307 307 308 307 307 308 308 308 308 309 310 309 308 309 309 310 312 310 309 310 310 311 312 309 311 313 316 317 319 319 318 319 332 335 336 338
307 309 310 308 303 299 304 307 307 307 307 306 306 308 307 307 307 308 309 309 309 308 310 309 308 309 308 310 311 312 314 316 313 311 314 316 317 318 317 321 329 332 335 336 339
308 305 306 306 306 305 305 308 308 308 308 308 307 307 308 307 307 308 308 309 309 309 310 310 308 309 308 311 310 313 314 314 315 313 313 314 317 317 317 324 332 334 335 337 338
309 304 306 304 306 304 304 307 309 310 309 308 308 308 309 309 308 307 308 308 309 310 311 308 310 309 310 311 311 313 314 313 315 315 317 317 318 318 319 328 333 334 335 336 337
306 306 306 306 306 305 305 307 309 308 308 308 308 309 308 309 310 310 309 308 307 308 309 308 311 312 311 311 312 314 313 313 314 313 314 316 319 319 329 333 333 334 336 336 336
297 303 304 306 306 307 307 308 308 308 308 308 308 308 309 309 309 309 309 308 307 307 308 309 310 312 310 314 314 314 313 312 312 314 317 319 318 321 329 331 332 334 335 335 335

GFSSW_850_thetae_021.txt.gz
Theta_e
299 298 299 299 299 299 299 299 299 299 299 299 299 299 300 300 301 302 304 311 312 313 313 315 318 326 315 329 328 324 317 317 320 321 323 324 328 329 330 330 329 329 329 332 331
299 299 300 300 300 300 300 300 300 300 299 299 299 299 299 299 300 301 308 307 309 308 310 313 315 319 316 320 330 328 318 317 317 319 321 321 325 330 330 330 328 326 328 330 330
300 300 300 300 300 300 300 300 300 300 300 300 300 300 300 299 299 304 313 312 313 311 306 309 315 315 318 327 328 329 331 324 322 321 321 324 324 323 324 325 327 326 327 328 328
300 300 300 300 300 300 300 300 300 300 300 300 300 300 300 300 298 312 310 312 310 310 313 306 315 315 312 314 323 328 328 330 330 330 331 330 329 327 325 324 325 325 326 327 328
300 300 300 300 301 301 301 300 300 300 300 300 300 300 301 304 302 304 304 309 308 306 313 312 313 315 310 311 315 318 323 326 327 328 327 327 329 328 326 326 326 326 327 327 327
300 300 300 300 300 300 300 300 302 304 306 304 302 301 302 304 303 302 303 302 303 304 312 313 313 313 312 311 314 314 316 317 319 320 323 323 324 325 325 325 325 326 326 327 327
299 299 299 300 300 300 300 303 305 308 308 308 305 302 306 305 306 307 307 305 302 305 310 309 312 313 314 313 314 314 313 314 315 315 316 319 320 321 323 325 325 325 326 326 326
300 300 299 300 299 299 303 307 306 306 306 307 307 305 307 307 308 308 308 309 305 305 309 311 309 309 311 313 314 315 314 316 316 316 316 318 322 323 323 324 325 325 326 326 326
300 300 300 299 300 300 303 307 306 308 307 305 307 310 309 307 309 309 311 311 308 305 308 309 308 308 310 310 312 313 315 315 317 316 317 318 321 321 322 322 322 323 324 325 325
300 300 300 299 302 301 305 307 305 307 307 306 309 309 305 304 307 306 307 308 307 306 307 307 308 305 305 309 315 315 315 317 317 317 317 317 318 319 320 321 320 321 321 322 322
300 300 300 300 304 304 307 306 307 306 306 306 305 305 306 309 307 308 306 306 307 308 306 307 305 307 308 309 310 311 313 315 316 316 317 317 317 318 318 319 320 320 321 321 322
300 300 300 300 304 306 307 307 306 306 305 305 306 308 308 308 308 308 307 306 306 305 306 306 306 307 308 309 309 310 311 312 313 314 315 315 315 316 317 318 320 320 321 321 322
300 300 300 302 304 306 305 306 307 307 305 305 307 307 307 307 307 306 306 306 306 306 305 305 307 308 308 308 309 309 311 312 313 314 314 314 315 315 315 316 317 318 318 319 320
300 300 301 303 304 304 304 306 307 307 302 306 308 308 308 308 308 309 308 306 306 305 304 304 305 306 306 307 309 308 309 312 314 314 314 315 314 314 314 315 316 317 317 319 320
300 300 302 305 306 306 306 307 307 307 305 307 308 306 306 308 308 309 309 307 306 307 305 305 305 305 306 306 307 308 310 311 311 311 314 315 314 315 314 315 315 316 317 318 319
301 301 302 306 307 307 307 307 307 302 302 307 307 306 306 306 308 309 308 309 309 307 306 305 307 306 306 307 307 308 309 310 310 311 313 314 315 315 315 315 315 316 318 320 322
302 303 303 307 308 307 308 307 302 303 305 307 307 307 306 306 307 308 309 310 310 311 309 308 307 307 308 306 308 308 305 308 310 312 314 313 315 315 315 315 315 315 317 319 320
304 304 306 308 308 307 308 302 304 306 307 307 307 306 306 305 307 308 309 310 311 311 311 313 311 310 312 310 308 305 305 307 312 314 313 314 315 315 314 315 316 317 317 317 319
306 309 309 309 308 307 306 301 302 308 307 307 307 306 305 306 307 307 307 310 310 310 311 312 310 310 310 310 310 309 305 306 306 309 310 313 314 315 316 316 316 315 317 320 326
307 310 310 309 308 307 303 305 306 307 306 307 307 307 306 306 307 306 308 310 310 309 308 309 309 310 309 309 309 308 309 307 305 311 313 313 315 316 316 317 317 316 315 322 333
307 310 310 308 307 307 300 303 306 307 307 308 307 306 306 307 307 307 308 309 309 309 307 308 308 309 309 309 306 308 309 308 306 307 312 314 314 313 316 315 315 318 317 327 337
307 305 310 308 305 302 300 305 306 307 307 308 307 306 306 307 307 307 309 309 309 308 309 308 308 310 310 308 308 309 309 310 307 309 309 312 314 314 316 315 319 320 322 334 338
307 308 307 306 300 297 302 306 307 308 308 308 308 307 306 306 307 307 308 308 308 308 309 309 307 308 307 310 310 310 310 311 312 310 311 312 313 313 314 314 325 331 334 336 339
307 303 305 305 305 303 304 306 307 307 308 308 307 307 307 307 306 307 307 307 308 308 310 309 306 307 307 308 309 311 312 313 314 312 313 313 312 313 314 315 318 333 334 338 339
307 303 305 301 303 303 304 305 307 308 308 307 307 307 308 309 308 307 307 308 308 308 309 307 308 309 308 308 309 310 311 312 313 314 315 314 312 313 314 316 318 333 336 337 338
302 303 303 302 304 304 304 308 308 308 307 307 308 308 307 308 308 309 309 308 309 307 309 308 308 310 310 310 311 311 311 311 313 313 313 313 314 314 315 323 332 334 336 336 336
297 299 301 303 303 305 307 307 307 307 307 308 308 308 307 307 307 307 307 308 308 308 309 309 309 309 309 308 310 316 313 312 313 312 312 315 315 316 317 323 332 333 336 336 336

GFSSW_850_thetae_024.txt.gz
Theta_e
299 299 299 300 300 300 300 300 300 300 300 300 300 300 299 299 300 301 303 306 306 308 310 310 316 323 319 325 325 322 317 317 319 320 321 323 324 327 329 330 330 330 329 330 330
300 300 300 300 300 300 300 300 300 300 300 300 300 300 300 300 301 302 305 305 305 307 307 308 311 312 318 319 328 319 316 317 316 319 320 321 321 323 324 324 329 330 331 330 330
300 300 300 300 300 300 300 300 300 300 300 300 300 300 300 300 300 306 313 311 307 305 307 306 311 311 320 320 325 328 326 316 318 318 319 321 322 325 325 324 325 328 329 328 327
300 300 300 300 300 300 300 300 300 301 302 302 303 302 300 300 299 306 305 308 308 307 306 310 310 315 312 319 325 327 327 327 325 325 327 328 330 330 329 326 328 328 327 325 326
299 299 299 299 300 300 300 300 303 305 306 307 307 307 304 302 302 303 302 303 303 303 304 313 308 312 311 310 316 323 324 328 328 329 329 329 328 329 329 328 327 327 326 326 326
299 300 299 300 299 299 300 303 305 306 306 306 306 307 305 303 304 306 305 305 305 306 304 311 314 310 312 310 313 314 316 317 323 325 324 324 324 324 325 326 325 325 325 325 325
300 300 299 299 299 299 300 304 305 305 307 307 306 305 306 304 304 307 309 309 309 307 305 306 310 312 311 311 313 313 313 312 313 315 316 320 320 321 322 322 322 323 324 325 326
300 300 300 300 299 300 300 304 305 305 306 307 305 306 305 304 304 307 306 308 308 307 308 304 309 306 311 312 312 314 313 314 315 313 315 319 322 322 323 324 323 324 324 324 325
300 300 300 300 300 301 302 303 304 304 304 308 305 308 305 306 308 308 307 307 307 308 305 304 307 307 308 309 310 311 314 313 315 314 315 317 320 320 321 322 321 321 322 322 323
300 300 300 300 300 302 303 304 303 305 306 305 306 307 306 307 307 307 308 306 309 307 306 305 306 305 304 308 312 313 313 316 316 315 315 315 317 317 319 319 319 320 321 321 321
300 300 300 300 300 303 304 305 306 306 305 305 306 305 306 307 307 307 306 306 308 307 306 306 304 305 308 309 309 309 312 313 314 315 314 314 316 316 315 316 316 318 318 319 319
300 300 300 301 302 304 305 306 307 306 305 305 306 306 307 307 307 307 306 306 307 306 304 304 305 306 308 307 308 308 309 310 311 312 313 313 313 313 313 313 314 315 317 318 319
300 300 300 303 302 304 305 306 306 307 304 305 306 307 307 307 307 307 307 306 306 306 305 304 305 307 307 307 308 308 309 310 311 312 312 313 314 314 314 314 315 315 315 316 317
301 300 300 304 304 305 306 307 307 307 301 304 307 307 306 306 307 308 309 307 306 305 304 304 304 305 306 307 307 306 308 310 312 313 313 313 315 314 314 314 313 314 315 315 317
301 301 301 305 307 307 307 307 307 306 301 306 307 306 306 306 306 308 309 308 306 306 306 304 305 304 304 305 306 307 308 308 309 308 309 311 312 314 312 312 312 313 314 314 315
303 304 302 306 307 307 307 307 306 302 301 306 306 306 306 305 306 308 308 309 309 307 306 305 306 305 305 305 305 307 308 308 309 308 310 309 311 312 311 312 314 313 314 315 316
305 305 303 308 307 307 307 307 301 301 304 307 306 306 306 305 305 308 307 309 310 311 310 307 306 306 306 306 306 305 304 307 309 310 310 310 311 311 311 312 313 314 315 317 318
306 307 307 308 308 307 306 300 303 305 306 306 306 306 305 304 305 307 306 310 310 311 311 312 309 309 310 306 306 305 304 306 312 311 310 311 313 312 312 312 314 315 316 316 317
306 309 309 308 307 307 306 300 301 304 307 307 306 307 305 305 305 305 305 308 309 309 311 312 312 310 310 310 308 307 305 306 305 307 307 310 311 312 313 313 313 312 316 316 317
305 310 309 308 307 307 302 306 304 305 306 306 307 306 306 305 305 304 305 308 309 309 307 308 309 310 310 309 310 308 306 306 303 307 311 311 311 312 313 313 313 313 314 320 317
304 309 309 308 308 306 300 303 305 306 307 307 307 307 306 306 306 306 306 308 309 308 307 307 308 308 308 308 306 309 307 307 304 305 311 313 312 311 312 314 313 320 329 321 321
305 305 308 308 304 299 299 304 305 306 307 308 307 307 306 306 306 306 307 308 308 307 307 308 308 309 309 307 307 307 308 307 307 308 306 307 308 310 311 311 312 314 331 329 332
306 306 307 305 298 296 301 304 305 307 307 308 308 307 306 306 307 307 307 307 307 307 308 307 306 309 307 309 309 309 309 307 309 308 310 309 308 309 310 312 313 314 330 334 336
305 301 305 305 303 302 304 306 306 307 307 307 306 306 307 308 307 308 307 307 307 308 309 308 305 306 305 307 308 309 309 310 312 310 308 309 311 311 311 312 313 319 329 334 335
302 302 304 299 300 300 303 305 307 308 308 306 307 307 309 310 308 308 307 306 307 307 308 307 309 307 308 308 308 308 309 309 310 311 313 312 313 312 311 312 312 327 333 334 335
298 298 299 301 300 302 304 305 307 307 306 306 307 307 308 309 308 308 308 308 309 307 307 305 310 309 309 308 309 310 310 310 310 310 311 312 313 312 313 313 317 327 335 336 336
300 297 300 300 299 300 301 305 305 305 307 306 307 307 308 308 307 307 307 307 307 309 308 309 307 307 307 308 309 309 309 309 309 310 310 313 312 312 314 316 318 329 335 336 337

GFSSW_850_thetae_027.txt.gz
Theta_e
300 300 300 300 300 300 300 300 300 300 300 300 300 300 301 301 301 302 303 302 304 305 306 309 312 319 316 324 323 322 322 322 320 320 320 323 325 326 326 329 328 329 330 330 330
300 300 300 300 300 300 300 300 300 300 300 300 301 301 301 301 301 302 309 308 306 305 305 306 308 316 321 322 326 323 324 322 320 320 321 322 322 324 325 326 326 328 327 327 328
299 300 299 299 300 300 300 300 300 302 303 303 304 304 304 303 301 305 310 308 308 304 305 306 306 310 314 318 324 325 324 323 321 319 320 320 320 321 323 327 326 326 326 326 326
299 299 299 299 299 300 300 300 303 303 304 305 305 304 305 304 302 305 305 303 302 304 303 308 308 313 314 316 320 324 324 324 322 319 319 319 320 323 324 325 326 327 327 326 326
299 299 299 299 299 299 299 302 305 304 304 305 305 305 304 304 304 304 308 306 304 305 305 308 312 311 315 316 317 323 323 325 325 326 324 327 328 328 328 328 328 327 327 326 326
300 300 300 300 299 300 300 302 304 304 304 305 305 304 305 305 303 304 309 308 308 307 307 308 314 310 311 313 315 318 319 322 324 327 327 328 327 327 327 327 326 326 326 326 326
300 300 300 300 300 300 301 301 304 304 303 303 305 306 305 303 307 307 307 307 308 307 307 308 306 313 310 311 313 314 316 316 317 321 325 325 326 328 325 324 324 324 324 325 325
300 300 300 300 300 301 301 302 303 302 303 304 305 305 305 307 307 307 307 307 307 309 308 307 304 305 310 312 312 314 315 317 318 316 317 319 322 323 322 322 323 323 324 324 325
300 300 300 300 300 301 302 303 302 303 304 305 305 306 307 307 307 307 307 307 307 308 307 304 304 305 308 312 313 315 316 317 318 318 318 319 322 323 322 323 324 324 324 324 323
300 300 300 300 301 301 302 302 304 305 305 306 306 307 306 307 307 307 307 306 306 307 306 305 306 309 310 312 314 314 315 316 317 317 318 319 320 321 321 320 321 321 321 321 321
300 300 300 300 302 301 303 303 304 305 305 306 306 305 306 306 306 307 308 306 306 307 308 307 306 307 310 311 313 313 314 316 317 317 318 319 319 320 319 319 319 319 319 319 320
301 301 300 301 303 302 304 305 306 306 307 306 305 305 306 306 306 307 308 306 307 309 308 308 307 307 308 309 310 312 313 313 313 314 315 318 318 318 318 318 318 318 318 319 319
301 301 301 302 303 304 305 306 307 307 306 306 305 306 306 306 306 306 308 307 307 307 309 309 308 307 308 309 310 312 313 313 313 314 315 316 317 318 318 318 317 317 318 318 318
302 303 302 304 305 306 306 307 307 307 307 305 307 306 306 306 307 306 308 309 307 307 307 307 308 307 307 308 309 311 310 312 313 314 316 316 317 318 318 318 318 317 317 317 317
302 305 304 303 306 307 307 308 307 305 304 305 307 306 306 306 306 307 308 308 309 309 309 309 306 306 307 308 308 309 310 310 310 312 313 314 315 316 317 317 317 318 317 317 317
302 306 302 306 307 307 307 307 306 305 304 306 306 306 307 306 305 306 307 308 309 310 310 309 308 307 307 307 307 308 309 310 311 311 312 313 313 316 316 316 316 317 316 317 317
303 305 307 307 308 307 307 306 306 304 305 306 306 307 307 306 306 306 307 309 312 314 312 310 309 308 307 307 308 308 308 309 310 312 313 312 313 315 316 315 316 317 316 316 317
304 307 308 308 307 307 307 304 305 305 306 306 307 307 307 306 306 306 307 307 310 309 313 312 313 308 308 307 308 309 309 309 309 310 311 311 313 314 316 317 316 316 317 318 319
303 309 308 308 307 307 305 307 306 306 307 307 307 307 307 306 306 306 307 307 308 309 310 310 312 310 310 310 310 310 309 309 310 311 311 311 312 313 314 315 317 319 321 322 328
302 309 309 308 307 307 307 307 306 305 307 307 308 307 307 308 307 307 307 307 308 309 309 308 310 310 310 310 311 311 310 310 310 310 311 313 313 314 315 317 318 319 321 325 329
303 309 308 309 307 305 308 307 306 306 306 308 308 308 308 308 307 307 307 307 308 308 308 309 309 308 309 310 310 310 311 310 310 310 312 314 315 317 317 317 316 317 318 331 327
303 309 306 305 307 301 307 306 305 307 307 307 308 309 309 307 308 307 307 307 307 308 308 310 311 311 309 308 309 309 310 311 312 311 310 311 313 315 315 315 315 315 316 331 333
303 304 307 302 308 306 304 305 305 307 307 308 308 308 308 308 309 308 308 307 307 308 308 309 309 309 307 311 310 309 310 310 311 312 312 312 312 314 314 314 314 315 317 332 334
302 306 303 304 303 303 304 306 306 306 307 308 308 307 308 308 308 309 309 308 307 307 308 309 310 308 308 308 309 310 310 310 311 313 312 312 313 313 313 314 315 315 319 332 335
300 303 302 304 301 300 302 305 306 307 307 306 307 308 309 310 308 308 308 308 308 307 308 309 310 309 309 309 309 310 309 309 310 311 313 312 312 312 313 315 315 316 317 328 335
302 299 300 300 300 303 304 305 306 306 305 306 306 306 308 309 308 309 308 308 308 308 309 308 311 309 309 309 309 308 309 310 310 310 310 311 312 312 312 313 314 315 317 327 335
304 300 299 302 302 302 304 304 303 303 304 306 306 306 308 308 307 307 307 307 307 308 310 311 312 310 309 307 308 309 309 310 310 310 310 311 311 312 313 314 315 316 319 322 337

GFSSW_850_thetae_030.txt.gz
Theta_e
300 300 300 300 300 300 300 300 300 300 300 301 301 302 302 302 302 305 306 305 303 303 305 308 309 320 321 326 325 324 327 328 326 323 322 322 324 325 328 331 331 332 333 332 335
299 299 299 299 300 300 300 300 300 302 302 302 303 303 303 303 303 311 309 308 307 306 308 310 310 315 322 323 326 326 329 329 327 326 322 321 322 325 327 330 331 331 330 329 331
299 299 299 299 299 299 299 300 302 303 303 303 303 304 304 304 307 313 310 305 304 303 310 309 311 311 321 323 324 327 328 328 328 326 322 323 324 323 325 330 331 331 331 330 329
299 299 299 299 299 299 299 301 303 302 302 302 303 304 304 304 309 309 307 307 305 303 309 313 313 312 315 321 322 326 327 327 327 326 323 323 324 325 324 324 327 329 329 330 330
300 300 300 300 299 300 300 301 302 302 302 302 303 304 306 309 306 304 307 308 309 308 307 308 313 313 316 317 318 323 325 326 326 325 324 323 324 325 325 326 327 327 328 329 329
300 300 300 300 300 300 301 302 302 302 302 302 304 305 308 308 307 307 307 308 309 309 308 308 311 313 313 314 318 319 320 322 324 325 326 326 328 327 328 328 329 329 329 329 329
300 300 300 300 300 300 301 302 303 302 302 304 305 305 309 308 307 308 309 309 309 309 309 308 308 309 315 315 314 316 319 320 322 323 325 327 329 329 327 328 329 329 329 328 328
300 300 300 300 300 301 301 302 302 303 304 305 305 308 310 307 307 309 309 309 309 309 309 309 308 307 310 314 315 315 317 319 321 321 321 325 330 330 327 327 328 327 327 326 327
300 300 300 300 301 301 301 302 303 304 304 306 310 310 309 307 308 308 308 309 309 309 309 308 308 308 309 313 315 317 317 318 319 321 321 322 325 326 325 325 326 326 326 326 326
301 301 300 300 301 301 302 303 303 304 305 306 307 311 308 307 307 307 309 309 309 309 309 309 308 310 309 312 314 315 317 317 318 320 321 322 322 323 323 324 325 325 326 327 326
301 301 301 300 302 302 303 307 309 309 307 309 308 308 307 307 307 308 308 309 309 309 311 311 310 310 310 310 312 314 316 317 318 319 320 322 322 322 322 322 323 324 324 324 324
301 302 302 301 304 303 305 308 307 307 309 308 307 307 308 307 307 307 308 309 310 311 311 311 312 311 310 309 310 313 315 317 317 318 320 320 321 322 322 323 322 323 323 322 322
301 302 304 301 305 306 307 308 308 308 310 308 307 307 307 307 307 307 307 309 311 310 310 312 312 311 309 309 310 312 313 315 316 317 318 320 321 321 322 322 321 321 321 321 321
300 302 305 302 307 306 308 307 308 308 311 308 308 308 307 307 308 306 308 308 310 310 310 311 311 311 310 309 310 310 311 313 315 316 318 319 320 321 321 322 322 321 321 321 321
299 304 305 302 306 309 308 308 308 307 310 307 308 306 307 308 307 307 308 308 310 311 311 311 311 310 310 309 310 310 311 313 314 316 317 317 319 320 321 321 321 322 321 320 320
299 306 302 307 307 308 307 306 307 311 310 307 307 308 309 307 307 306 307 307 309 312 312 313 311 311 310 309 309 310 310 310 313 314 317 317 318 319 320 320 321 321 320 319 319
301 306 308 307 310 307 307 308 311 309 307 308 308 309 309 308 308 307 308 308 310 312 311 312 312 312 311 310 310 309 310 311 312 315 316 316 317 317 320 319 319 319 320 319 320
303 308 308 308 307 307 308 309 310 308 308 308 309 309 309 308 309 309 308 308 309 311 312 313 312 312 311 311 310 310 310 310 311 312 313 315 316 317 318 318 318 319 320 321 323
304 309 309 308 307 307 309 311 310 309 308 309 309 309 309 309 309 309 308 308 309 310 311 311 311 310 311 311 310 310 310 312 310 311 313 314 315 316 318 318 319 321 322 324 330
303 310 310 308 307 308 310 309 309 307 308 309 310 309 310 310 310 309 308 308 308 309 310 310 312 310 311 311 311 312 311 315 310 311 313 314 315 317 318 317 319 321 321 326 336
307 310 309 307 306 308 311 309 308 308 307 309 310 310 310 309 309 309 309 309 309 309 309 310 310 310 311 312 310 313 315 315 312 311 313 314 316 317 320 320 320 320 320 331 336
307 310 308 306 308 308 308 306 306 308 308 309 309 310 310 310 309 309 309 309 308 309 309 310 311 311 310 310 311 311 313 314 317 315 313 315 319 320 320 319 319 319 320 331 335
306 306 306 302 309 307 305 306 306 308 308 309 309 310 309 310 310 310 309 309 308 309 309 311 311 311 309 312 312 310 311 311 314 314 317 314 317 319 318 318 317 318 318 323 336
305 308 307 305 305 305 306 306 308 307 308 308 309 308 310 310 310 310 310 308 308 308 308 309 312 311 311 310 310 310 310 311 312 315 314 315 316 318 318 318 317 317 317 322 337
303 306 305 310 309 307 307 306 307 308 308 308 309 309 309 309 310 310 309 309 308 308 309 310 313 311 310 310 310 310 309 310 312 312 313 314 315 315 316 317 317 315 315 318 335
305 304 305 305 306 307 307 307 306 306 306 307 308 308 307 309 309 310 309 310 310 310 309 309 314 312 311 311 310 310 310 310 310 311 311 312 313 314 314 313 313 314 315 318 320
304 303 301 304 306 306 308 307 307 307 306 307 307 307 309 309 308 308 308 309 310 309 310 310 311 312 313 311 310 311 310 310 310 311 312 313 313 313 313 314 314 314 315 317 319

GFSSW_850_thetae_033.txt.gz
Theta_e
299 300 300 300 300 300 300 300 300 301 302 302 302 302 303 303 303 309 312 311 310 307 306 309 312 313 321 323 327 328 330 330 329 327 327 326 326 325 328 330 335 336 336 337 337
299 300 299 299 299 299 300 300 302 302 302 302 302 303 304 304 305 313 312 308 306 307 310 312 313 314 318 322 326 329 331 330 329 328 328 327 325 325 327 329 332 335 334 334 337
300 299 299 299 299 299 300 300 302 302 302 302 302 303 304 304 314 317 311 304 304 304 309 312 312 315 315 321 323 328 332 330 329 328 328 327 325 324 326 330 332 334 334 333 334
300 300 300 300 300 300 300 300 302 302 302 302 302 304 305 309 314 312 305 306 308 308 308 312 313 315 317 318 323 326 327 329 329 329 328 329 326 327 325 326 329 333 334 333 333
300 300 300 300 300 300 301 301 302 302 302 302 303 305 310 314 310 307 307 310 310 311 310 310 313 316 318 318 319 325 326 325 327 328 328 328 327 327 327 326 326 327 331 331 332
300 300 300 300 300 300 301 302 302 302 302 303 304 305 314 315 309 309 310 311 311 311 311 311 311 314 316 318 319 319 320 322 323 325 327 328 328 327 326 327 327 326 327 329 329
300 300 300 300 300 300 301 302 302 302 303 304 306 306 313 311 309 310 311 311 311 311 311 312 311 311 315 318 317 317 319 320 322 322 325 327 328 329 328 328 328 328 328 330 331
301 300 300 300 300 301 301 302 302 303 304 305 306 312 314 309 309 310 309 310 311 311 311 311 311 311 311 312 314 318 318 319 320 322 323 323 328 328 327 328 329 330 330 330 331
301 301 301 301 301 302 302 303 303 303 304 306 312 314 314 309 309 308 309 310 310 311 311 311 310 311 312 312 313 315 319 319 319 320 322 323 325 326 326 328 330 329 330 330 330
301 301 302 301 301 303 302 307 308 307 308 312 312 313 312 309 308 308 309 309 310 311 311 312 312 313 313 313 312 314 315 317 319 320 320 321 324 324 323 325 328 328 329 329 329
298 301 302 303 302 303 305 312 312 315 312 310 310 309 309 308 308 309 309 309 311 311 314 313 315 315 314 314 314 313 314 316 318 320 320 320 322 323 324 323 324 326 327 328 328
299 300 302 304 303 305 310 310 310 310 311 310 309 308 308 309 309 309 308 309 311 312 313 313 314 314 314 313 312 312 313 314 315 318 320 321 321 322 324 324 324 324 325 326 327
306 299 304 304 304 311 309 310 309 310 312 311 309 309 309 308 309 309 308 309 311 311 312 312 313 313 313 313 312 312 312 313 314 317 319 320 321 323 322 322 323 323 323 324 325
307 300 305 303 310 309 312 310 310 310 314 312 310 310 308 309 310 308 308 309 310 311 311 312 312 312 312 312 313 312 312 312 313 316 318 320 321 322 323 323 323 323 323 323 324
307 302 303 302 310 312 310 310 309 310 318 310 310 308 309 310 309 310 308 309 310 310 311 311 312 312 312 313 312 312 312 312 313 314 316 317 319 321 322 323 323 324 322 322 323
308 303 304 310 311 310 310 310 310 316 316 310 310 310 311 311 310 309 309 308 309 310 311 312 312 314 313 313 312 311 311 312 313 313 316 317 318 320 321 322 323 324 322 322 322
308 304 307 308 312 310 310 310 316 315 311 311 311 311 311 312 310 311 310 310 309 310 310 312 312 313 314 312 312 311 311 310 312 313 315 316 318 319 320 321 322 322 322 322 322
308 304 309 310 311 310 311 314 315 313 312 311 311 311 312 310 310 311 311 310 309 310 311 312 314 313 313 313 314 312 312 311 311 312 313 314 316 317 320 321 320 320 320 321 322
307 312 311 312 311 309 311 315 315 313 310 311 311 312 312 311 311 311 311 310 309 310 310 311 313 311 312 312 314 314 312 314 313 314 314 314 315 317 319 320 320 322 322 324 325
307 311 313 311 311 310 313 314 313 310 310 311 312 312 312 312 311 311 310 311 309 310 310 311 312 312 311 312 312 314 313 314 317 315 313 316 316 317 318 319 320 322 323 323 331
310 310 312 309 308 311 314 312 310 309 309 311 312 312 311 311 311 312 311 311 311 310 311 310 311 311 311 313 314 315 314 314 315 313 316 315 318 318 319 320 320 322 322 331 336
309 313 312 305 310 313 313 308 307 310 310 311 311 311 312 311 311 311 311 311 310 311 310 311 312 313 311 311 313 312 314 313 316 319 315 315 316 319 322 323 323 322 323 330 337
309 310 309 307 313 313 311 310 308 310 311 311 310 311 310 310 312 313 312 311 310 311 311 312 313 314 313 312 312 312 313 314 313 314 317 320 320 319 322 322 321 320 321 333 338
308 311 310 308 310 311 313 311 309 309 310 310 310 310 310 311 311 311 312 311 310 310 310 311 313 313 313 311 312 313 314 313 314 316 315 316 316 318 320 321 320 319 318 322 338
308 309 307 310 310 310 310 312 310 310 309 309 310 310 310 312 312 311 311 311 311 310 310 310 313 311 312 312 312 312 311 310 311 312 314 313 313 315 317 319 319 317 317 319 332
306 306 306 306 308 308 310 311 311 309 310 310 310 311 310 310 310 311 311 313 313 311 312 311 313 311 312 312 312 311 311 310 311 311 311 312 312 313 315 316 317 316 316 319 323
303 303 304 306 308 309 309 309 309 308 309 309 309 310 311 311 310 311 311 311 313 313 310 311 313 313 313 311 312 312 311 310 311 311 311 311 312 313 314 315 316 316 316 317 320

GFSSW_850_thetae_036.txt.gz
Theta_e
300 300 300 300 300 300 300 300 301 302 302 302 302 303 304 304 304 305 314 313 312 311 311 308 311 313 314 317 324 324 330 332 330 329 328 327 327 327 326 327 331 334 338 338 340
300 300 300 300 300 300 300 300 301 302 302 302 302 303 304 304 304 314 313 311 310 308 305 312 313 314 315 317 321 326 330 331 330 329 329 328 328 328 327 326 328 333 336 338 339
300 300 300 300 300 300 300 300 301 302 302 302 302 303 304 305 317 317 315 313 304 305 306 311 312 314 316 317 319 323 328 329 330 330 329 329 328 328 326 326 327 331 335 335 339
300 300 300 300 300 300 300 301 301 302 302 302 302 304 304 311 317 315 308 307 309 312 313 311 312 314 315 318 318 321 323 326 328 329 330 330 329 329 328 326 325 328 332 335 335
300 300 300 300 300 300 300 301 301 302 302 302 303 305 306 319 315 310 310 311 312 313 313 312 312 314 317 317 318 319 321 323 324 326 328 328 329 330 329 327 327 326 328 334 335
300 300 300 300 300 300 301 301 302 302 302 303 304 305 313 318 311 311 311 312 313 312 312 313 313 313 313 316 318 318 319 319 321 326 326 327 328 329 329 328 327 327 327 329 333
301 301 301 301 300 301 301 301 302 302 302 303 305 306 315 315 310 310 312 311 311 312 312 312 313 313 313 315 316 317 319 319 320 320 322 324 326 328 329 329 328 328 328 328 330
300 301 301 302 301 301 302 302 303 303 303 304 306 309 317 311 310 310 309 310 311 311 312 312 312 312 312 313 313 315 317 319 319 320 321 321 323 324 326 329 329 329 329 329 329
298 299 301 302 302 302 302 303 307 307 304 305 310 316 315 312 311 309 309 310 310 311 311 312 312 312 312 313 314 313 314 316 318 320 319 320 323 324 323 326 328 329 330 330 331
308 301 301 302 303 303 305 307 312 310 309 315 314 314 315 312 310 309 310 310 310 311 312 313 313 315 314 314 313 314 313 314 315 316 319 320 321 323 323 324 325 327 328 329 331
308 307 300 303 303 304 310 314 314 316 316 315 313 312 310 310 310 310 310 310 311 313 313 313 315 316 316 316 315 315 314 314 315 316 317 320 321 322 322 323 324 326 328 327 328
308 308 301 305 303 305 312 313 310 310 312 312 312 311 310 310 310 311 310 310 311 312 313 313 313 314 315 315 315 315 314 314 314 315 316 317 318 321 323 324 324 325 325 326 327
308 308 303 305 306 312 312 311 310 311 312 313 312 310 310 310 310 311 310 310 311 311 312 312 313 314 313 314 314 314 314 314 313 314 314 316 317 320 321 323 322 323 325 325 325
308 308 304 305 313 312 314 312 311 311 314 314 311 311 310 310 312 310 310 310 311 311 311 311 312 312 313 313 313 313 314 314 313 313 313 315 318 321 321 323 323 324 323 324 325
308 308 304 304 305 313 311 311 311 312 322 313 312 310 310 311 311 312 310 309 310 310 310 310 311 311 312 313 314 314 315 313 313 313 313 313 315 317 321 322 324 324 324 323 323
306 308 304 314 313 314 310 312 314 318 320 312 311 311 312 312 312 311 311 311 311 311 311 311 312 312 314 313 314 314 314 313 312 312 314 314 315 316 318 321 322 324 324 324 324
302 307 305 307 313 311 311 313 317 319 314 313 312 312 312 313 313 312 311 312 311 311 310 312 311 314 315 315 315 315 312 311 312 312 312 313 314 317 317 319 320 322 322 322 323
307 309 306 308 311 311 311 315 318 316 315 313 312 312 313 314 312 312 311 312 312 310 309 310 310 312 313 313 313 314 314 314 311 311 312 312 314 315 316 319 319 320 321 321 322
309 313 313 313 312 310 312 317 317 314 313 312 312 313 313 313 313 312 312 312 311 310 309 310 310 313 312 312 313 315 313 315 314 314 313 315 312 315 316 316 318 321 322 321 322
305 313 314 314 312 310 314 316 314 313 312 312 312 313 313 313 313 313 312 313 312 312 312 311 311 311 310 311 312 312 313 315 316 316 312 313 312 313 316 317 318 321 323 322 324
310 314 314 313 308 312 317 314 312 310 309 311 312 313 312 312 313 313 311 312 313 313 313 313 311 312 312 312 312 314 315 314 315 317 318 317 314 315 322 320 320 321 322 323 325
311 314 314 308 310 315 316 313 310 310 310 312 312 311 312 312 312 311 311 313 312 311 312 313 313 314 312 311 312 311 314 315 317 314 313 313 316 316 317 316 314 322 322 326 332
311 311 312 310 315 314 313 313 312 311 311 311 312 312 312 311 312 311 312 311 312 312 312 313 313 314 312 312 313 314 315 314 314 316 316 317 317 317 312 313 313 317 321 320 335
312 313 313 310 311 313 312 312 313 311 310 311 311 311 311 312 312 312 312 312 311 311 311 311 313 313 314 312 313 314 313 313 313 319 319 314 314 315 312 314 315 318 320 319 334
312 311 310 312 311 311 311 311 313 313 311 311 311 311 311 313 312 312 312 312 312 313 310 311 315 313 312 312 311 311 313 313 314 314 314 311 312 314 314 314 314 314 316 320 333
308 308 306 307 309 311 310 311 312 312 311 311 312 311 311 312 312 313 312 313 316 314 313 313 313 313 315 313 312 312 312 314 314 314 311 310 311 312 315 313 314 315 317 318 325
305 304 304 306 311 312 310 309 309 309 309 310 310 310 311 311 312 311 312 313 314 314 311 309 312 316 315 313 312 313 311 311 311 311 311 310 312 313 313 315 316 316 317 317 318

GFSSW_850_thetae_039.txt.gz
Theta_e
300 300 300 300 300 300 300 300 301 302 302 302 302 302 303 304 304 304 305 313 313 313 312 311 309 310 313 314 318 323 322 323 328 328 327 328 326 328 327 327 326 327 336 338 340
300 300 300 300 300 300 300 300 301 301 302 302 302 302 303 304 306 306 314 314 313 310 306 307 312 313 313 315 315 318 322 323 324 327 328 328 328 328 327 327 326 328 338 338 339
300 300 300 300 300 300 300 301 301 301 302 302 302 303 304 306 318 317 315 313 308 305 306 310 311 311 313 314 315 318 321 323 324 327 328 329 328 329 328 326 326 325 336 337 339
300 300 300 300 300 300 300 301 301 301 302 302 302 303 305 308 317 317 308 309 312 312 313 313 311 311 312 312 315 314 316 321 322 323 324 325 327 327 328 328 329 327 326 334 337
301 301 301 300 300 300 301 301 301 302 302 302 303 304 305 318 319 310 311 312 312 313 313 313 313 312 309 313 313 313 315 317 319 322 323 323 324 325 327 328 329 328 327 327 335
299 300 301 301 301 301 301 301 301 302 302 302 303 304 308 318 311 311 311 312 312 312 312 312 313 313 313 311 310 313 314 316 317 318 321 322 323 325 326 327 328 329 328 327 329
302 299 300 301 302 301 301 302 302 302 303 303 304 305 308 308 311 310 311 310 310 311 312 312 312 312 312 311 313 313 312 314 315 317 317 319 321 325 326 325 326 327 329 328 328
308 308 300 301 302 302 302 303 303 306 307 304 305 306 311 313 310 311 309 309 311 311 311 311 312 312 312 312 312 311 311 310 315 316 317 317 317 319 321 324 325 326 327 328 328
308 308 305 300 302 303 303 304 305 310 309 305 308 315 318 315 311 310 309 310 311 310 311 311 312 312 312 310 309 310 310 310 311 313 315 316 317 318 319 321 322 323 324 328 328
308 308 307 301 304 303 305 310 313 312 310 316 311 314 315 314 310 310 310 310 310 311 312 313 312 310 309 310 309 310 310 311 311 311 312 312 315 317 318 319 320 322 323 328 328
307 308 308 302 305 304 311 314 311 315 312 317 318 316 313 311 310 310 311 310 310 311 311 312 309 311 311 313 313 312 313 313 313 313 312 312 313 314 315 318 319 320 322 324 327
306 307 308 304 305 305 311 313 310 310 311 311 312 312 312 311 310 310 311 310 310 309 310 309 309 311 313 313 313 313 313 313 313 313 313 312 312 313 314 315 316 319 321 322 325
301 307 308 304 312 312 312 313 311 311 311 312 313 311 312 310 310 310 311 310 310 309 310 309 310 311 311 311 312 311 312 312 313 314 313 312 312 312 313 314 317 317 320 320 323
309 303 308 304 313 311 312 311 311 311 310 315 312 311 310 310 311 311 311 310 309 309 309 309 309 310 310 310 311 311 312 312 312 312 311 312 311 311 312 314 316 317 319 320 321
310 305 307 305 313 313 311 311 312 312 321 313 311 311 310 310 311 312 311 310 309 309 309 308 309 309 311 314 314 315 315 314 314 312 310 311 310 311 311 313 313 315 319 321 320
310 308 306 309 313 314 311 310 312 316 321 312 311 311 310 311 312 312 311 310 311 310 310 309 311 311 313 314 314 314 314 313 313 311 312 310 310 311 311 313 313 314 316 318 321
310 308 306 308 312 312 310 312 315 320 316 313 312 312 311 311 313 313 311 310 310 310 309 309 309 311 313 313 313 312 312 313 311 311 312 310 310 310 311 313 314 313 314 316 319
311 307 311 305 312 312 310 313 318 318 315 313 311 311 312 313 313 313 312 310 312 309 307 308 309 310 312 311 311 311 313 315 318 312 311 312 312 311 312 312 314 315 315 315 316
309 310 314 311 312 310 311 315 317 315 312 311 311 312 312 313 312 312 311 311 312 312 311 311 312 311 311 311 312 313 313 313 315 315 314 313 312 312 312 314 315 314 313 315 316
310 314 315 315 313 310 312 315 315 311 310 310 311 312 312 311 311 312 312 312 311 312 311 311 313 312 311 311 311 311 312 312 314 314 314 313 313 312 317 315 314 314 313 315 316
312 314 315 314 310 310 314 315 314 312 310 311 311 313 311 312 311 311 311 311 312 312 311 311 313 312 310 311 310 310 313 313 313 314 313 313 313 317 314 314 314 313 313 315 318
312 313 314 309 309 314 314 314 312 312 311 311 312 312 312 311 311 310 310 312 311 311 312 312 312 312 311 310 311 311 313 312 315 314 313 313 313 313 313 312 313 312 313 315 317
309 313 312 310 314 312 312 311 311 313 312 311 312 311 310 310 311 312 312 312 312 311 312 311 311 313 312 310 312 312 311 314 313 314 315 317 315 313 313 313 312 313 314 316 316
310 312 312 311 311 310 310 311 311 312 312 312 311 311 311 311 311 313 311 311 311 311 312 312 313 312 313 312 311 312 312 312 312 314 314 314 315 314 314 313 314 314 314 315 314
311 311 307 310 309 309 310 310 311 312 312 310 311 310 311 311 310 311 311 312 312 313 313 312 315 312 312 313 313 313 313 312 311 313 313 313 313 313 314 313 313 313 313 313 313
306 305 304 304 307 310 312 310 309 310 309 309 310 310 309 309 310 310 311 311 311 313 313 312 312 314 316 313 313 314 312 312 311 311 312 312 312 312 313 311 313 312 313 313 313
304 304 305 304 307 309 310 309 309 309 309 309 309 308 309 309 310 311 311 310 311 313 310 309 312 314 314 313 313 314 313 312 313 313 311 312 313 311 313 313 313 312 313 313 316

GFSSW_850_thetae_042.txt.gz
Theta_e
300 300 300 300 300 300 300 300 300 301 302 302 302 302 302 303 304 306 305 307 309 313 313 311 311 310 311 314 316 317 317 320 328 329 329 327 326 327 328 327 327 328 333 337 338
300 300 300 300 300 300 300 300 301 301 301 302 302 302 302 304 308 310 310 314 313 311 308 305 308 312 311 313 314 313 318 321 321 324 325 325 325 327 328 327 328 328 337 335 338
300 300 300 300 300 300 300 300 301 301 301 302 302 302 303 304 317 317 312 308 308 309 311 309 310 311 311 313 313 314 316 321 322 323 323 324 325 325 324 326 326 327 328 335 338
299 300 301 301 301 300 300 301 301 301 301 302 302 302 304 309 315 311 310 311 312 312 312 313 313 310 310 311 313 311 313 315 318 320 320 321 323 322 323 324 325 326 327 327 335
305 301 300 301 301 301 301 301 301 301 301 302 302 303 305 314 318 311 311 312 312 312 312 312 312 311 308 309 311 311 312 313 314 316 319 321 321 321 322 322 323 325 326 327 328
308 308 307 300 301 302 302 302 302 302 302 303 302 303 306 312 311 310 311 311 310 310 311 312 312 312 311 310 309 310 311 311 312 313 315 316 319 320 321 322 323 324 326 326 327
308 308 308 306 300 302 303 302 303 302 305 306 303 304 306 307 310 310 310 309 309 310 311 311 312 312 312 309 312 311 310 310 311 313 314 316 316 318 318 319 323 325 325 325 325
305 307 308 307 301 302 303 303 303 304 307 307 304 305 306 313 310 310 309 309 310 310 310 311 311 312 312 312 311 309 309 309 310 310 314 315 316 317 317 318 318 319 320 323 325
302 307 307 308 302 303 303 304 310 310 310 307 306 314 315 315 311 310 309 310 310 310 311 311 311 312 311 309 307 307 308 309 309 310 311 313 314 316 317 318 318 318 319 320 322
302 304 307 308 303 304 307 312 311 313 312 315 312 314 314 314 311 310 310 310 310 309 310 311 311 308 307 307 310 308 308 309 309 310 310 309 309 311 313 314 315 316 318 319 320
310 305 306 307 304 304 312 312 310 313 310 310 314 315 316 313 310 310 311 310 310 310 308 310 307 308 308 309 311 311 311 311 311 312 311 310 311 311 311 313 312 313 314 316 318
309 310 303 306 308 308 311 312 311 310 309 311 311 311 311 311 310 310 310 310 309 308 308 306 307 309 309 309 309 310 310 310 311 312 312 311 312 312 311 311 312 313 314 315 316
309 309 306 306 311 312 311 312 311 311 310 310 312 312 312 312 311 310 310 310 309 308 308 307 308 309 309 308 311 311 310 313 312 311 311 311 311 311 312 311 312 313 314 315 317
309 310 308 306 309 311 311 311 311 312 309 314 311 310 310 310 309 310 310 310 309 308 307 307 308 308 308 309 313 312 313 314 314 313 311 311 311 310 310 310 310 311 313 314 314
308 310 309 305 312 313 312 311 310 313 317 315 311 311 310 310 311 311 311 310 308 308 307 307 308 307 308 313 313 312 313 313 313 313 311 311 309 311 309 310 310 310 312 313 314
310 310 308 306 312 312 311 311 312 315 319 311 310 311 309 310 310 311 311 310 310 308 308 307 309 309 312 313 313 312 312 311 310 310 311 311 309 311 309 309 310 310 312 313 313
311 307 310 307 311 309 309 312 315 319 316 312 310 311 310 311 312 312 312 309 308 309 308 307 308 311 313 312 310 309 310 310 310 309 310 310 310 311 309 309 312 314 314 315 315
308 311 307 308 309 309 311 310 316 316 311 311 310 311 311 311 311 312 310 309 310 309 307 307 311 309 311 309 308 308 312 312 315 313 312 312 312 311 310 313 313 313 313 314 315
313 314 313 310 313 310 312 311 314 313 310 310 310 311 312 311 311 310 310 310 311 310 311 311 311 311 311 310 310 311 312 312 314 314 317 313 311 310 315 314 313 313 313 312 313
315 315 314 313 312 311 308 313 314 314 311 311 311 312 313 311 311 309 310 312 311 311 308 311 311 311 311 310 310 309 309 310 311 315 316 312 312 312 314 314 313 311 311 311 312
313 315 314 313 310 311 309 312 313 311 311 310 310 311 311 311 310 309 310 310 312 311 310 311 311 312 310 310 309 307 310 312 312 313 314 313 311 313 315 312 311 310 311 311 312
312 311 314 310 307 308 311 313 310 311 312 310 311 311 311 310 310 310 310 310 311 311 311 311 310 312 311 311 310 309 309 309 308 310 313 311 313 312 311 310 310 310 311 313 314
311 312 311 311 305 306 307 310 310 310 312 311 310 310 309 309 310 311 312 312 311 310 311 310 309 314 312 310 311 312 312 313 311 310 311 315 313 312 312 313 311 311 313 313 314
311 307 310 310 309 308 308 309 310 310 311 309 309 309 310 310 309 310 310 310 310 311 313 311 313 313 314 314 313 313 312 312 313 313 313 313 311 311 312 313 312 311 313 313 315
307 306 304 303 304 304 307 309 310 309 309 308 308 309 309 309 308 308 309 309 310 312 311 312 315 313 313 313 313 313 313 313 313 312 312 311 311 311 310 311 312 312 313 314 315
305 303 304 303 304 305 306 307 309 309 308 308 309 308 307 307 307 308 307 309 309 310 311 312 313 312 312 312 312 313 314 313 313 312 312 311 310 309 310 311 311 312 313 312 313
304 304 304 303 302 304 305 305 306 307 306 308 306 306 307 307 308 309 309 309 308 309 308 309 311 313 312 311 311 313 315 315 314 313 311 310 310 315 315 315 313 312 312 312 312

GFSSW_850_thetae_045.txt.gz
Theta_e
300 300 300 300 300 300 300 300 300 300 301 301 302 302 302 303 304 308 307 306 309 311 312 311 310 311 310 312 316 317 318 322 328 329 328 326 324 325 325 327 326 327 327 331 340
299 300 300 300 300 300 300 300 300 300 301 301 302 302 302 303 308 315 312 310 310 310 306 306 306 311 310 312 314 313 315 319 321 325 324 323 323 323 324 323 324 326 328 327 341
304 300 300 300 301 301 301 300 300 300 301 301 302 302 302 304 314 311 310 311 310 312 312 311 310 311 310 311 312 312 315 319 321 321 321 322 322 321 322 323 324 324 324 325 328
307 307 307 303 300 301 301 301 301 301 301 301 302 302 303 306 315 311 311 312 312 312 312 312 312 310 308 310 312 311 312 313 314 315 317 318 318 318 319 319 321 322 322 324 326
306 307 308 308 304 300 301 302 301 301 302 302 302 302 304 308 316 311 311 311 311 311 311 312 311 310 308 307 309 309 310 311 312 312 312 314 316 318 318 318 319 320 322 323 326
303 306 307 308 308 301 301 302 302 302 302 304 305 303 305 307 311 310 310 310 310 310 310 312 312 312 310 310 309 310 309 310 311 311 312 313 314 316 316 317 318 319 321 323 325
300 303 306 307 308 302 302 303 302 302 303 307 306 303 304 305 311 310 310 309 309 310 310 311 311 311 311 309 310 310 309 308 309 311 312 314 314 315 316 317 317 317 318 319 324
310 304 304 307 307 302 303 303 303 305 305 308 304 305 306 313 311 309 309 309 309 310 310 310 310 311 311 311 310 308 306 307 308 309 311 313 314 315 316 315 316 317 317 318 319
309 310 306 305 307 303 304 308 311 312 312 310 308 314 314 313 311 310 309 310 310 310 309 310 310 311 310 307 307 305 307 308 308 308 308 311 312 312 313 312 313 314 314 314 316
309 309 310 304 305 304 310 310 310 313 311 313 314 313 314 314 313 309 310 310 309 309 310 311 310 307 304 306 309 309 308 308 309 309 309 308 309 309 311 312 312 312 313 313 313
309 309 310 305 306 306 312 311 310 311 310 309 311 313 313 314 311 309 310 310 310 309 307 307 306 307 308 307 309 310 310 310 310 310 309 309 310 310 310 311 311 312 312 313 313
309 309 310 306 308 311 312 312 311 310 309 311 310 310 310 310 311 311 310 310 309 307 307 305 306 307 308 308 308 309 309 310 310 312 311 309 310 310 310 310 311 311 312 312 312
306 308 310 306 310 311 311 311 311 312 309 309 311 311 311 310 311 311 310 310 308 307 307 306 307 307 308 308 311 311 313 312 312 312 311 309 311 310 310 310 311 311 312 312 312
308 310 311 306 310 311 312 311 310 312 308 314 312 311 311 311 309 310 310 310 308 307 306 306 306 308 307 308 311 310 311 313 313 312 311 311 311 311 310 309 309 309 311 312 311
309 311 310 306 311 313 311 311 310 312 314 315 310 310 310 309 310 310 311 309 308 307 306 307 308 307 307 308 312 309 312 312 311 310 310 310 308 310 309 310 309 308 310 312 313
310 308 308 307 312 311 310 311 312 314 318 311 310 311 310 309 309 310 310 310 309 308 307 306 308 307 307 311 311 311 310 308 307 307 309 309 309 309 309 309 308 310 313 313 314
307 311 307 311 311 309 309 313 312 315 313 311 310 310 309 310 311 311 310 308 308 308 307 306 307 310 312 311 308 307 306 308 309 308 310 309 310 309 308 308 311 313 313 313 313
309 306 306 310 311 309 311 310 316 316 310 310 310 310 311 310 310 311 310 309 309 308 307 307 311 309 310 309 308 306 307 308 312 313 311 310 311 310 310 312 313 313 313 312 311
311 313 312 313 311 311 312 311 313 314 313 310 311 311 312 310 310 309 309 310 310 309 310 310 311 310 310 310 308 309 310 308 310 309 310 310 311 309 312 313 312 312 312 311 312
314 314 314 313 311 310 308 313 313 312 311 310 311 311 311 310 310 309 309 310 311 310 308 309 311 310 310 310 309 308 308 311 310 314 313 312 311 311 310 310 312 311 310 311 312
312 314 314 311 311 311 308 311 312 310 311 310 309 309 310 310 310 309 309 309 311 310 309 309 308 311 310 309 309 308 307 310 308 311 312 312 310 307 311 312 311 310 310 311 312
311 310 313 310 308 305 308 311 310 310 311 310 310 310 310 309 309 309 309 309 311 310 310 310 308 310 311 310 310 310 310 309 309 310 309 311 311 313 311 309 309 310 310 311 311
311 312 311 311 303 304 305 309 309 309 310 309 309 308 308 308 309 309 310 310 310 310 310 309 310 313 311 309 310 312 312 312 312 312 312 313 311 310 310 310 310 310 311 311 311
309 305 309 309 306 306 306 308 310 310 309 308 308 308 308 309 308 308 308 309 308 308 312 311 312 313 312 312 312 313 312 313 313 315 312 311 311 310 311 310 309 309 310 311 312
305 303 302 301 302 302 304 307 308 308 308 307 307 308 308 307 307 307 307 307 307 310 310 311 313 312 312 312 312 312 312 312 313 314 315 312 311 310 309 309 309 311 311 311 312
304 303 304 302 303 302 304 306 306 308 307 307 306 307 305 305 306 308 306 306 306 308 309 311 311 312 313 311 310 311 311 311 312 313 313 312 312 310 310 312 313 313 313 312 312
303 303 303 301 301 302 302 304 304 304 306 307 305 304 305 306 307 307 306 307 306 307 306 309 313 314 312 310 310 312 315 315 313 313 314 313 312 311 310 310 309 309 313 314 316

GFSSW_850_thetae_048.txt.gz
Theta_e
301 299 300 300 300 300 300 300 300 300 301 301 301 302 302 303 304 310 308 306 308 310 312 311 310 310 310 311 315 318 318 322 327 327 327 326 324 324 324 324 323 325 325 324 326
307 306 304 302 300 300 300 300 300 300 301 301 301 302 302 303 307 311 309 309 311 310 307 306 306 310 309 311 314 313 313 318 320 324 323 323 323 323 322 321 322 324 324 323 322
306 307 307 307 306 301 300 301 301 300 301 301 301 302 302 303 312 310 311 310 311 312 312 311 310 310 310 311 311 311 313 317 320 319 319 319 319 319 318 319 322 320 320 320 322
301 304 306 307 308 307 300 301 301 301 301 302 302 302 303 304 315 310 311 312 312 312 311 312 311 309 307 309 310 310 311 312 313 313 313 315 315 315 316 317 317 318 318 319 320
304 302 304 306 307 308 302 301 302 302 302 302 303 304 303 305 313 311 311 311 310 310 310 311 311 309 308 308 309 309 309 311 311 311 312 312 312 313 314 315 316 317 319 319 321
309 309 306 304 306 307 302 302 302 302 302 303 307 305 304 305 311 310 310 309 309 309 310 311 311 311 310 309 309 309 309 309 310 311 311 311 312 313 314 315 316 317 318 318 319
309 309 309 307 305 306 303 303 303 303 303 305 308 303 304 304 311 310 310 309 308 309 310 310 311 311 310 308 309 310 308 307 308 309 310 312 311 312 314 315 316 316 317 317 317
309 309 309 309 305 305 303 303 305 306 307 306 307 304 305 310 310 310 309 309 309 310 309 309 309 310 311 310 308 307 304 305 307 308 310 311 311 313 312 313 313 313 314 315 317
309 309 309 310 306 305 306 310 310 312 312 310 308 310 313 313 311 309 309 309 309 309 309 309 309 310 309 307 306 304 307 308 308 308 308 310 310 311 312 312 312 313 312 313 313
308 309 309 310 306 306 310 310 313 312 311 311 314 312 313 314 312 310 309 309 309 309 310 310 309 305 303 305 307 308 308 308 308 308 309 308 307 308 311 311 311 312 312 312 312
305 306 308 310 307 310 311 311 310 309 310 310 309 312 311 314 311 309 309 309 309 308 306 306 305 307 307 306 307 309 309 309 309 309 309 309 309 309 309 310 310 311 312 312 312
305 309 309 309 308 311 311 312 311 310 309 311 310 310 309 309 311 310 310 309 308 306 306 304 305 305 307 307 307 308 309 310 309 310 310 309 309 310 308 309 310 311 311 312 311
308 310 310 306 310 311 310 310 311 311 309 309 311 310 310 309 310 311 309 309 308 307 306 305 306 307 307 307 310 309 310 310 311 311 309 308 307 309 309 309 310 311 311 311 312
309 311 310 305 311 310 311 311 310 310 308 313 311 311 311 311 310 310 310 310 307 306 305 305 306 307 307 307 309 309 309 311 312 309 307 309 308 307 308 309 308 309 310 311 312
309 309 308 306 311 312 311 310 310 312 312 313 310 310 310 309 309 310 310 309 307 306 305 306 307 307 307 306 309 307 311 311 310 308 308 309 308 307 306 307 307 308 310 311 311
308 310 306 311 311 310 308 309 312 311 316 312 310 310 310 310 309 311 310 309 308 306 306 305 307 306 306 309 310 309 309 307 305 305 308 307 307 307 306 306 307 308 309 311 312
306 307 308 312 310 310 310 312 311 313 313 311 309 309 309 310 310 311 309 307 306 308 307 307 306 309 311 310 307 306 304 306 306 306 308 307 309 308 308 309 308 309 311 312 312
308 307 309 311 311 310 311 309 314 315 311 311 309 309 310 310 310 309 309 308 310 308 306 307 309 310 310 309 309 306 305 306 309 309 307 307 309 308 309 309 311 312 312 312 312
312 312 312 312 311 310 311 310 311 313 311 311 309 311 310 310 310 308 308 308 310 309 309 309 310 309 309 309 308 308 308 306 307 307 305 308 308 309 309 309 311 312 312 312 311
314 314 313 311 311 310 307 312 312 311 310 310 309 309 310 309 310 309 308 309 310 309 307 308 310 309 309 309 308 308 307 309 306 312 312 309 309 310 309 310 308 308 309 310 311
312 313 313 310 309 311 307 309 311 310 310 311 308 308 309 310 308 308 309 308 310 310 308 307 307 309 309 309 308 307 306 307 306 309 311 311 309 307 307 307 307 308 311 311 311
311 309 311 311 307 303 307 309 309 309 310 309 309 309 309 309 308 307 308 308 310 310 310 308 306 310 310 309 308 307 308 307 312 311 309 310 311 307 307 308 307 308 310 310 309
309 311 311 311 302 302 304 307 308 308 310 308 309 308 308 308 309 307 309 309 309 308 309 308 308 309 309 308 308 311 311 311 310 311 311 312 311 308 308 308 309 309 309 309 309
306 304 307 307 304 304 304 306 309 309 308 307 307 308 308 308 307 308 308 308 308 307 310 310 307 309 310 310 309 311 311 310 312 313 312 313 311 311 310 309 308 308 308 309 312
303 301 302 299 301 301 302 305 308 308 307 307 306 307 307 306 306 306 306 306 306 307 308 309 312 311 311 311 311 310 310 311 311 311 313 312 312 311 311 310 309 310 311 310 312
302 302 302 301 301 301 302 305 305 306 305 307 306 305 304 304 305 306 305 305 305 307 309 307 312 312 311 310 310 311 311 310 310 311 312 314 313 311 309 310 309 309 308 309 313
300 301 301 300 299 301 300 304 304 302 304 305 304 304 304 304 305 305 305 305 305 306 307 311 313 313 312 310 309 312 310 312 313 313 314 314 310 309 309 309 308 308 307 308 311

GFSSW_850_thetae_051.txt.gz
Theta_e
306 307 306 305 303 301 300 300 300 300 301 301 301 302 302 303 303 310 311 307 307 306 308 310 310 310 311 312 315 320 324 324 325 326 326 326 325 324 324 324 324 324 324 322 325
301 304 306 307 307 306 302 301 301 301 301 301 301 302 302 303 306 309 308 308 312 310 309 306 307 309 310 311 314 318 319 321 323 324 325 325 324 323 323 323 321 322 322 321 319
305 301 303 305 307 307 307 301 301 301 301 301 302 302 302 303 309 310 310 311 311 311 312 309 309 310 311 311 312 314 317 319 320 320 321 322 321 320 320 321 322 319 320 319 318
309 309 307 304 305 307 307 303 301 302 301 302 302 303 303 303 315 310 311 312 311 311 311 311 311 309 311 312 310 313 312 312 316 314 314 318 314 316 317 318 317 317 316 317 319
309 309 309 309 305 306 307 302 302 302 302 302 303 306 303 305 311 311 311 310 310 310 310 311 311 310 311 311 311 312 312 312 312 312 312 313 314 315 314 314 315 316 317 318 319
309 309 309 309 308 305 305 303 302 302 302 302 306 307 304 306 312 311 310 309 309 309 310 311 311 311 311 311 312 311 311 312 311 312 312 313 314 313 315 314 314 315 316 317 317
308 309 309 309 309 306 304 303 303 303 303 303 307 307 303 304 311 310 310 309 308 309 309 310 311 310 310 311 310 310 311 311 311 311 311 312 313 313 313 313 314 316 316 316 316
308 308 309 309 309 306 303 305 306 307 307 306 307 305 304 305 310 309 309 309 308 309 309 309 309 310 311 310 310 311 309 311 312 311 310 312 312 313 311 312 313 313 313 314 313
307 305 307 308 308 305 308 310 309 311 311 310 308 310 313 312 311 310 309 309 309 309 309 309 309 310 310 312 312 311 311 311 312 311 312 312 313 313 311 311 312 312 313 313 313
304 307 309 309 306 309 310 310 312 311 310 310 311 312 313 313 312 310 309 309 308 308 309 309 309 311 311 311 311 310 311 311 312 312 312 312 312 312 311 311 312 312 312 312 313
306 309 310 310 307 311 311 311 310 309 310 310 310 310 311 312 312 310 309 309 309 308 310 308 311 311 310 310 310 311 311 311 311 312 312 312 312 312 311 312 312 312 311 312 312
308 310 310 309 310 311 311 311 310 310 311 310 310 310 310 310 310 309 309 309 309 309 308 309 310 310 309 309 310 311 311 311 312 312 311 310 311 311 311 312 312 313 313 312 312
309 310 310 306 310 310 310 310 310 310 310 310 310 310 309 310 310 310 310 309 310 309 309 309 309 309 308 309 310 311 311 311 310 311 311 311 310 311 311 312 312 312 312 312 311
307 309 306 307 311 310 311 311 310 310 313 313 311 311 310 310 310 309 310 310 309 310 308 309 308 308 309 309 310 310 311 311 311 310 310 311 310 311 311 311 312 311 312 312 312
307 309 305 309 311 311 310 309 309 311 313 314 311 310 310 309 309 309 309 309 310 309 309 310 309 309 309 310 310 310 311 311 311 311 311 311 311 311 311 311 311 312 310 311 311
306 307 309 311 310 311 307 308 311 316 316 311 311 311 312 311 311 311 310 308 308 309 308 309 307 309 309 309 311 311 311 311 310 311 311 311 311 311 311 311 312 312 311 311 312
307 310 311 310 311 310 310 312 316 318 313 312 310 310 311 312 312 311 311 311 310 310 310 309 309 309 311 311 310 311 311 311 310 311 310 311 311 311 312 311 312 312 312 312 313
311 310 310 312 311 310 311 314 317 314 313 312 311 310 311 311 311 311 311 311 311 310 310 311 311 310 312 311 311 311 312 311 310 310 311 311 311 312 311 311 311 313 313 314 314
312 312 311 310 310 310 311 316 315 313 311 312 311 311 312 311 311 311 310 310 310 311 312 312 312 311 310 310 311 311 311 310 312 312 313 312 311 312 312 312 312 312 312 313 314
313 313 313 310 310 310 313 314 314 311 310 311 311 310 311 311 311 311 311 310 312 311 310 311 312 311 311 310 310 311 311 313 314 314 313 312 312 312 312 312 312 312 312 312 312
310 313 312 311 310 310 314 312 312 311 310 312 311 310 310 310 311 311 310 309 311 311 310 311 311 310 311 312 311 310 312 312 312 313 315 314 313 312 312 312 312 312 311 312 312
310 312 311 312 310 305 312 309 308 310 310 311 310 310 311 311 310 310 310 310 310 311 311 312 312 313 312 311 311 311 312 312 314 314 313 313 313 312 312 312 312 312 311 311 311
305 310 310 310 314 310 307 308 308 309 310 310 310 310 310 311 311 311 310 309 309 310 311 312 312 312 310 312 311 312 312 312 313 313 314 314 313 312 312 312 312 312 312 312 311
303 309 304 307 303 305 306 307 310 309 309 308 308 309 309 310 310 311 310 309 308 308 309 311 312 312 311 310 312 312 312 312 313 314 314 314 314 313 313 313 313 313 311 311 312
300 303 302 303 303 304 304 306 308 309 308 307 308 308 307 309 308 308 308 308 308 308 309 311 312 312 311 310 311 312 313 313 313 313 314 314 313 313 313 313 312 310 310 311 310
299 301 300 301 301 303 303 306 307 307 306 308 308 307 306 307 307 308 308 308 308 309 312 312 312 312 311 310 311 312 312 312 313 313 313 313 314 313 312 311 311 310 309 309 309
296 298 301 300 302 303 303 305 305 303 303 304 306 305 305 305 305 305 306 306 307 308 310 311 312 311 311 311 312 314 313 313 313 313 313 314 313 314 313 312 310 309 309 309 309

GFSSW_850_thetae_054.txt.gz
Theta_e
302 301 304 306 307 307 306 302 301 301 301 301 301 301 302 303 303 307 315 312 308 306 305 309 310 311 312 315 318 321 328 328 328 328 327 326 327 326 326 326 326 326 326 326 324
309 308 304 303 305 307 308 307 301 301 301 301 301 301 302 303 304 313 312 308 311 309 311 310 311 311 313 315 317 322 325 326 326 327 327 327 327 326 325 326 326 326 326 325 324
309 309 309 308 305 305 307 308 303 301 302 301 302 302 303 303 314 313 310 310 311 311 313 311 311 312 313 315 316 319 323 324 324 323 324 325 326 325 324 325 325 326 324 323 322
309 309 309 309 309 305 306 307 303 301 302 302 302 303 304 304 317 315 311 311 311 311 313 313 312 312 314 315 316 317 319 320 320 321 320 322 323 322 321 321 320 320 320 319 321
309 309 309 309 310 308 306 306 303 302 302 302 302 305 306 311 311 311 311 310 310 311 312 313 313 312 314 314 314 315 317 316 316 316 317 318 319 319 320 319 316 316 318 319 319
309 308 309 309 309 309 306 304 303 302 302 302 303 307 310 310 309 311 311 310 312 312 312 313 313 313 313 314 314 314 314 315 315 315 315 316 316 316 317 316 316 316 317 317 319
308 307 306 308 309 308 306 303 303 303 303 303 305 308 310 309 311 311 310 313 311 311 311 312 312 312 313 314 313 313 314 314 314 314 315 314 315 317 316 315 315 316 318 318 318
305 304 307 308 309 307 304 306 308 308 307 307 306 308 310 306 310 310 313 312 311 311 311 311 311 312 313 313 313 314 314 314 314 313 313 313 314 316 315 315 316 315 315 317 318
304 307 309 309 309 306 309 310 310 310 311 310 310 312 313 308 312 312 312 310 310 310 310 310 311 313 313 315 315 315 314 315 315 314 315 315 315 316 315 315 315 315 315 315 316
307 309 310 310 307 310 310 310 312 311 310 310 310 315 313 313 313 312 311 310 310 310 311 311 312 315 315 315 315 316 315 314 315 316 315 315 316 316 315 315 315 314 315 315 315
309 310 311 310 308 311 311 311 314 314 314 313 313 313 313 313 311 311 310 310 310 311 312 312 314 315 315 313 313 313 314 314 314 314 314 315 315 316 315 314 315 315 315 315 315
308 310 311 307 311 311 311 313 311 311 315 312 312 312 312 312 312 311 311 311 311 313 311 312 313 313 313 312 312 313 314 314 314 314 313 314 314 315 315 315 314 315 315 315 315
307 310 305 307 311 311 312 311 310 310 315 313 312 312 312 312 312 312 311 311 312 312 312 313 312 311 311 312 312 313 313 313 313 312 313 314 315 315 314 313 313 314 314 315 315
308 309 305 310 312 311 313 311 309 310 317 314 313 312 312 312 313 311 311 311 312 312 312 312 312 311 311 311 312 312 312 311 312 313 314 314 313 315 315 314 314 314 314 314 314
307 307 306 310 311 313 311 310 309 312 319 314 313 311 312 312 311 311 311 311 312 313 312 313 312 312 312 312 312 312 312 312 313 314 314 314 315 315 314 314 314 314 313 313 313
308 309 311 311 311 310 307 308 313 321 319 313 313 313 313 312 312 312 313 311 311 312 313 313 312 312 312 312 312 312 312 313 314 314 314 314 314 314 315 315 314 314 313 313 314
309 310 310 311 313 310 310 314 320 320 315 315 314 313 313 314 314 314 315 315 314 314 315 314 313 312 311 312 313 313 314 315 314 315 314 314 314 314 315 314 315 315 314 314 315
311 311 310 310 311 311 313 317 319 316 316 314 314 313 314 314 315 314 314 315 315 314 314 315 314 313 313 313 313 314 314 314 313 313 314 314 315 317 315 314 313 313 314 314 315
311 312 314 310 310 310 313 317 317 316 314 314 314 314 314 314 313 313 313 313 313 313 315 314 314 313 313 313 313 314 314 313 314 314 316 315 316 316 316 315 315 314 314 314 314
310 314 315 311 310 311 316 315 316 314 312 313 315 313 314 314 313 313 313 312 312 313 313 313 315 314 313 313 313 314 314 314 315 316 316 316 316 316 316 315 315 315 314 314 314
310 314 314 311 311 313 317 315 315 313 312 313 314 314 314 313 313 313 313 312 312 312 312 313 313 313 313 313 313 313 313 313 315 317 318 317 316 316 315 315 315 315 314 314 313
311 314 312 311 314 313 314 313 309 312 311 312 313 313 314 313 313 313 313 313 311 311 312 312 313 314 313 313 313 313 314 314 317 316 316 315 316 316 316 315 314 314 314 314 314
307 312 310 306 315 311 311 311 310 310 311 312 313 313 313 313 313 312 312 311 311 312 312 313 314 315 314 314 314 314 315 315 315 316 318 319 317 315 315 315 315 315 315 314 314
305 310 307 308 307 308 308 309 310 310 311 311 312 311 312 313 312 312 311 311 310 311 310 311 314 313 314 314 315 314 314 314 315 318 317 316 315 315 316 316 316 315 315 314 313
303 308 305 307 306 307 308 308 308 309 310 310 311 311 311 312 311 311 310 310 309 309 310 312 314 312 312 312 312 312 312 312 313 316 317 316 316 315 316 316 315 314 314 313 313
304 303 304 304 305 307 305 308 308 308 308 307 308 308 309 310 310 310 309 309 309 309 311 312 315 312 313 311 311 312 311 312 313 314 316 316 316 316 314 314 314 314 313 313 312
298 301 303 304 305 306 306 306 306 305 305 305 307 307 306 306 305 306 306 307 308 309 310 311 312 314 313 311 312 313 314 315 315 315 315 316 315 315 315 315 314 312 311 311 310

GFSSW_850_thetae_057.txt.gz
Theta_e
310 310 310 306 304 306 307 308 305 301 301 301 301 302 302 303 303 309 315 316 315 309 307 311 312 313 314 317 320 322 326 328 329 330 330 328 329 328 327 328 328 327 327 328 327
309 310 310 310 309 305 306 307 308 303 301 301 301 302 303 303 304 314 315 312 309 309 312 312 312 313 315 317 320 323 325 325 326 328 330 330 329 328 328 328 328 327 327 327 327
309 310 310 310 310 310 306 306 308 304 301 302 302 303 303 304 315 318 315 309 310 310 315 313 313 314 315 317 319 322 324 324 325 325 326 327 328 328 329 328 327 328 328 327 326
309 309 309 310 310 310 308 306 307 303 302 302 302 303 304 305 322 318 311 311 311 315 314 315 314 314 316 317 318 322 322 323 323 323 325 326 326 327 328 328 326 325 324 324 324
308 308 308 309 310 310 310 306 305 303 302 302 302 303 307 315 313 316 311 311 311 314 315 316 315 315 316 317 318 320 322 321 322 322 322 323 324 324 324 325 323 321 320 321 323
308 305 304 306 308 310 309 306 304 303 303 303 302 306 312 315 313 315 315 314 314 313 314 314 316 315 316 317 317 318 318 319 320 320 321 321 321 320 321 322 321 321 319 321 323
306 304 306 309 309 310 307 304 303 303 303 303 304 308 315 314 311 315 316 314 313 313 313 314 314 314 316 317 316 316 317 318 318 318 320 319 320 320 320 320 320 320 320 320 321
304 307 309 309 310 308 305 308 309 309 308 307 306 313 316 310 311 313 314 314 313 312 312 313 312 313 315 316 316 316 317 317 318 318 317 317 318 319 318 319 319 318 319 319 321
307 309 310 310 310 306 310 310 311 310 311 311 313 317 318 311 311 313 313 313 312 312 312 312 312 314 316 316 317 317 317 317 318 317 317 317 317 319 318 318 318 318 319 319 319
309 309 311 311 307 310 310 311 310 312 311 311 316 316 316 312 313 313 313 312 311 312 312 312 314 316 316 317 318 318 319 318 318 319 317 317 318 318 318 318 318 318 318 318 318
308 310 311 308 310 311 312 316 318 319 317 318 316 316 316 314 314 313 312 311 312 312 315 315 316 316 317 318 317 317 317 318 318 318 317 318 318 319 319 318 318 317 318 317 318
307 310 307 309 311 312 315 315 313 314 316 315 313 314 314 314 313 313 312 312 313 315 316 315 315 316 317 316 315 315 316 316 317 317 317 317 318 318 318 318 318 318 317 317 318
308 309 305 311 311 313 315 313 313 314 318 315 313 313 314 314 314 314 313 313 315 315 315 315 316 314 314 315 314 315 316 316 317 317 316 316 317 318 318 317 317 316 316 317 317
307 307 309 311 314 314 316 313 313 314 320 318 315 314 314 313 314 313 313 313 314 314 315 315 315 313 313 314 314 315 316 315 314 315 316 317 318 318 318 317 317 316 316 316 317
307 307 309 309 316 316 314 312 313 315 326 316 315 314 314 314 314 313 313 313 314 315 315 315 315 314 314 314 315 315 315 314 314 315 316 317 317 318 319 318 317 317 316 316 316
309 310 311 315 315 314 313 313 316 323 324 317 315 315 315 314 314 314 313 313 314 315 315 315 314 315 315 315 315 314 314 315 315 316 317 318 317 318 319 318 317 317 316 315 315
311 309 309 309 315 314 313 316 323 323 319 318 316 316 316 316 317 316 317 317 317 318 318 317 316 315 314 314 315 315 315 316 317 318 318 318 317 318 318 317 317 317 316 316 316
310 311 314 313 314 314 314 319 323 320 318 318 316 316 316 316 317 317 317 317 317 317 317 317 317 318 317 314 314 315 317 317 317 319 317 318 317 319 318 318 316 316 316 316 317
302 313 316 318 313 313 315 321 321 320 316 316 316 316 317 317 316 316 317 317 316 316 318 318 317 317 316 316 315 315 315 316 316 316 317 317 318 317 318 318 317 317 316 316 316
305 315 316 317 313 314 319 319 318 317 315 315 316 317 317 317 317 317 316 315 314 314 315 315 316 316 317 315 315 316 316 317 317 315 315 315 317 318 319 319 318 317 317 316 316
315 315 318 314 313 315 320 319 317 315 314 315 316 317 317 317 317 316 315 315 314 314 314 314 314 315 315 317 317 316 315 315 315 319 321 319 317 319 319 318 318 317 316 316 316
314 316 316 312 315 318 316 315 312 312 312 314 314 315 316 316 316 315 315 315 314 313 313 313 316 315 315 315 315 315 315 317 316 315 315 317 317 317 317 318 318 316 316 316 316
311 312 314 309 318 315 313 312 312 312 313 313 315 315 315 315 315 314 314 314 313 313 313 315 317 319 316 314 315 315 314 314 316 320 320 321 321 318 318 317 316 316 316 316 316
310 314 312 310 311 312 312 312 312 311 311 312 313 313 314 314 314 313 315 313 313 312 311 312 313 314 315 314 315 316 317 317 319 322 321 319 317 317 317 317 317 316 316 316 316
310 312 310 310 311 310 310 311 311 312 312 311 312 313 312 313 312 311 311 311 312 312 311 312 313 313 314 313 313 314 314 314 316 317 318 317 316 316 317 317 317 316 316 317 316
306 307 307 308 309 310 309 312 311 311 309 309 309 309 310 311 310 310 310 310 311 311 312 312 314 314 314 313 313 314 312 312 313 313 313 313 314 314 315 315 316 316 316 316 316
304 305 307 310 311 309 310 310 308 307 308 307 308 309 309 309 308 308 308 308 310 310 311 312 314 315 316 313 315 315 313 313 313 313 314 316 316 316 316 317 317 316 316 315 314

GFSSW_850_thetae_060.txt.gz
Theta_e
308 309 310 310 310 310 305 306 308 308 303 301 301 301 302 303 304 304 310 317 317 316 311 307 313 315 316 317 319 320 324 326 325 327 330 329 330 328 327 327 327 328 328 328 328
309 310 310 309 310 310 310 306 306 308 306 302 302 301 302 303 304 307 313 315 315 311 309 312 313 314 315 316 318 322 323 323 323 325 326 328 329 330 329 328 328 329 328 327 328
310 309 309 309 309 310 310 309 306 308 306 302 302 302 303 303 312 316 316 315 310 308 315 317 315 315 315 317 319 321 323 323 323 323 324 325 327 329 329 330 329 329 328 328 327
309 309 308 308 308 308 310 310 306 307 304 302 302 302 303 305 322 318 316 311 310 310 318 316 316 315 316 318 318 320 321 323 323 323 323 325 325 327 328 329 329 329 328 327 325
309 307 305 305 307 308 309 310 306 305 303 302 303 303 304 316 315 318 313 311 311 314 316 317 317 317 316 317 318 319 320 321 322 323 323 323 324 325 326 328 328 327 326 326 324
308 305 306 308 309 309 310 307 305 303 303 303 303 303 307 316 317 316 314 314 315 315 315 315 316 317 317 317 318 318 320 321 321 322 322 322 323 323 324 325 324 324 324 322 321
306 307 310 310 310 310 308 305 305 305 303 303 303 305 314 316 311 315 315 316 315 314 314 315 315 316 316 317 317 317 318 319 319 319 321 321 322 322 322 321 321 321 323 322 321
307 309 310 311 311 309 306 309 310 309 309 307 305 307 316 315 315 314 316 316 315 314 313 314 314 314 315 316 317 317 318 317 318 319 319 320 321 321 321 321 321 321 321 321 321
308 309 311 311 309 308 310 310 310 310 310 311 311 313 319 313 311 313 314 315 315 314 314 313 313 313 315 316 316 317 317 317 317 318 319 319 318 319 318 318 320 320 321 320 320
308 310 311 310 308 310 311 311 312 311 311 309 316 318 318 317 311 313 314 315 313 313 313 313 314 315 316 316 318 317 318 318 318 319 318 318 318 319 318 319 319 319 319 319 320
307 310 308 308 310 312 313 319 319 320 320 320 319 318 317 316 315 315 313 313 313 313 314 315 316 316 317 318 317 317 318 318 320 320 319 319 319 319 319 319 319 319 319 319 319
307 310 305 310 311 314 317 319 315 314 316 317 318 315 315 316 315 314 314 314 314 315 316 316 316 317 317 317 318 318 317 317 318 319 319 319 318 319 319 320 319 320 320 319 319
307 308 307 310 312 315 316 315 314 315 317 319 316 315 315 314 315 315 314 314 314 316 316 316 317 317 316 316 316 317 316 316 316 317 318 318 318 318 318 318 319 319 319 319 319
309 307 309 313 316 316 318 316 314 316 319 322 316 315 315 315 316 315 315 315 315 315 316 316 317 316 315 315 315 315 316 316 316 317 317 317 319 319 319 320 320 319 319 318 318
310 309 308 310 310 318 315 314 315 317 328 319 317 316 315 315 316 315 314 314 315 315 316 316 316 316 315 315 315 315 316 316 315 315 316 316 316 317 319 319 319 319 317 317 318
303 310 310 316 315 318 315 315 318 324 329 320 316 316 315 316 316 316 315 314 314 315 316 316 316 317 316 316 315 316 315 315 316 316 317 316 317 318 319 319 320 319 317 317 316
303 307 310 310 316 316 316 316 322 327 322 320 318 317 317 317 317 317 317 317 317 317 318 318 318 317 317 316 316 315 316 315 317 318 318 318 318 319 320 319 320 319 317 317 317
305 303 309 312 315 315 316 319 323 322 322 320 318 317 317 317 318 317 318 318 318 318 318 320 322 320 319 320 319 316 316 317 319 321 320 319 322 320 320 319 318 317 317 317 317
306 313 316 318 318 314 316 321 322 321 320 317 316 316 317 318 318 318 318 317 318 319 318 320 320 318 318 318 319 318 315 315 318 319 320 318 319 321 319 319 318 317 317 317 317
310 317 318 320 317 315 318 320 320 320 318 317 317 317 317 318 318 318 318 318 317 317 317 316 315 315 315 317 318 317 317 316 318 320 318 316 317 317 321 320 319 318 317 317 317
312 319 320 318 315 315 318 319 319 317 315 315 316 316 316 317 317 317 316 317 317 317 316 316 315 316 314 315 317 318 317 316 318 320 323 320 319 320 320 320 319 318 317 317 317
311 318 319 314 312 315 321 317 314 314 314 314 315 315 316 317 317 316 315 316 315 316 316 315 315 318 314 315 315 316 317 318 320 320 317 318 318 319 320 319 319 319 317 316 317
310 314 317 312 317 316 315 314 314 314 313 314 314 315 315 315 315 315 315 315 315 315 315 315 315 316 315 315 316 317 317 316 318 322 321 323 321 319 318 319 317 317 316 317 317
312 314 314 313 313 314 314 313 313 313 313 313 314 313 315 315 314 313 312 314 314 313 312 312 313 313 314 312 315 315 315 315 316 321 322 320 318 318 318 317 317 316 316 317 318
313 314 313 313 313 314 313 312 312 314 313 312 312 312 312 312 312 312 312 312 312 313 314 314 315 313 312 312 312 314 315 315 316 316 320 317 316 316 317 318 317 317 317 317 317
309 309 310 311 313 313 313 313 313 312 311 310 310 311 311 312 312 311 311 311 311 312 314 314 317 315 314 313 314 314 313 314 314 314 314 317 319 316 316 316 317 317 317 317 317
306 306 306 309 313 314 313 310 310 309 309 309 310 310 310 311 310 309 310 310 310 311 312 312 314 315 315 313 313 316 314 315 315 315 313 314 316 316 316 317 317 317 316 316 315

GFSSW_850_thetae_063.txt.gz
Theta_e
310 310 310 310 310 310 311 310 306 306 308 307 302 302 302 302 303 303 304 307 316 317 316 312 309 314 315 315 316 318 317 318 320 324 324 325 325 326 326 329 326 328 328 328 328
310 309 309 309 310 310 310 311 308 305 308 307 302 302 302 302 303 305 307 311 313 315 314 310 309 312 315 315 316 315 316 318 319 320 321 322 322 324 326 325 327 327 328 328 327
309 309 308 307 307 309 310 311 310 306 307 305 302 302 302 303 308 317 316 315 314 314 308 313 316 316 314 314 315 316 315 318 320 321 321 321 322 323 324 325 327 327 328 328 327
307 308 306 305 305 307 309 310 310 306 306 303 302 302 302 303 319 318 317 316 313 309 312 317 317 315 313 311 315 313 317 318 320 321 322 321 322 322 323 328 329 329 328 328 327
307 306 306 309 309 309 310 311 308 306 304 303 302 302 303 313 312 315 316 312 311 311 316 317 317 317 311 312 314 313 315 317 319 321 321 322 322 322 322 325 329 329 328 328 327
306 307 309 310 311 310 311 309 305 304 303 303 303 303 305 314 314 317 315 313 311 315 314 315 315 316 316 315 313 316 315 316 317 318 320 320 320 321 321 322 325 326 326 327 327
308 308 309 311 311 311 308 305 306 306 304 303 303 303 307 308 316 316 315 315 315 314 315 315 314 315 315 313 316 316 314 314 315 317 318 319 318 319 321 321 322 321 321 325 323
308 308 310 312 311 307 307 308 309 309 309 307 305 304 308 316 314 314 315 316 316 315 315 314 314 314 314 314 314 313 314 313 313 315 317 317 316 318 320 321 321 321 321 320 321
307 309 309 310 307 309 309 310 310 310 310 310 309 310 316 318 314 314 314 316 315 315 314 314 314 313 313 311 311 312 312 313 314 315 315 315 316 317 320 320 318 320 320 320 320
307 310 306 308 309 311 311 312 317 313 316 310 314 316 319 319 314 311 313 314 315 314 313 314 313 310 309 310 311 313 313 314 315 316 315 315 315 316 319 318 317 318 319 319 320
308 309 306 309 311 314 316 318 318 320 317 315 320 319 319 316 314 313 314 314 314 314 311 313 311 311 311 313 314 314 315 315 316 317 316 314 315 317 317 318 317 318 318 319 319
309 308 307 310 311 314 316 317 314 314 315 315 317 318 319 316 316 315 315 314 314 312 312 312 312 314 315 316 316 315 316 315 316 316 315 315 317 317 317 316 318 318 319 318 319
304 308 308 312 314 315 316 318 314 315 315 315 317 318 317 315 315 315 314 314 313 312 313 313 314 316 316 315 316 314 315 315 314 315 315 315 315 317 316 316 317 317 317 319 319
305 308 308 308 311 314 316 316 314 315 314 320 318 315 315 315 315 315 315 314 314 313 313 313 314 315 315 316 315 313 315 315 315 315 313 315 314 314 316 315 316 317 317 317 319
306 304 310 309 315 316 318 316 315 318 325 320 317 315 315 315 316 316 315 315 314 314 313 313 314 315 315 316 315 314 315 314 315 313 312 313 312 313 314 315 315 316 317 317 317
308 306 304 310 314 317 316 315 316 321 328 320 316 316 314 315 315 315 315 314 314 314 313 313 315 314 315 316 316 316 315 314 313 312 312 313 313 314 314 315 316 316 317 317 317
311 309 306 307 310 316 315 316 318 324 324 320 318 318 316 316 316 316 315 314 313 313 313 315 316 316 318 318 314 314 313 313 314 313 313 313 316 314 314 316 316 316 316 316 316
312 311 313 307 311 316 315 316 321 321 322 321 318 316 315 315 315 316 318 317 316 317 320 319 321 319 318 319 320 319 318 315 316 318 317 317 321 319 319 319 317 316 316 316 316
312 314 317 319 317 316 315 318 320 321 320 318 317 317 316 316 316 316 317 318 317 317 318 319 320 317 318 317 318 319 318 317 316 314 317 317 317 317 317 319 316 316 316 316 317
311 316 320 319 319 315 316 318 317 318 318 315 315 316 315 315 315 315 315 317 318 317 316 317 318 316 315 316 317 317 317 319 319 320 319 317 318 316 321 319 318 317 316 316 317
311 315 320 319 317 315 315 316 318 318 314 314 314 313 314 315 315 315 315 315 316 316 315 315 316 317 315 315 314 315 317 318 317 319 318 319 317 318 319 318 317 316 317 317 317
307 314 320 315 314 314 316 316 315 313 313 314 314 315 315 315 315 314 314 315 315 315 315 314 315 317 316 314 314 314 316 316 320 320 317 315 315 317 317 317 318 316 317 317 316
305 311 316 315 315 313 314 314 313 313 313 313 313 313 314 313 313 314 315 313 315 314 315 315 315 312 312 311 314 314 313 316 315 317 319 319 316 318 318 318 317 317 317 316 316
305 316 313 312 313 313 313 314 313 312 313 313 314 311 311 312 310 311 312 313 314 314 314 314 312 312 312 311 314 314 314 314 314 317 317 319 318 317 317 317 318 317 317 316 315
309 313 309 312 311 311 313 314 313 313 311 310 310 310 310 311 311 311 311 311 311 314 313 312 313 313 313 313 312 312 313 314 314 315 316 314 315 314 315 315 316 317 316 316 316
309 308 305 305 310 311 313 315 312 311 309 309 310 311 310 310 310 310 310 310 311 311 313 312 310 314 314 312 312 313 313 314 314 314 314 315 315 314 314 315 316 316 316 317 316
306 305 304 306 309 312 313 311 311 310 309 308 308 309 309 310 309 309 309 309 309 309 309 309 310 310 312 312 312 311 316 316 317 316 316 316 314 315 315 315 314 314 314 314 314

GFSSW_850_thetae_066.txt.gz
Theta_e
309 309 309 309 309 310 310 311 311 308 306 308 307 302 302 302 302 303 304 306 308 311 315 314 312 312 314 313 314 317 313 316 317 318 319 322 322 323 323 324 324 328 328 329 329
307 308 308 307 305 305 307 310 311 310 305 307 306 302 302 302 303 305 310 306 312 315 315 314 309 308 310 314 315 312 311 315 316 317 318 319 320 321 321 321 324 327 328 328 327
306 307 306 306 307 307 307 308 310 310 306 306 304 302 302 302 304 318 317 314 314 314 314 309 310 311 316 313 314 313 313 314 316 318 319 319 319 320 320 319 322 327 326 327 326
307 307 307 309 310 310 310 310 310 309 306 304 303 302 302 303 312 318 317 312 314 311 308 312 316 317 311 311 313 310 313 314 315 317 318 318 320 320 321 322 324 327 326 326 326
308 308 309 310 310 311 310 311 310 306 304 303 303 302 302 307 306 311 316 315 310 310 309 314 317 317 312 311 312 310 311 314 315 316 317 318 318 319 320 322 322 324 327 328 326
308 308 310 311 311 311 311 308 305 304 303 303 303 302 303 311 309 317 316 314 311 311 313 315 315 314 314 312 312 313 313 313 315 315 315 315 317 318 320 321 322 328 327 327 328
307 308 309 311 311 309 306 306 308 308 306 303 303 303 304 306 315 317 315 315 312 314 315 314 314 313 313 311 313 313 312 311 313 314 315 317 315 317 319 320 321 321 322 324 325
307 309 308 309 307 308 308 309 310 309 309 308 306 305 307 312 313 313 316 315 316 315 315 315 313 313 313 312 312 311 311 311 311 314 314 315 314 315 318 318 320 320 321 321 321
308 308 307 308 309 310 310 311 314 311 310 309 308 315 314 317 316 314 314 315 316 316 315 314 313 313 312 310 307 308 310 311 311 312 313 313 314 315 318 317 319 319 319 320 320
304 308 307 308 310 313 315 316 317 318 316 313 309 314 318 318 316 313 313 313 314 314 314 313 313 310 306 306 308 309 310 311 312 313 313 312 312 314 316 317 317 319 319 317 318
305 308 308 309 310 314 316 316 315 317 314 314 315 316 319 317 315 313 313 314 314 314 311 312 309 309 309 309 311 311 311 312 313 313 314 312 312 313 314 315 315 316 316 318 319
306 305 309 310 312 313 315 316 316 316 313 314 315 315 315 317 318 314 314 314 313 311 311 310 309 311 311 312 313 313 313 313 313 314 314 312 312 313 313 314 315 316 317 318 317
309 307 305 309 310 314 315 316 315 316 314 314 315 315 316 317 318 315 315 315 312 312 311 310 311 313 313 313 314 314 313 313 313 314 313 313 312 314 315 315 316 316 317 317 317
310 310 308 307 310 314 316 316 315 316 313 317 318 316 316 317 314 314 315 314 312 312 311 310 311 312 313 313 314 312 312 314 314 313 312 314 311 311 313 313 312 314 315 316 316
310 310 310 306 309 314 316 316 315 316 323 322 316 315 314 314 315 315 315 314 313 312 311 312 312 312 312 313 314 314 313 314 314 312 311 312 310 311 311 312 312 312 314 315 316
312 311 312 309 306 315 316 315 316 319 326 322 315 315 313 314 315 315 315 315 314 312 311 311 313 312 313 317 315 315 314 313 312 309 311 312 311 313 311 311 312 313 314 315 316
314 312 313 313 305 314 315 316 315 321 323 322 321 316 313 313 314 314 314 313 312 311 312 316 315 316 317 318 316 316 312 310 311 310 313 315 316 313 313 315 316 316 316 316 315
314 312 315 310 310 314 315 314 319 319 321 319 316 316 316 314 314 315 314 313 313 316 317 320 319 319 318 319 320 319 319 320 315 313 314 315 316 315 316 317 317 314 315 316 316
313 312 317 316 315 315 315 315 317 320 319 316 315 315 315 314 314 314 314 316 317 317 319 320 321 317 317 316 318 319 318 318 319 318 315 313 314 314 315 317 316 316 314 314 317
312 311 320 318 317 315 312 315 316 316 316 316 314 314 313 312 314 313 314 316 317 315 315 316 317 316 316 315 317 317 316 317 317 319 320 315 315 315 318 317 317 316 316 315 315
311 309 320 319 319 315 312 313 316 315 313 314 313 313 313 314 313 313 314 314 315 315 313 313 314 315 314 315 315 315 316 315 315 317 319 318 314 315 317 316 316 317 318 316 316
310 306 318 318 314 311 311 315 313 313 312 313 313 313 313 313 313 313 313 313 314 314 314 313 312 313 314 312 313 315 316 314 316 316 318 316 314 314 316 317 316 316 317 316 317
311 306 315 316 313 311 310 313 313 312 312 313 312 312 310 310 311 313 312 313 314 313 314 313 310 309 310 309 312 313 313 315 313 314 315 319 318 315 315 315 316 316 317 316 317
309 311 311 311 311 309 311 313 314 314 312 309 310 309 309 309 309 309 310 311 312 313 315 313 309 310 310 310 308 312 313 314 313 312 314 317 316 315 315 314 315 316 316 316 316
309 310 305 307 307 308 310 312 311 311 309 308 309 310 309 309 308 309 310 309 310 316 315 309 311 311 312 313 313 312 312 312 314 313 314 313 313 313 315 314 313 315 316 316 315
308 305 304 304 306 310 312 313 312 311 308 309 308 309 307 308 309 309 308 308 308 308 308 308 307 313 313 311 311 312 311 312 312 314 313 314 314 314 314 313 312 310 310 310 312
306 306 306 304 307 310 312 312 312 310 307 307 307 307 308 308 309 309 308 308 307 307 307 306 307 307 310 311 312 311 316 316 315 315 315 316 314 312 310 310 310 310 310 309 310

GFSSW_850_thetae_069.txt.gz
Theta_e
306 307 308 307 306 306 306 308 310 310 309 305 308 308 303 302 302 303 304 306 307 306 310 310 312 312 312 313 313 315 312 312 316 317 319 320 319 321 321 321 321 322 327 330 328
306 306 306 307 308 309 308 307 309 310 310 306 307 307 302 302 303 306 316 309 309 312 314 315 313 311 309 312 313 312 310 313 315 316 316 317 318 319 319 319 319 320 326 329 326
307 307 308 309 309 310 310 309 309 310 309 306 306 305 302 302 304 318 314 312 309 313 314 313 309 310 311 311 313 311 313 313 314 316 317 317 317 318 318 317 319 320 323 328 326
307 307 309 310 310 311 310 310 310 311 307 306 304 303 302 302 307 317 315 312 313 313 311 308 310 316 311 310 313 311 312 312 314 315 315 315 317 317 318 319 320 321 322 326 327
307 308 309 310 311 311 311 311 310 306 305 304 303 302 302 304 305 311 316 314 310 309 308 315 317 316 313 311 310 309 309 312 313 313 314 315 315 316 317 318 319 320 321 325 326
307 308 309 309 310 310 308 306 305 305 305 303 303 302 303 307 309 315 315 314 311 310 312 313 315 315 313 311 310 311 312 312 313 313 313 313 314 315 316 317 318 320 322 326 326
305 307 309 307 307 308 308 308 309 309 308 306 303 303 303 306 311 317 315 314 312 311 312 315 314 313 312 310 312 312 311 309 311 313 312 314 313 314 316 318 319 321 322 326 326
303 307 308 307 309 310 310 310 312 310 309 309 307 306 308 310 313 316 315 315 315 315 315 315 315 312 312 312 310 309 309 310 310 312 313 314 313 313 315 318 319 320 321 321 321
306 304 308 307 309 312 314 313 313 315 312 310 307 311 315 315 314 312 314 314 315 315 316 315 315 312 311 308 306 306 308 309 310 311 312 312 312 313 316 314 316 317 319 320 320
308 307 306 308 309 312 314 315 316 316 316 314 310 313 316 318 317 316 314 314 314 314 313 314 312 308 305 306 308 308 308 309 310 311 312 311 311 311 314 314 314 314 316 318 319
309 310 307 308 312 311 315 316 316 314 314 315 314 314 314 316 317 315 313 312 313 313 311 310 308 307 308 307 309 309 309 309 310 311 312 311 311 310 312 313 312 314 314 317 318
313 310 310 308 309 314 315 316 315 315 315 316 315 314 314 314 316 316 312 312 313 311 310 308 308 309 309 310 310 310 310 311 311 311 311 311 311 310 311 312 313 314 313 316 317
313 313 311 311 308 309 314 316 315 315 314 314 314 314 315 315 316 316 314 314 312 311 310 309 310 311 311 311 311 311 311 311 311 312 311 311 310 311 313 313 315 315 314 315 317
313 313 312 312 309 311 314 316 315 315 314 318 316 317 316 316 314 315 315 314 312 311 310 309 310 310 310 311 312 311 311 311 312 312 310 311 312 310 311 311 311 312 314 314 314
315 313 313 312 311 308 315 315 315 316 322 321 316 316 315 316 315 315 315 314 311 311 310 311 312 312 311 311 314 312 313 312 312 311 310 310 309 309 310 311 310 310 314 314 315
314 314 313 312 312 307 314 315 315 318 324 323 314 313 313 313 314 314 314 314 314 311 310 310 311 312 312 315 316 316 313 311 308 307 310 310 309 312 311 310 311 310 313 315 316
314 313 312 314 307 313 315 315 315 319 320 320 317 314 312 313 314 314 313 312 312 311 312 315 315 315 316 317 316 317 314 313 312 311 314 310 311 313 312 312 312 313 315 314 315
314 313 312 312 307 314 315 314 318 316 319 317 315 314 314 313 313 314 313 313 314 313 315 317 318 317 317 318 317 317 319 322 322 314 314 312 314 313 314 314 315 316 315 314 313
314 313 314 312 313 314 314 315 313 318 317 315 314 314 314 312 313 313 313 315 316 315 316 318 319 317 317 316 317 318 319 317 321 319 321 315 312 313 313 314 313 315 316 315 314
312 311 319 317 316 316 312 312 315 315 315 313 314 313 312 312 313 313 313 315 316 314 313 314 315 315 315 314 314 316 314 316 317 321 322 315 313 313 313 313 314 315 313 316 316
312 310 318 319 318 316 313 312 314 314 312 312 313 313 313 313 312 313 313 313 314 314 312 313 312 312 312 313 313 314 316 316 316 317 319 317 313 311 315 314 313 314 315 316 317
311 307 314 318 315 309 311 312 313 313 312 312 312 312 313 312 311 312 312 312 314 313 314 311 310 312 312 310 312 312 314 314 312 318 318 318 314 314 313 313 313 313 316 317 317
310 309 312 313 311 308 310 312 313 313 313 311 310 310 309 310 310 312 310 312 314 313 313 311 308 308 308 307 309 312 312 313 312 311 313 315 311 315 316 313 313 314 315 316 316
310 305 309 309 308 308 310 312 313 312 310 308 309 309 309 309 308 309 309 310 310 312 314 311 307 308 309 309 307 309 311 312 311 313 312 315 313 312 313 315 314 312 310 312 315
310 307 303 303 307 306 312 312 314 312 310 308 308 309 309 308 308 307 309 308 309 316 313 308 310 308 309 310 311 311 311 311 311 311 312 312 311 312 313 312 312 310 309 309 309
307 305 305 305 304 308 312 313 314 312 310 309 307 307 307 306 307 307 308 307 307 307 309 306 306 311 312 311 311 311 311 311 314 312 312 312 314 313 311 310 310 309 309 308 308
307 306 305 307 307 309 310 313 313 310 309 308 307 307 308 307 308 308 308 307 306 306 305 305 306 306 309 309 310 311 316 316 314 314 314 315 313 311 309 309 308 308 308 308 307

GFSSW_850_thetae_072.txt.gz
Theta_e
307 307 307 307 308 309 309 308 307 308 310 310 306 307 307 304 302 302 304 305 305 305 312 312 312 312 312 313 314 314 310 311 315 316 319 319 317 319 320 320 320 320 321 321 327
306 307 308 309 309 310 310 310 309 309 310 310 306 306 305 302 303 305 315 313 305 306 310 309 313 313 311 312 312 311 309 312 312 315 316 316 317 317 318 318 318 319 322 321 327
306 307 309 309 310 311 310 310 310 310 310 308 306 305 303 302 304 317 314 308 307 311 314 314 309 309 308 310 312 311 311 312 313 315 316 315 315 316 317 316 317 319 320 320 325
306 307 309 307 310 311 311 311 311 311 308 306 304 303 302 302 310 316 313 311 311 312 313 312 309 315 311 310 312 311 310 313 314 315 315 314 316 315 316 317 318 318 318 319 321
303 306 308 306 307 308 308 307 306 305 304 304 303 303 302 304 305 311 314 313 312 312 311 310 314 314 313 310 310 309 309 312 312 312 312 312 312 313 314 315 316 316 317 318 319
305 304 307 306 307 308 308 307 308 308 307 306 303 303 303 304 307 310 313 313 310 309 310 314 315 314 313 311 310 311 310 311 312 312 312 311 312 312 314 315 316 316 317 318 318
308 307 306 306 308 310 310 309 310 310 309 308 306 304 304 307 308 316 315 314 311 310 312 313 314 313 311 310 311 311 310 308 310 312 311 311 312 311 314 316 316 317 318 319 323
309 309 306 307 308 310 313 313 313 313 315 309 308 306 308 309 308 316 315 314 313 313 314 314 314 314 311 311 309 309 307 309 309 310 312 312 313 312 315 315 316 318 319 319 323
312 310 308 305 308 309 312 313 314 315 314 314 309 308 313 314 313 314 314 315 315 315 315 314 314 312 310 306 305 304 307 308 308 309 310 310 310 311 314 313 314 315 317 317 317
313 313 311 310 307 311 311 314 314 314 316 315 312 311 314 318 317 317 313 313 313 314 313 313 311 306 303 305 307 307 308 308 309 309 310 309 309 309 313 312 312 313 314 315 316
314 313 313 311 311 308 313 313 315 314 314 315 314 313 314 315 316 314 314 313 313 313 311 309 307 307 307 307 308 308 308 308 309 310 310 309 309 309 311 312 311 312 312 314 316
313 315 313 313 312 310 311 313 315 314 313 315 315 315 315 314 314 315 313 312 312 310 309 308 308 307 308 308 309 309 309 309 309 310 308 309 310 309 309 310 312 313 314 315 314
311 314 315 313 312 311 308 315 315 314 314 315 314 314 314 314 314 315 315 311 311 310 309 308 309 310 310 310 310 309 309 310 310 311 310 310 310 310 310 310 313 314 314 314 315
309 310 314 314 312 311 310 315 315 315 313 316 315 316 315 316 315 316 316 313 311 311 308 309 309 310 310 310 310 310 310 310 311 310 311 310 312 310 309 309 310 313 314 314 314
307 310 314 313 311 312 313 315 315 315 320 319 316 316 316 316 314 314 316 314 311 310 309 310 311 311 311 311 315 314 314 314 314 312 309 310 308 311 309 309 309 309 313 314 314
306 310 314 313 311 307 312 315 315 318 321 321 313 312 313 313 313 314 314 315 313 310 309 309 311 311 310 314 315 315 315 313 307 306 310 312 309 312 312 309 309 309 311 313 316
306 312 314 311 309 311 315 315 315 320 317 317 315 314 312 312 313 313 313 311 311 311 310 312 313 315 315 316 315 314 313 314 315 310 316 310 308 311 311 310 309 310 313 314 315
310 313 312 314 306 311 314 314 317 314 318 316 314 313 313 313 313 313 313 313 314 311 312 314 313 316 316 315 315 316 315 314 315 316 315 315 314 313 312 312 313 314 314 315 315
311 313 316 311 311 315 313 316 312 317 315 314 314 314 313 312 312 312 312 313 315 314 313 317 318 316 316 316 315 315 316 314 317 318 319 315 314 313 312 313 313 313 313 315 315
312 314 319 315 316 315 310 309 314 315 314 312 312 313 313 312 313 312 312 314 315 313 311 313 314 313 314 312 312 315 313 317 318 319 316 316 314 315 314 314 313 312 313 314 314
313 312 313 317 318 315 310 313 314 313 313 312 312 312 312 313 312 312 312 312 314 313 311 312 310 311 311 311 311 312 314 314 316 317 318 318 316 314 316 314 313 312 313 313 315
311 308 310 317 314 306 308 310 313 314 313 313 311 312 312 312 311 312 312 311 313 313 313 310 309 311 310 309 309 311 311 311 308 306 310 307 312 314 315 314 311 312 311 311 310
310 309 310 312 313 308 308 311 313 314 313 311 310 309 308 309 309 311 310 312 313 312 312 311 308 308 308 305 307 312 312 311 310 308 311 309 310 313 313 313 313 310 309 310 311
310 306 308 308 307 307 310 312 313 313 313 310 308 308 308 309 308 308 309 309 309 311 313 311 306 308 308 307 306 308 309 310 309 304 311 311 311 310 311 312 310 310 309 309 308
309 305 302 302 304 305 307 312 312 314 312 310 309 308 307 307 308 308 307 308 308 316 310 307 309 308 308 308 308 309 310 310 309 310 311 311 310 309 312 311 309 309 308 307 307
307 306 306 305 305 304 310 311 312 314 311 311 311 309 307 306 307 306 307 307 306 308 311 305 307 309 311 310 309 310 310 309 310 313 314 313 312 311 311 310 308 307 307 306 306
306 306 306 306 308 308 310 312 312 309 310 310 310 308 308 309 308 307 306 306 306 305 304 305 306 305 308 308 309 309 311 314 313 312 313 313 311 308 307 306 306 306 306 306 306

GFSSW_850_thetae_075.txt.gz
Theta_e
306 307 310 309 310 310 310 310 310 309 308 309 310 306 307 307 304 302 304 305 305 304 311 311 311 310 311 314 314 314 319 320 320 320 320 318 319 319 319 319 320 320 321 321 322
305 306 309 307 309 310 310 310 310 310 309 310 309 306 306 305 303 306 315 314 306 306 311 310 313 311 311 312 313 316 318 319 317 318 319 318 318 318 318 319 319 319 320 320 320
304 305 307 306 307 309 310 311 310 310 310 309 306 305 304 303 307 316 313 311 307 305 309 310 312 310 310 311 312 313 316 315 315 316 316 316 316 316 317 318 318 318 319 319 319
307 306 307 306 307 307 306 306 307 306 305 304 303 303 302 302 314 315 313 308 310 312 314 311 309 312 312 312 311 314 312 314 315 315 315 316 316 316 316 317 317 317 317 318 318
309 308 305 306 308 309 308 307 308 308 307 306 303 303 302 304 305 312 313 310 312 311 313 310 313 314 314 312 311 313 312 312 313 312 312 313 313 314 314 314 315 315 316 316 317
311 309 306 307 308 309 310 309 310 311 309 308 307 303 303 307 305 307 312 312 311 311 309 313 316 314 313 313 313 312 311 312 312 313 312 313 314 314 315 315 315 316 316 316 318
312 312 310 308 307 309 312 313 313 313 313 312 308 307 305 307 307 314 312 313 310 309 313 313 314 313 311 313 311 311 313 313 313 313 314 313 315 314 314 315 315 316 317 317 317
313 313 313 312 310 308 310 313 312 313 313 314 310 308 308 309 307 315 314 313 311 310 311 313 314 314 312 310 311 312 312 314 313 312 313 313 315 316 314 314 315 316 316 317 318
311 314 314 313 312 311 309 312 313 314 314 314 313 311 312 313 313 312 315 314 313 313 314 314 314 311 310 313 312 311 312 312 313 312 313 313 314 314 314 315 314 315 315 316 316
309 312 313 315 313 312 310 312 314 315 314 315 313 312 314 317 315 316 314 314 314 314 311 312 311 313 311 313 312 312 312 312 313 314 313 314 314 315 314 314 315 315 315 315 315
309 309 310 313 315 313 311 310 315 314 314 314 314 313 313 314 315 316 315 312 313 313 315 310 314 315 314 313 312 312 312 313 314 314 313 314 315 315 315 315 315 316 315 314 315
308 308 307 310 314 313 311 309 315 315 314 315 315 314 314 314 314 315 313 313 313 314 312 313 314 314 312 311 311 312 313 314 314 314 313 315 316 316 315 315 315 316 316 315 315
305 306 306 310 314 311 309 310 315 314 315 314 314 314 314 314 315 314 312 311 313 313 313 314 313 311 312 312 313 313 313 314 314 315 316 315 316 316 315 314 314 315 315 315 315
306 305 306 312 314 311 311 312 315 314 316 317 316 315 314 314 315 315 315 312 313 314 312 313 313 312 312 313 313 314 313 314 316 317 317 316 318 317 316 316 316 315 315 316 315
304 305 308 311 312 310 312 314 315 315 320 320 316 315 315 316 314 315 315 313 314 314 313 314 313 312 313 313 313 315 316 318 318 318 317 316 317 316 315 315 315 316 315 315 315
310 310 311 313 310 308 310 314 315 318 318 319 314 315 316 315 314 313 314 314 313 314 312 314 311 312 313 314 316 317 318 317 314 315 317 317 317 316 317 317 316 316 314 314 314
310 312 313 311 309 309 314 315 316 317 317 317 315 314 314 313 314 314 314 315 316 315 316 315 314 314 315 315 317 317 317 317 316 316 316 316 317 316 316 315 316 316 315 315 316
311 312 313 312 309 311 314 316 316 315 317 315 314 315 315 314 314 314 314 315 314 313 314 315 316 316 317 316 315 316 316 316 316 313 313 313 315 314 316 316 316 315 315 316 316
312 317 315 310 312 315 314 317 314 317 315 313 313 314 317 315 313 314 314 315 316 315 315 319 318 317 316 317 316 317 316 317 316 315 317 314 315 315 317 318 316 316 316 316 316
313 314 314 312 316 316 313 311 315 314 313 313 313 314 314 314 316 314 314 315 315 315 313 316 316 314 315 314 315 316 316 317 318 317 314 313 314 316 318 317 316 315 315 314 314
312 312 310 316 317 314 315 314 314 314 314 313 313 313 313 313 313 314 313 313 315 315 314 316 315 313 314 313 312 315 317 317 316 316 316 314 312 317 317 314 315 314 314 313 312
310 312 310 316 317 308 312 311 312 314 315 315 314 312 313 313 313 314 313 313 314 314 315 313 316 315 313 311 311 313 313 315 317 315 314 315 313 312 313 316 314 314 313 312 312
309 309 310 313 317 312 311 312 313 314 314 313 314 310 310 311 312 311 312 312 313 314 316 315 315 312 310 311 312 314 314 315 315 314 314 314 311 314 315 313 311 313 313 312 311
309 311 308 307 306 309 309 312 314 312 313 313 312 309 309 310 310 312 312 311 309 311 313 313 313 312 311 310 311 312 311 313 313 315 313 313 312 312 312 313 312 313 313 311 310
307 306 305 308 309 308 306 310 312 313 312 312 314 312 310 309 309 309 310 309 309 315 312 313 313 312 312 311 311 312 311 311 312 312 314 313 313 313 315 314 314 312 311 310 309
307 307 306 306 307 308 309 311 312 312 311 312 312 312 310 310 309 310 310 310 309 311 314 311 315 312 311 310 310 311 311 311 312 312 312 313 314 314 312 311 311 311 310 309 309
306 306 305 306 307 307 310 309 309 307 309 310 311 310 311 310 310 310 309 308 308 310 311 311 312 311 311 310 311 313 313 313 315 315 314 314 313 313 312 310 309 308 307 307 307

GFSSW_850_thetae_078.txt.gz
Theta_e
305 306 308 306 308 310 310 311 310 310 310 310 311 309 306 307 307 305 306 306 306 304 310 313 312 312 314 316 317 318 321 321 321 322 322 321 322 322 322 322 322 323 324 324 324
309 306 307 306 307 308 310 311 311 311 310 311 311 306 306 306 304 307 313 312 309 304 311 312 313 312 314 316 316 319 320 320 320 321 321 320 321 320 321 322 322 322 322 323 323
309 307 306 307 308 308 307 306 307 308 308 306 306 305 305 304 310 314 313 311 311 306 312 311 314 313 315 315 317 317 319 320 319 318 319 319 319 319 320 321 321 321 321 322 322
311 310 307 307 308 309 309 308 307 307 306 305 304 304 304 303 316 313 312 308 307 308 311 314 314 314 316 317 316 317 317 318 318 317 317 318 317 318 318 318 318 318 319 319 320
312 313 312 310 307 308 310 310 311 312 310 308 307 303 303 312 310 313 312 307 311 313 313 313 314 315 317 317 316 317 317 316 316 316 316 316 316 317 317 316 316 316 317 318 319
312 313 313 313 312 310 308 312 313 313 314 314 310 307 307 312 307 309 313 308 312 313 314 313 314 315 316 316 317 316 316 316 315 316 316 316 317 316 317 317 317 317 318 318 319
311 310 312 314 314 313 311 309 312 312 313 314 314 309 311 311 307 308 312 315 314 312 312 316 315 315 315 316 315 315 316 317 316 317 317 317 318 318 317 317 317 318 318 319 319
313 309 311 311 313 314 313 309 310 312 314 314 314 311 314 309 307 314 315 314 312 312 314 315 315 315 315 314 315 316 316 317 318 316 316 316 316 319 317 317 317 317 318 318 319
308 308 309 309 310 313 314 312 309 312 314 314 314 313 317 313 312 313 316 314 312 312 313 314 315 316 314 316 316 316 316 316 316 316 316 316 316 317 316 316 317 317 318 318 318
306 307 307 307 307 311 315 312 309 313 315 314 314 316 315 317 317 317 315 315 314 315 315 315 316 317 316 316 316 316 315 315 315 316 317 317 317 318 317 317 317 317 317 318 318
305 304 306 308 306 311 315 309 316 318 316 317 316 316 315 316 315 317 315 315 315 315 317 315 317 317 317 316 316 315 315 316 317 317 317 318 318 318 318 317 318 317 317 318 318
305 306 305 307 307 314 311 311 315 316 317 317 316 316 316 315 317 315 316 314 315 317 316 317 316 317 316 316 315 315 316 317 317 317 317 318 318 319 319 319 318 318 318 317 317
305 306 308 309 312 313 311 311 314 315 318 317 316 317 317 316 317 317 315 315 316 317 317 317 317 315 315 315 315 316 317 317 317 318 318 319 320 320 319 318 318 317 317 317 317
310 310 310 312 313 313 312 310 314 314 319 320 319 317 316 316 317 316 314 314 316 316 317 317 317 315 315 315 316 317 317 316 317 319 320 320 321 321 320 320 320 318 318 318 317
311 310 311 312 313 312 312 314 314 315 324 322 318 316 315 317 317 317 316 315 316 317 317 318 316 316 317 317 316 317 317 318 319 320 321 320 320 320 320 319 319 320 318 318 317
310 312 313 314 309 309 314 313 315 321 320 320 317 318 318 317 316 316 317 316 316 317 317 317 316 316 317 316 317 318 318 319 320 320 321 320 319 319 318 318 318 317 316 317 317
310 313 312 310 311 310 313 316 321 319 320 320 318 317 316 316 316 317 317 318 318 318 319 319 318 318 316 317 318 319 320 321 320 320 320 318 316 317 317 318 318 319 318 317 318
312 316 312 310 311 312 314 319 321 316 319 317 317 318 319 317 317 316 316 317 317 317 318 319 320 318 318 318 319 319 319 320 321 320 318 315 314 316 317 318 318 318 318 318 318
312 315 312 308 314 315 317 321 319 319 317 316 317 319 321 320 317 316 317 318 317 318 318 319 320 318 318 318 318 319 319 318 317 316 317 316 316 316 318 320 319 318 317 317 316
312 315 313 314 316 316 319 315 317 316 315 315 317 316 319 318 318 317 317 317 317 317 317 317 319 317 317 317 316 315 317 317 318 318 315 314 314 314 317 318 317 317 316 315 315
313 317 312 317 317 319 322 319 316 315 316 316 316 316 317 316 316 316 316 315 316 316 316 317 317 316 315 315 316 317 317 317 317 319 318 316 314 315 315 315 315 316 314 313 314
313 318 311 317 321 318 319 315 313 316 316 316 317 316 315 316 316 316 316 315 314 314 316 317 316 317 315 315 314 313 314 315 320 316 318 318 317 315 315 315 316 315 313 314 314
313 314 312 315 321 319 316 315 315 316 316 316 316 316 315 313 316 317 316 313 313 314 315 317 316 317 314 314 314 314 314 314 315 316 319 319 316 315 314 314 314 316 315 314 314
312 316 313 312 312 314 315 316 316 314 314 315 316 314 314 314 314 314 314 313 312 311 313 313 314 315 315 314 313 313 313 313 315 320 318 316 316 315 315 315 316 315 314 314 314
310 312 309 315 313 312 312 313 314 314 314 314 315 316 314 314 314 313 313 313 311 311 313 314 314 314 313 313 313 313 313 313 313 314 316 315 315 315 315 316 315 314 313 313 312
311 310 310 310 310 310 311 312 313 311 311 313 315 313 313 315 314 314 312 313 313 312 314 315 314 314 314 312 312 312 312 313 314 314 315 315 315 315 314 313 313 312 311 310 310
308 308 308 309 309 309 310 310 310 308 309 310 313 311 311 311 311 311 311 312 313 313 313 315 314 314 315 313 314 316 316 316 315 315 315 316 316 314 314 313 311 309 309 309 309

GFSSW_850_thetae_081.txt.gz
Theta_e
309 306 306 307 308 308 308 310 311 311 311 310 311 311 309 307 307 307 313 312 311 306 306 315 313 312 315 316 318 319 321 322 324 325 328 328 327 326 326 327 326 326 326 328 326
312 311 308 307 308 309 309 307 307 309 310 311 311 307 306 306 305 311 312 311 309 305 309 315 314 314 315 317 318 321 321 322 322 323 323 325 324 323 323 327 326 326 326 325 325
313 313 312 311 308 308 310 308 308 307 306 305 305 305 305 305 315 318 315 312 312 309 311 314 316 315 316 317 319 320 321 322 322 322 322 322 322 322 322 323 325 327 326 325 324
311 312 313 313 313 311 308 311 310 312 310 309 307 304 304 306 319 319 314 309 309 306 313 312 316 315 318 319 318 320 320 320 321 321 320 321 319 320 320 321 320 321 322 322 322
312 311 310 311 313 314 312 309 312 313 313 314 313 308 305 316 314 312 314 309 307 312 314 315 317 317 318 319 319 320 320 319 319 320 319 318 319 319 319 319 319 319 319 319 320
312 312 310 310 311 311 314 313 310 312 313 314 313 313 312 316 311 315 316 311 316 315 315 315 316 317 318 319 320 319 319 319 318 319 319 319 319 318 318 318 319 318 319 319 319
310 309 308 309 310 309 310 314 313 309 312 314 313 313 315 316 311 315 315 314 315 314 315 315 317 317 318 320 319 319 319 319 319 319 319 319 320 320 318 319 319 319 319 320 320
305 305 306 308 308 309 308 313 314 310 310 314 314 314 318 314 312 313 316 316 316 314 315 317 316 317 317 318 318 319 319 319 321 320 319 318 319 321 319 319 318 318 319 319 320
302 304 305 306 307 310 308 313 314 310 311 314 315 316 320 315 312 312 316 317 315 314 315 316 316 317 318 318 318 319 319 320 320 320 319 318 319 320 319 319 319 319 319 319 319
305 305 306 307 308 309 308 314 312 309 314 315 316 318 319 317 316 315 316 317 314 315 316 316 317 319 318 318 318 319 319 318 318 319 319 318 319 319 319 319 319 319 319 319 319
307 306 308 309 310 309 311 315 320 321 319 320 320 319 317 318 317 316 316 317 315 316 319 318 319 320 319 319 318 318 319 319 319 319 319 319 320 320 320 319 320 320 319 319 319
311 310 311 311 311 312 313 316 316 317 318 320 319 317 317 318 318 318 316 317 318 319 319 320 319 319 319 319 319 318 318 319 319 320 319 320 320 321 322 321 321 321 320 320 320
310 311 310 312 312 314 315 315 315 317 320 320 319 319 318 317 318 318 317 316 318 319 320 320 321 318 317 318 318 319 319 319 320 320 320 320 321 322 322 322 321 320 320 320 319
311 310 312 313 316 317 316 315 314 317 323 322 320 318 318 317 318 317 316 318 318 318 319 320 319 318 318 317 318 319 319 319 319 319 321 322 323 323 323 323 322 321 321 320 320
311 311 312 314 314 316 314 315 315 318 330 322 320 317 317 318 318 317 317 316 318 318 319 319 319 318 318 319 319 319 319 320 321 321 322 323 323 323 323 322 322 322 320 320 319
310 313 312 313 310 314 314 315 318 326 327 322 320 320 318 319 318 318 318 316 317 318 319 319 319 318 319 319 319 319 319 320 321 322 323 323 324 323 322 321 320 320 320 319 318
310 315 313 313 315 313 315 318 326 324 321 322 320 319 320 320 319 318 318 319 319 319 319 319 320 320 319 319 320 320 322 325 325 325 324 323 321 321 320 319 320 321 319 319 320
310 316 312 312 314 314 317 323 326 320 321 321 320 320 321 320 319 319 318 319 319 319 320 320 322 322 320 320 321 321 323 324 325 324 323 322 320 319 319 319 319 319 319 318 318
311 318 316 314 316 317 320 325 324 322 320 319 319 319 321 321 321 321 320 320 319 320 320 321 323 320 320 320 320 320 322 321 322 321 320 319 318 319 319 321 321 319 317 318 317
311 318 317 315 318 320 323 322 321 319 319 319 320 320 320 323 321 320 321 320 320 319 319 320 322 320 320 319 319 319 318 319 320 322 322 318 317 316 318 318 317 318 316 316 315
316 320 316 317 319 321 325 323 320 318 317 319 320 320 320 320 319 320 320 319 318 318 317 318 320 321 318 318 319 320 320 318 319 320 322 320 317 318 317 317 317 317 315 316 316
317 322 316 317 322 322 321 320 315 318 318 318 319 319 320 319 318 320 319 319 316 316 317 319 320 320 320 319 317 317 317 316 319 320 320 320 320 318 318 317 316 316 315 316 316
316 317 316 316 323 323 320 319 318 318 318 317 318 318 319 319 318 318 319 318 316 316 318 319 320 320 320 319 317 317 315 316 316 318 319 322 319 318 317 317 316 316 316 316 315
315 319 316 316 316 318 319 319 319 316 316 316 317 317 318 317 317 317 318 317 315 314 312 313 317 318 319 319 317 316 315 315 316 322 318 318 317 318 317 317 317 317 316 316 316
314 317 314 319 318 316 316 317 317 317 316 316 317 317 318 319 318 318 317 317 315 314 313 314 317 316 316 316 315 315 314 314 315 315 317 316 316 316 317 317 317 315 315 314 313
312 313 313 314 314 315 313 316 316 315 314 316 317 316 316 316 316 318 317 317 316 315 315 315 319 316 316 315 315 314 314 314 314 314 315 317 318 317 316 315 314 313 311 311 311
312 311 312 312 314 314 315 313 313 312 312 312 313 314 315 314 313 313 314 314 315 317 316 316 318 318 317 315 316 316 317 318 317 316 316 317 317 316 315 314 311 310 310 310 310

GFSSW_850_thetae_084.txt.gz
Theta_e
313 313 313 311 308 308 309 309 307 307 310 311 311 312 311 307 307 307 311 310 313 312 307 307 316 314 312 314 317 318 321 324 325 327 328 329 331 331 330 328 329 328 327 327 327
311 311 312 313 313 311 309 310 309 309 307 306 305 305 305 306 306 307 311 312 312 310 306 311 317 314 313 315 317 320 321 320 322 324 326 327 328 328 327 326 328 329 329 326 327
312 313 311 310 312 313 313 310 311 311 312 310 308 305 304 305 315 319 315 313 312 312 307 313 316 316 315 316 317 319 321 321 321 321 322 324 324 324 324 325 326 329 329 328 328
312 312 313 312 309 311 312 313 312 311 313 314 314 310 306 305 322 321 314 313 308 310 309 315 316 317 317 317 318 319 320 321 322 322 322 323 323 323 322 323 323 323 323 324 323
311 311 311 309 308 309 310 310 314 312 312 313 313 313 310 318 318 318 313 313 308 307 311 316 316 318 317 318 318 319 320 320 320 321 322 321 322 321 320 320 320 320 320 320 321
305 306 306 305 307 308 309 310 311 314 311 313 313 313 314 319 314 315 316 313 317 315 314 316 318 318 318 319 320 320 320 320 320 320 320 320 320 320 319 319 319 319 319 319 319
302 302 303 304 305 307 308 311 310 314 312 310 313 313 316 317 315 314 317 317 318 316 317 317 317 317 318 320 320 320 320 321 320 320 320 320 320 320 319 319 319 320 320 320 320
303 305 306 307 307 308 310 311 310 314 312 310 313 313 318 318 317 317 317 316 317 317 316 315 317 318 318 319 320 320 320 320 321 320 320 320 320 321 321 320 319 320 319 320 320
308 308 309 309 310 310 310 310 311 314 310 311 315 318 320 318 315 313 315 317 317 316 315 317 317 318 318 319 320 319 319 319 320 321 321 320 320 320 321 320 320 319 319 319 319
313 312 310 311 311 311 312 311 314 310 315 314 318 320 320 319 317 313 315 317 317 316 316 317 317 318 320 320 317 319 319 320 320 321 321 319 319 320 319 319 320 320 319 319 319
313 312 311 310 310 311 312 314 321 321 320 321 321 319 319 319 318 317 316 318 317 316 318 318 319 319 319 319 319 319 319 320 320 320 320 319 320 320 321 320 320 320 320 321 319
314 312 311 311 312 312 312 315 318 317 319 321 321 319 319 319 319 318 316 317 318 318 319 320 320 320 320 320 320 320 319 320 320 320 320 320 320 321 321 322 321 322 322 321 321
313 312 310 313 314 316 315 318 317 316 320 321 321 321 319 318 319 320 317 317 319 319 320 320 321 321 319 319 319 319 320 320 319 320 321 321 321 321 321 322 322 322 322 321 321
312 312 312 313 319 319 319 317 316 318 321 323 320 319 320 319 319 319 318 318 317 318 319 320 321 320 320 318 318 319 320 319 320 320 320 321 322 323 323 323 323 323 322 322 322
311 310 313 312 312 319 316 316 317 319 334 324 321 319 319 318 319 319 318 317 319 319 318 319 320 319 319 319 320 319 320 320 320 321 322 322 323 324 324 324 324 324 322 321 320
309 310 314 317 318 314 315 316 318 326 332 324 321 320 319 318 320 318 318 317 317 318 318 319 320 320 319 320 320 320 320 320 321 322 323 323 324 324 324 322 322 322 321 320 320
309 311 315 311 319 316 316 319 327 330 323 324 322 321 320 320 320 319 320 320 319 319 320 319 320 319 319 320 320 321 321 322 324 327 327 325 325 326 322 321 321 321 320 319 319
308 315 313 312 317 318 319 323 330 325 323 322 321 322 322 322 321 321 321 321 321 320 321 322 323 322 322 323 321 322 323 325 328 327 325 323 324 322 321 321 320 320 320 319 319
309 318 320 318 317 319 322 326 327 324 321 321 321 322 320 323 322 322 322 322 321 321 322 324 322 323 322 322 321 321 322 322 323 323 324 322 321 321 320 322 322 321 320 318 318
311 317 322 318 317 321 324 326 324 321 320 321 322 322 322 324 325 323 323 322 321 321 320 322 324 322 322 322 320 320 321 321 321 325 324 322 320 319 319 319 318 318 317 316 316
316 322 319 319 319 321 326 324 323 320 318 320 321 322 321 321 322 322 322 321 320 320 320 321 320 321 321 321 320 320 321 320 321 322 323 321 320 321 319 319 318 317 316 316 317
316 323 319 318 321 324 325 322 318 318 318 319 319 320 320 321 321 321 320 321 320 318 320 319 322 323 321 320 320 320 319 320 324 323 324 326 323 320 320 318 318 317 318 317 318
316 318 319 317 321 323 323 321 319 319 319 319 318 319 320 320 320 321 319 320 319 319 319 321 322 324 322 320 319 319 318 317 317 320 319 322 319 318 319 318 318 318 317 318 317
315 319 319 317 317 319 320 319 319 319 318 318 318 318 319 320 319 319 319 319 319 316 314 315 318 320 322 321 320 321 319 318 317 321 317 317 317 317 318 320 319 317 316 315 314
316 318 317 319 320 319 318 318 318 319 318 316 318 319 319 319 319 320 320 319 319 317 316 316 318 318 318 318 317 317 317 316 316 315 316 316 316 316 319 319 317 315 313 312 312
315 314 314 314 315 317 315 318 317 317 315 317 317 316 316 318 317 317 317 318 319 318 316 316 318 319 319 317 316 316 316 315 315 314 315 315 317 317 316 315 314 313 312 312 311
313 313 313 314 316 317 317 316 315 315 314 313 314 314 314 315 314 314 314 315 316 318 319 319 320 320 320 318 317 318 318 318 319 319 317 316 316 316 316 315 313 312 311 310 309

GFSSW_850_thetae_087.txt.gz
Theta_e
312 312 311 311 311 313 313 311 310 310 310 307 305 306 306 306 306 306 309 310 311 311 309 306 308 313 313 310 313 315 314 315 317 321 323 324 328 330 331 331 330 329 328 327 326
313 313 313 313 312 310 311 313 312 310 312 313 311 307 305 305 306 308 311 313 310 311 312 308 310 316 313 312 312 313 313 315 316 318 320 321 324 329 330 330 328 328 329 329 328
311 311 312 312 311 310 309 310 311 313 311 313 314 314 310 305 309 320 316 312 312 312 312 308 311 314 314 313 313 314 314 315 318 319 319 319 322 328 329 328 328 328 327 328 327
306 307 307 307 306 306 308 310 310 311 313 311 313 314 313 310 321 321 316 313 311 311 311 309 314 315 315 311 314 313 315 316 317 319 319 319 322 322 324 326 326 324 324 325 325
302 303 303 303 304 305 306 308 309 311 312 313 311 313 313 315 314 316 316 313 310 308 309 314 316 316 313 313 315 313 315 317 318 319 320 321 320 320 322 322 321 320 320 321 325
303 304 306 307 307 308 308 309 309 312 310 314 310 312 313 317 317 316 315 313 314 309 310 314 315 316 317 315 313 316 316 317 318 319 319 319 319 320 320 320 320 319 319 319 320
308 309 309 310 310 310 311 311 311 312 311 314 309 311 314 313 317 319 317 315 318 316 315 316 316 316 317 316 319 319 317 317 317 318 318 319 317 317 319 319 319 318 319 319 319
311 312 312 311 311 311 312 312 312 312 312 313 309 313 316 313 317 316 317 317 316 317 316 316 316 317 318 318 318 317 317 316 316 317 318 318 316 318 320 319 319 318 318 320 320
313 313 313 312 311 311 311 311 312 312 313 310 311 316 320 319 318 316 317 317 316 317 317 315 317 317 317 315 315 316 315 316 316 317 317 316 316 318 319 320 318 318 318 319 319
314 313 313 312 311 311 312 312 312 313 316 311 318 318 320 319 318 316 313 315 317 317 315 316 316 314 313 314 315 314 316 315 317 318 318 316 316 317 320 320 319 319 319 319 319
313 313 312 311 311 312 313 313 320 320 319 320 317 318 320 319 317 315 314 316 318 317 315 316 314 314 314 316 317 318 317 317 318 319 318 316 317 317 318 319 318 319 319 319 319
311 312 312 311 312 314 313 313 318 318 317 319 320 321 321 320 319 318 316 317 318 317 315 316 316 317 318 318 319 319 318 317 318 319 318 318 319 319 318 318 320 320 320 320 320
310 311 310 312 316 319 319 317 316 317 317 319 320 321 320 319 318 319 316 317 318 317 318 317 319 320 320 318 319 317 318 317 318 318 318 318 318 318 319 320 321 321 321 321 321
309 309 309 313 317 317 318 316 317 318 318 323 320 321 322 319 318 318 317 317 317 318 318 318 319 320 320 319 318 316 317 319 319 318 317 318 317 318 319 319 319 320 320 320 320
309 308 309 312 315 314 316 316 316 319 331 322 320 319 319 319 319 318 319 318 318 317 317 318 318 319 319 319 319 318 319 319 319 317 318 319 318 318 318 320 321 319 320 321 321
308 308 309 313 316 316 316 316 317 323 333 324 320 318 319 319 319 319 319 318 317 317 316 317 318 319 319 319 319 320 319 318 318 317 318 319 319 320 321 321 321 319 320 319 320
307 308 310 314 317 317 318 318 323 330 326 324 321 320 318 318 319 319 318 317 316 316 317 319 319 320 321 318 320 320 319 317 318 320 322 325 327 324 322 321 321 318 319 319 319
307 309 318 312 314 319 319 321 328 328 324 322 321 321 321 321 321 321 320 318 318 319 318 320 321 321 321 323 323 322 322 326 331 325 324 323 325 324 321 320 320 320 320 319 319
307 312 318 318 316 318 320 326 327 326 321 320 320 320 321 323 324 322 322 322 321 320 321 323 324 322 322 322 322 321 320 320 321 321 322 321 321 320 321 320 320 320 320 319 318
308 316 319 322 317 318 321 325 325 323 320 319 321 322 323 323 325 324 323 322 321 320 318 321 322 322 322 321 322 320 319 320 320 323 323 321 320 318 317 317 316 315 315 316 316
310 319 321 319 319 320 322 325 324 320 318 318 320 320 320 321 321 321 323 322 320 320 320 318 320 321 319 321 322 319 319 319 320 321 320 320 318 318 318 317 317 315 316 317 317
313 320 319 319 321 322 325 325 322 320 318 319 319 319 320 320 321 320 321 321 321 320 319 320 319 321 321 319 320 320 320 320 324 324 322 319 319 317 316 316 315 315 315 314 313
311 316 319 317 318 320 322 323 323 319 319 318 318 318 318 319 320 320 320 320 320 319 320 319 319 321 320 320 320 320 320 320 319 318 317 314 314 315 314 315 315 314 313 312 312
311 319 320 317 318 319 319 319 319 319 318 318 317 318 318 319 319 320 320 320 319 318 317 316 317 319 320 322 320 321 320 319 317 316 317 315 314 313 315 314 313 312 312 311 311
313 318 315 315 317 317 317 317 317 319 317 316 318 318 317 318 317 319 319 317 319 318 316 313 315 316 316 317 317 318 318 317 317 315 315 313 313 315 314 312 312 311 311 310 310
313 314 314 313 314 317 316 318 318 317 315 316 316 315 314 316 317 316 315 316 317 318 317 316 314 316 318 318 318 317 317 316 316 315 313 314 315 313 313 312 311 310 309 309 308
312 312 312 313 314 315 317 316 315 315 314 314 313 313 314 314 313 313 313 314 314 315 318 317 317 318 318 318 318 317 318 319 319 317 316 316 314 312 311 310 309 309 309 307 307

GFSSW_850_thetae_090.txt.gz
Theta_e
311 312 312 313 313 313 310 310 310 312 311 312 313 311 308 306 305 306 309 310 310 309 308 309 307 310 312 310 311 312 310 310 312 314 316 320 319 322 323 331 331 328 327 326 332
306 307 308 308 309 309 309 308 309 310 311 311 312 314 314 311 307 308 312 312 309 310 309 308 307 313 313 311 310 310 307 310 311 313 314 317 317 319 319 325 330 331 328 327 327
302 303 303 303 304 304 305 306 308 309 311 311 311 312 313 313 309 318 315 312 310 310 311 310 309 310 313 312 311 310 311 311 313 315 316 315 317 318 318 326 331 331 329 327 325
302 303 304 305 306 307 307 306 307 309 311 311 313 311 312 313 310 320 315 313 313 310 310 310 310 309 312 310 313 310 312 313 314 315 315 315 318 320 323 322 330 329 326 322 321
305 306 308 309 310 310 310 311 310 310 310 312 312 311 311 313 313 314 317 314 313 309 309 309 309 312 312 311 312 309 311 313 315 315 315 316 316 318 320 325 329 329 327 326 321
311 311 312 312 312 312 311 312 312 311 311 312 312 311 310 316 314 317 315 314 312 309 308 309 314 315 315 313 311 314 313 314 314 315 315 316 317 318 320 320 323 325 321 321 321
313 313 313 313 313 312 312 311 311 311 312 311 312 309 310 312 315 317 316 314 315 311 309 313 315 313 315 315 317 317 313 313 314 314 314 317 317 316 319 319 319 319 320 320 319
313 313 313 313 313 312 311 311 312 312 312 312 312 308 311 313 314 317 318 316 317 318 317 317 315 315 316 317 316 315 314 314 314 314 316 317 316 316 319 319 318 319 319 319 319
312 312 312 312 312 311 312 312 312 312 313 312 308 312 316 317 318 315 316 316 316 315 316 316 315 316 316 314 312 312 314 314 314 315 316 315 315 316 318 318 318 318 318 319 319
311 311 311 311 311 311 313 312 313 314 314 309 316 316 317 317 317 316 315 316 317 317 316 315 315 313 310 311 314 314 314 314 315 317 316 315 315 315 317 318 318 318 318 319 318
311 309 309 310 310 313 315 312 319 319 317 318 316 314 317 319 318 315 314 313 314 316 313 315 313 313 312 313 314 315 315 316 316 316 317 314 316 315 315 317 316 316 318 319 319
311 309 309 308 311 317 318 315 317 318 317 317 316 318 319 320 320 315 313 314 317 317 314 313 313 314 315 315 316 315 316 316 315 317 317 317 316 316 315 316 318 318 318 319 319
311 309 308 308 313 317 317 317 317 317 316 317 317 318 319 319 321 318 315 316 317 316 316 313 315 316 317 317 318 316 316 315 316 317 316 317 315 316 317 318 319 318 319 318 317
311 310 307 308 315 314 316 315 316 317 315 320 320 321 320 319 318 318 317 316 316 317 316 316 317 318 318 318 317 316 316 317 318 316 317 317 316 315 317 316 316 318 318 320 320
310 309 307 307 311 314 316 315 316 318 329 325 321 320 320 321 318 318 318 316 316 316 316 316 316 316 317 319 318 317 316 318 318 315 316 315 316 315 317 319 318 317 320 320 321
310 307 307 309 312 316 317 317 317 321 329 326 319 318 318 319 319 318 317 317 317 316 315 316 317 316 317 320 319 320 318 315 314 314 316 317 317 316 318 319 318 317 319 319 320
307 306 308 309 314 317 318 319 320 327 326 324 319 318 317 317 318 318 318 316 315 316 315 315 318 319 320 320 319 319 316 316 317 317 319 323 325 321 320 319 318 316 318 319 319
305 306 310 315 312 317 319 318 325 326 325 324 320 318 318 317 318 318 317 316 315 314 315 317 319 321 321 321 322 321 319 322 325 325 324 324 327 322 320 318 318 318 318 318 319
305 307 313 315 317 318 320 322 324 326 322 320 320 320 320 322 321 322 318 320 317 315 318 321 322 321 321 321 321 321 320 319 322 321 322 322 321 318 319 319 318 319 319 316 316
306 309 321 319 317 318 318 322 324 324 319 318 320 320 320 320 325 323 322 322 320 319 317 319 321 320 320 320 321 320 319 322 318 321 322 321 321 319 317 316 316 313 313 313 314
308 314 321 319 318 319 319 320 324 324 321 318 319 318 319 319 319 323 323 321 320 320 317 317 318 319 319 320 321 319 318 319 318 320 319 320 319 317 317 314 311 311 312 311 312
310 313 320 319 318 317 320 324 323 322 321 318 317 318 318 319 319 319 320 322 320 320 318 318 316 319 318 317 319 319 321 320 322 321 318 316 318 315 312 312 310 310 311 311 311
309 312 319 319 316 316 317 323 321 321 318 317 318 317 316 317 318 318 319 318 319 317 318 317 316 318 315 318 318 319 319 319 318 315 318 318 316 314 312 310 311 310 311 310 309
309 312 318 318 316 317 317 317 317 317 316 316 317 317 317 317 317 318 320 318 318 318 317 316 315 316 315 320 319 319 319 318 318 315 316 316 314 314 312 310 309 310 309 309 309
310 314 312 314 313 312 314 316 316 318 315 315 316 315 315 317 314 318 316 316 316 318 316 310 313 314 314 316 317 319 319 319 320 318 315 316 314 313 311 310 309 309 308 308 307
312 312 312 312 313 313 315 315 317 315 314 314 314 313 313 314 315 315 314 315 315 315 316 313 313 315 315 317 317 318 317 316 316 317 316 313 313 310 310 309 308 308 308 307 307
311 312 312 310 311 313 313 315 315 313 313 313 311 311 312 312 312 312 311 312 311 313 316 317 314 313 316 318 317 315 317 317 317 315 315 315 312 310 309 308 308 308 308 308 307

GFSSW_850_thetae_093.txt.gz
Theta_e
303 304 304 305 305 305 305 305 306 308 310 310 312 312 313 313 311 308 309 310 310 309 309 308 307 309 308 308 311 312 308 307 309 312 313 316 315 319 320 320 321 326 329 327 335
303 303 304 304 306 306 305 305 305 306 308 310 310 312 311 313 313 311 311 310 309 309 308 309 306 310 312 312 309 307 304 307 308 311 312 314 315 316 317 318 318 327 329 330 326
304 304 305 306 308 310 311 310 310 308 307 309 311 311 311 312 313 314 313 312 310 309 310 310 308 311 311 310 309 308 307 309 310 313 314 313 313 315 315 315 317 321 327 329 324
310 310 310 311 312 312 312 312 312 311 311 310 310 311 312 311 310 317 314 313 310 310 311 310 309 310 310 311 311 309 309 310 311 312 314 312 315 315 316 318 319 322 326 327 323
313 313 313 313 313 313 312 312 312 311 311 311 312 311 311 310 312 315 316 313 312 310 310 310 310 311 312 311 311 309 309 311 312 312 313 313 313 314 316 317 318 321 327 328 329
313 313 313 313 313 312 312 312 311 311 311 311 312 311 310 314 312 313 313 314 313 311 309 310 312 313 314 312 311 314 313 313 313 312 312 312 313 314 316 319 318 322 328 329 329
312 311 312 312 312 312 311 311 311 312 312 311 312 311 310 313 312 318 316 314 312 311 308 308 313 314 313 312 315 315 312 311 311 312 310 313 312 314 318 319 319 320 324 326 327
312 311 310 310 310 311 310 311 312 312 312 312 312 311 311 312 313 315 316 315 312 313 309 311 312 312 312 314 314 314 313 313 312 313 313 314 313 314 318 319 318 318 319 319 319
311 311 310 309 309 309 310 313 312 312 312 312 311 309 311 314 314 313 317 316 317 317 317 317 316 315 314 313 312 311 313 313 313 313 315 313 313 314 318 316 317 318 318 318 318
311 311 310 309 308 309 314 313 315 314 313 309 313 314 315 317 317 314 316 316 316 316 316 315 314 311 309 311 313 313 313 313 314 314 314 313 312 314 316 316 316 317 317 318 318
309 311 310 308 307 310 316 312 318 318 315 316 316 314 316 318 319 317 316 315 316 316 314 314 311 312 311 311 313 314 314 314 315 315 315 313 312 312 313 316 316 317 318 318 317
308 311 310 308 307 313 317 317 315 316 316 317 317 317 316 317 319 317 317 313 314 314 313 312 312 312 313 313 314 314 314 314 313 314 313 314 315 313 313 315 316 317 318 318 317
309 310 309 307 309 315 315 315 316 316 315 317 317 317 317 318 319 320 313 313 315 315 315 313 313 314 314 314 315 315 315 315 314 315 315 315 314 314 316 317 318 319 319 319 319
308 309 309 306 311 316 315 316 316 316 315 318 319 319 319 319 318 319 314 314 315 316 315 315 315 315 316 316 316 316 316 316 316 315 315 315 315 314 315 315 316 316 317 318 318
308 308 307 307 306 310 315 317 316 317 325 324 320 320 320 319 318 318 318 316 315 315 315 316 316 316 315 316 317 315 317 316 316 314 315 315 314 314 314 317 317 316 319 321 321
309 308 306 306 307 313 317 317 317 320 327 325 318 319 319 319 319 316 315 316 316 315 315 315 316 315 315 319 318 319 317 314 313 312 314 315 315 315 318 318 318 317 319 320 320
308 307 305 306 309 315 317 319 318 324 324 325 318 317 317 317 319 317 316 315 314 315 315 315 315 317 318 320 319 317 315 317 316 316 316 321 321 318 319 317 316 315 317 318 318
307 305 305 307 311 314 316 317 324 324 326 323 320 317 317 316 316 317 316 315 314 314 313 316 317 320 320 320 321 320 317 319 321 322 321 322 324 322 318 316 318 315 315 316 316
306 305 307 312 314 314 319 320 321 325 324 320 320 318 318 321 319 318 315 316 315 313 315 319 321 320 320 320 320 320 318 317 320 321 318 320 321 316 318 317 313 313 313 312 312
306 307 311 315 316 316 317 320 322 324 323 319 319 319 319 319 324 322 321 320 320 317 315 317 319 319 320 319 320 319 318 320 317 322 323 320 320 317 317 312 311 309 310 311 312
307 309 320 318 318 318 317 318 322 323 322 319 319 318 318 319 319 322 323 321 320 319 316 317 316 318 318 319 319 320 317 316 318 318 320 320 319 315 312 311 310 309 310 311 310
308 307 319 318 316 314 316 319 322 322 320 320 317 317 317 318 319 318 320 320 318 319 318 316 314 318 318 316 317 318 319 317 317 323 315 313 319 312 309 309 309 310 310 309 308
309 309 313 318 317 316 316 320 322 321 320 318 318 317 316 316 317 318 319 317 318 316 317 315 314 317 316 316 317 319 319 318 317 319 323 322 318 312 310 309 310 310 308 308 308
308 310 315 316 315 315 316 317 318 316 316 316 317 316 316 316 315 318 318 317 316 319 317 315 314 315 316 316 316 319 318 318 320 317 316 318 315 313 311 310 309 308 308 308 307
308 311 311 312 314 312 312 315 316 317 315 315 315 315 315 316 314 317 315 314 315 316 315 312 315 313 314 314 315 317 317 317 319 318 318 317 315 312 310 310 309 308 307 307 307
310 312 312 311 312 313 313 315 317 315 314 314 314 313 312 314 314 314 313 314 314 312 315 313 313 314 314 315 315 316 316 316 316 316 318 317 313 310 310 309 308 307 307 307 307
310 310 312 310 311 312 312 313 315 313 312 312 312 310 311 312 312 312 312 312 311 312 312 315 315 315 315 316 317 315 315 316 316 313 314 313 311 309 309 308 308 307 307 307 306

GFSSW_850_thetae_096.txt.gz
Theta_e
303 303 302 303 304 306 307 308 308 307 306 307 309 311 311 311 312 313 312 311 311 311 309 309 307 308 309 310 312 312 305 307 308 311 311 316 313 315 317 319 319 319 323 327 329
308 308 307 308 309 311 311 310 310 310 311 310 308 309 311 312 311 312 313 311 309 310 309 308 308 309 309 308 310 306 304 306 306 308 310 312 313 313 315 316 315 318 321 326 328
314 313 313 313 313 312 312 312 311 310 311 311 312 310 311 311 310 312 314 312 309 309 309 308 307 311 311 309 307 306 306 305 308 311 312 312 312 313 313 313 315 317 319 320 327
313 313 313 313 313 312 312 312 312 312 311 311 311 312 311 311 309 317 313 313 310 309 309 310 309 310 308 309 308 308 307 309 308 310 313 310 313 313 314 315 317 316 317 319 325
312 311 311 311 312 312 312 312 311 311 311 311 311 311 312 311 313 312 313 314 310 309 310 310 309 311 310 310 309 307 308 310 312 311 311 311 311 311 313 315 316 316 316 318 324
310 310 310 310 310 310 310 310 310 310 311 311 311 310 311 310 313 312 311 313 312 310 311 310 310 313 312 311 310 311 311 312 313 313 311 310 310 312 314 316 315 316 319 322 326
310 310 310 309 308 308 309 309 310 312 312 312 311 311 311 315 313 313 316 313 313 312 310 309 310 313 313 312 313 313 313 311 312 312 310 311 310 311 316 316 315 318 321 325 326
311 310 310 309 308 308 308 310 313 312 312 311 311 311 312 315 313 313 317 316 313 312 311 309 310 311 312 312 313 313 311 312 312 312 312 312 312 312 317 314 316 318 319 319 323
311 309 309 309 308 307 308 312 313 312 312 312 312 311 313 313 313 313 316 316 313 313 311 312 310 311 313 311 311 308 312 312 312 312 312 312 313 313 317 315 316 317 318 318 318
311 308 308 309 308 307 309 315 316 316 312 309 313 311 313 316 318 314 315 316 316 316 314 314 315 309 307 310 312 312 312 313 312 314 314 312 311 311 314 315 316 318 317 317 317
310 308 308 308 308 307 313 315 316 316 314 316 316 314 316 316 319 317 314 316 316 316 313 312 310 311 311 311 311 313 313 313 313 313 314 313 312 312 312 311 313 316 317 317 315
310 308 308 308 307 307 314 315 315 316 314 316 317 316 316 316 317 317 314 315 314 313 313 311 311 312 311 311 312 312 313 313 313 313 312 313 313 312 312 314 313 314 316 317 317
310 309 308 306 306 310 315 315 316 315 314 316 317 317 317 316 317 318 317 315 312 312 313 312 315 313 313 313 313 313 313 313 314 314 314 314 313 313 314 315 317 317 319 319 318
310 309 309 308 306 311 313 315 316 316 314 316 317 318 317 319 318 319 316 314 314 312 314 314 314 315 314 314 313 314 314 315 315 314 313 314 314 312 313 314 315 315 317 318 318
309 308 308 308 306 306 310 316 316 316 323 321 319 319 318 319 317 318 318 313 314 314 314 316 315 315 315 316 314 315 315 315 314 313 313 314 312 312 313 316 316 315 319 320 320
308 307 307 307 306 306 310 314 316 319 325 323 319 318 319 318 318 315 314 314 315 314 314 314 315 315 315 316 317 317 315 312 311 311 313 314 313 313 317 318 317 316 317 316 317
308 306 306 306 306 309 313 317 317 321 321 325 317 317 318 318 318 315 314 314 314 315 315 315 315 314 315 318 319 316 314 315 315 314 316 318 319 315 318 316 315 314 313 314 315
308 304 305 305 305 307 314 315 321 322 325 323 320 316 318 316 316 316 314 313 313 313 312 314 316 317 320 320 320 319 315 317 318 318 318 320 321 320 315 312 312 312 311 312 312
306 304 304 305 308 310 315 319 320 321 324 319 321 318 317 317 316 316 314 315 314 312 315 315 318 319 319 320 320 319 319 316 320 318 318 318 320 316 312 312 311 310 311 311 311
306 306 306 308 310 313 316 319 320 321 322 319 319 319 321 319 322 318 315 317 316 312 312 315 318 318 319 318 318 318 316 320 317 321 322 318 319 317 314 312 310 309 309 310 309
306 307 311 316 311 315 317 316 318 319 322 322 320 320 319 319 321 322 321 319 318 317 313 315 316 318 318 318 318 318 318 316 316 314 319 318 316 313 312 310 309 308 309 309 308
307 306 314 314 315 313 315 316 319 320 322 319 317 318 319 318 318 318 321 320 317 318 318 315 314 318 318 316 315 316 316 316 318 320 311 310 314 310 308 308 308 309 308 308 307
306 308 311 314 316 315 315 318 320 321 320 319 318 317 316 317 317 317 319 316 317 316 318 317 314 318 318 314 315 318 317 316 316 319 321 317 317 310 309 309 309 308 307 308 307
306 307 313 313 314 314 315 316 319 317 318 317 318 318 318 317 314 318 318 316 315 319 317 315 313 315 316 314 314 318 317 317 316 315 318 321 316 312 311 310 309 307 307 308 307
307 307 311 311 314 313 313 315 316 317 315 315 316 316 315 316 314 316 314 313 314 314 314 314 317 315 314 314 314 315 316 316 319 318 319 318 316 312 310 308 309 308 307 307 307
308 311 311 311 311 313 313 315 317 316 314 315 317 314 314 315 313 315 313 313 314 312 314 313 312 312 314 314 314 315 315 315 315 318 318 318 315 309 309 309 308 307 307 307 307
308 309 310 310 310 313 314 314 315 313 313 313 313 311 311 311 311 312 312 311 311 312 311 313 315 316 316 314 316 316 315 315 315 314 314 316 313 308 308 308 307 307 306 306 305

GFSSW_850_thetae_099.txt.gz
Theta_e
313 312 311 310 311 311 312 312 312 312 312 312 313 310 309 310 312 312 311 312 311 310 310 309 307 308 308 311 312 312 313 313 312 313 313 314 316 315 316 316 316 317 319 322 328
314 314 314 313 313 313 313 312 312 311 311 311 312 312 312 310 311 313 311 312 312 309 309 309 308 309 309 309 310 312 312 312 312 313 313 313 313 313 313 314 315 316 317 320 325
313 312 312 312 312 312 311 312 311 312 312 312 312 312 312 311 311 311 314 313 311 309 309 308 307 308 311 308 309 310 312 311 312 311 312 312 312 312 313 314 314 316 318 318 331
312 311 310 310 310 310 310 311 311 311 311 310 310 311 311 312 315 317 313 313 309 309 309 308 308 311 313 311 308 310 310 310 310 310 312 312 312 313 313 315 315 316 316 316 317
311 310 310 310 309 308 308 309 309 309 310 310 311 311 310 311 313 313 313 313 309 309 309 309 308 310 314 313 309 310 312 311 311 311 312 312 313 314 313 314 316 315 316 316 317
310 310 310 310 309 308 307 308 308 309 310 312 312 311 310 312 314 312 312 313 311 309 309 310 308 311 313 314 314 313 313 314 314 313 311 313 314 312 316 316 316 315 316 318 318
310 310 309 309 309 309 307 307 308 312 313 312 311 311 310 313 315 312 315 313 313 310 310 310 309 311 313 314 313 313 315 316 316 315 315 313 315 315 317 316 316 316 317 319 324
310 310 309 307 309 309 308 307 309 314 312 311 311 312 311 315 315 314 315 314 311 311 311 310 309 310 311 312 314 316 315 317 317 315 313 314 318 318 317 315 316 317 318 318 319
309 310 309 307 308 308 308 307 314 315 315 312 311 311 313 313 314 313 313 315 313 312 311 310 309 310 313 315 316 315 317 316 317 315 315 315 318 319 318 316 317 318 318 318 319
310 310 309 307 307 307 306 309 314 316 313 311 312 311 313 314 317 314 313 315 312 312 311 311 314 316 314 316 316 316 316 316 317 317 317 318 318 319 317 316 317 318 318 318 318
308 308 309 307 306 306 306 314 314 314 314 316 316 313 315 316 318 318 313 316 315 315 317 314 316 316 316 316 315 315 316 316 317 317 317 319 318 319 318 317 317 316 317 317 316
308 309 309 308 307 305 309 314 315 315 315 315 316 315 316 316 316 317 314 316 317 317 315 314 316 315 315 314 315 315 316 317 317 317 317 319 319 318 318 318 318 316 317 317 316
308 308 309 308 307 306 314 312 315 314 315 316 315 316 316 316 317 317 315 315 316 316 316 317 316 316 315 315 315 316 317 317 317 317 318 318 319 319 318 318 320 319 318 318 317
306 307 308 307 307 307 306 310 314 315 319 317 317 318 317 317 318 318 315 315 315 316 315 316 316 316 316 316 316 317 317 317 318 319 320 317 319 320 318 320 322 321 321 320 320
305 306 307 307 305 306 306 314 313 315 323 320 319 318 317 318 318 319 316 315 316 315 316 317 317 317 317 317 317 318 318 318 319 320 319 318 319 319 320 322 323 321 319 318 319
305 306 307 307 305 306 307 308 313 320 323 323 319 319 319 319 318 316 314 314 314 316 316 316 316 316 317 317 317 318 317 316 317 318 320 319 319 319 320 322 322 319 316 315 315
305 305 307 307 305 306 310 310 319 323 320 324 321 320 319 319 319 317 318 315 316 316 317 317 317 317 316 317 320 319 320 320 320 320 320 321 320 320 322 320 322 318 315 314 314
305 305 305 304 303 305 307 316 322 320 321 324 320 320 321 319 319 317 318 318 315 316 317 318 318 317 318 318 320 321 321 321 321 321 320 323 324 324 318 317 317 315 314 313 312
306 303 304 303 305 306 308 321 318 320 321 322 321 319 320 319 319 319 318 318 317 316 318 318 318 320 320 321 321 321 322 319 323 322 324 322 323 318 317 316 314 313 313 312 311
307 307 305 312 309 307 313 318 318 320 323 320 320 321 321 320 319 319 318 318 317 315 317 318 320 320 320 320 320 321 319 323 322 324 324 322 323 322 320 318 315 315 313 311 310
308 306 305 314 309 310 316 317 318 318 319 323 322 321 321 321 322 322 320 320 319 316 316 318 319 320 319 321 321 321 322 321 322 322 324 323 321 318 321 318 316 314 311 310 309
306 307 307 312 313 314 316 317 317 317 317 318 320 321 321 320 321 323 322 321 317 318 317 318 320 321 321 317 317 320 322 323 324 325 323 322 322 314 315 315 314 312 310 309 309
306 306 307 310 317 318 316 317 317 317 319 320 320 318 318 320 322 319 320 317 318 319 321 320 321 324 323 319 319 320 320 321 322 323 325 325 323 314 313 313 312 311 309 309 309
307 308 309 311 314 313 314 316 317 317 319 318 319 318 319 320 318 320 320 316 317 319 318 320 320 323 325 320 320 321 320 321 322 326 323 323 322 317 315 315 313 311 309 308 309
306 307 310 313 313 312 313 314 316 318 316 317 318 318 319 320 317 318 318 316 316 315 315 319 322 319 317 318 317 317 318 319 321 321 323 320 321 321 318 316 313 312 309 309 309
306 308 309 309 311 312 313 315 315 316 315 317 318 317 315 317 316 318 317 317 317 316 318 316 319 317 318 316 317 318 317 317 318 318 319 319 319 319 315 314 312 311 309 309 309
307 307 308 308 310 312 313 313 313 314 313 313 316 315 314 315 313 313 312 312 314 316 317 319 318 319 317 316 317 318 317 317 317 317 318 319 319 315 314 313 312 310 308 308 306

GFSSW_850_thetae_102.txt.gz
Theta_e
314 314 313 313 313 313 313 313 312 312 311 311 311 311 312 313 311 311 313 314 311 310 310 310 313 310 311 313 314 314 317 317 317 317 318 317 317 316 316 316 317 319 322 323 333
313 312 312 311 311 311 310 311 311 311 311 312 311 311 311 312 313 313 314 313 311 311 311 312 311 310 311 312 313 315 316 317 318 317 317 316 316 315 315 316 316 316 316 319 331
313 312 310 310 310 309 309 309 310 310 311 311 310 311 311 311 315 317 314 314 314 312 312 312 311 311 312 313 314 314 316 317 316 315 315 315 315 315 316 316 316 316 317 320 321
314 310 309 310 310 309 309 308 307 308 309 309 310 310 311 311 320 315 313 313 313 309 311 311 311 312 313 313 313 314 315 315 314 313 315 316 316 317 316 316 315 315 316 320 320
312 310 309 310 309 309 309 308 307 307 308 309 310 311 312 315 315 316 314 312 308 312 311 311 311 312 314 314 313 313 315 314 314 316 316 317 317 318 317 317 316 316 317 319 320
311 310 309 309 308 308 308 307 307 307 309 313 313 312 312 316 315 315 315 313 312 312 312 311 311 312 314 315 315 315 314 317 317 318 317 318 319 318 319 318 317 318 319 320 321
309 308 309 309 307 308 308 308 307 307 313 312 311 311 311 316 315 318 314 317 315 313 312 311 310 311 315 317 316 317 318 318 318 318 319 319 320 319 319 318 319 319 319 321 323
307 306 307 308 307 307 307 307 307 309 314 313 311 311 315 315 314 315 320 318 316 313 313 312 310 311 316 316 316 318 319 320 320 319 318 319 320 321 320 319 320 320 320 321 323
308 308 308 308 308 307 306 307 307 313 315 313 311 313 318 315 315 315 317 318 315 314 312 312 311 312 315 317 318 319 319 319 320 319 319 319 321 321 320 320 320 320 321 321 322
310 309 308 308 309 308 306 306 311 314 314 313 312 313 316 316 316 316 315 317 315 315 314 312 312 314 316 318 319 318 319 319 319 319 320 320 321 321 320 320 320 320 320 321 321
309 309 308 308 308 308 307 310 315 316 313 318 319 317 316 317 319 317 316 317 315 315 316 314 315 316 317 318 318 318 319 319 319 320 320 320 321 321 321 321 321 321 320 321 321
308 307 306 307 307 306 306 314 316 314 317 318 317 317 317 318 319 319 317 317 317 317 316 317 317 317 317 318 318 318 318 318 318 319 320 321 321 321 321 322 323 322 321 321 322
307 306 305 305 305 306 311 311 310 314 318 318 317 318 317 317 318 320 316 317 319 318 319 319 317 317 318 318 318 318 318 318 317 320 320 321 322 322 322 322 324 324 322 323 322
305 306 305 305 309 309 308 310 312 313 321 318 318 319 318 318 319 319 317 316 319 319 319 318 318 317 318 318 318 318 317 317 317 319 321 322 321 323 322 323 325 325 325 324 325
302 303 305 305 306 308 310 309 312 315 319 321 321 320 319 319 320 319 317 316 318 317 318 318 318 318 318 318 318 318 317 320 320 321 322 322 321 322 322 322 326 326 325 326 326
299 301 304 305 306 304 308 308 310 320 319 321 321 321 320 320 320 319 318 316 316 318 317 318 318 318 318 317 318 319 320 321 321 321 323 322 322 321 322 323 326 324 323 322 322
299 299 300 304 305 308 305 310 318 319 318 322 324 322 321 321 321 320 320 319 319 318 319 318 318 318 318 319 320 320 322 323 321 321 321 321 322 322 324 324 325 325 322 321 321
300 300 301 303 307 307 308 315 320 315 317 324 324 323 323 322 321 321 321 320 319 318 319 319 320 318 319 319 320 321 322 321 323 321 320 323 322 322 325 323 324 322 321 320 320
302 306 308 309 309 308 309 314 317 316 317 318 323 323 324 322 322 321 322 321 320 320 321 321 320 318 319 319 320 321 323 322 323 324 325 324 324 324 323 324 322 321 320 319 318
305 306 308 309 309 308 310 310 312 315 318 321 322 322 324 324 323 322 321 321 321 320 320 321 322 320 320 321 322 322 322 323 323 325 327 323 324 324 325 324 323 321 320 318 317
307 308 310 308 309 310 312 310 310 310 317 319 319 321 322 323 323 322 321 321 320 320 320 321 322 323 323 322 322 322 322 322 323 326 327 326 325 323 325 325 323 322 319 318 316
306 310 310 308 313 314 315 312 311 314 315 316 319 319 321 322 323 322 322 322 319 321 320 321 322 324 322 322 322 323 322 323 326 325 325 325 324 320 323 324 322 320 317 316 315
306 307 308 310 313 315 315 315 314 316 317 317 317 318 319 321 323 323 323 321 320 321 321 321 323 325 325 323 322 322 322 323 324 325 326 328 324 320 320 322 320 319 316 315 314
306 309 309 310 312 313 313 315 316 315 317 316 318 319 320 322 322 323 322 319 319 320 320 321 324 325 327 324 324 324 323 323 324 327 324 323 322 322 320 320 319 317 316 315 314
305 309 309 310 312 311 312 314 314 313 316 317 319 319 320 322 321 322 322 320 320 319 320 322 325 325 323 322 321 322 322 322 323 322 323 321 324 323 322 321 319 318 316 315 314
306 308 308 310 309 312 312 313 314 314 314 316 318 318 319 321 321 321 320 320 321 320 321 321 323 323 323 321 321 321 320 320 320 320 320 321 321 320 319 321 319 318 316 315 314
305 306 305 308 310 310 312 312 311 308 314 313 316 319 319 316 315 316 317 317 319 320 321 322 322 322 321 319 318 319 318 318 319 320 320 321 320 320 320 320 319 317 315 314 312

GFSSW_850_thetae_105.txt.gz
Theta_e
316 313 312 311 311 311 311 310 310 311 310 311 311 311 311 310 310 313 318 319 317 312 311 316 315 316 315 315 317 317 320 320 321 322 322 322 320 320 319 319 319 320 321 327 331
314 314 311 310 309 309 309 309 309 309 310 310 311 311 311 311 312 315 314 317 315 313 311 316 316 316 314 315 317 318 318 320 322 322 321 321 319 320 319 319 318 318 318 321 323
312 313 310 309 309 309 309 308 308 307 307 308 309 309 310 311 316 318 318 317 314 312 313 315 315 315 315 315 316 317 318 320 320 319 318 319 319 318 318 319 319 319 319 319 320
310 311 310 309 309 308 308 309 308 307 307 307 308 309 311 311 321 320 314 313 313 313 314 315 314 315 316 317 316 317 318 318 319 318 317 318 317 319 319 319 318 318 318 319 321
315 309 310 309 309 308 308 308 308 308 307 307 308 310 313 318 317 317 316 314 312 314 315 315 315 315 317 317 317 318 318 318 317 317 317 318 319 319 319 318 318 318 318 318 321
314 309 308 309 310 309 307 307 308 308 307 307 312 312 313 319 318 318 319 316 315 316 315 315 315 315 316 317 317 317 316 317 318 318 318 319 319 319 319 319 319 319 318 319 320
311 308 308 308 309 309 308 307 307 307 307 309 313 312 314 318 318 318 320 319 317 316 315 314 314 315 315 318 317 317 318 319 318 320 320 320 320 321 320 321 320 319 319 320 320
311 310 309 309 308 308 309 307 306 306 306 313 314 311 316 319 318 320 320 319 318 315 314 314 313 313 315 317 318 319 319 320 321 321 320 320 321 322 321 321 321 321 321 320 322
308 309 310 309 308 308 307 307 306 306 313 315 312 312 320 320 317 318 320 319 319 316 315 314 313 313 314 319 319 319 319 320 320 322 321 321 321 324 322 321 322 322 322 321 323
307 306 307 306 305 306 305 306 307 313 314 312 315 315 318 319 319 318 318 320 319 317 315 315 315 316 316 318 319 319 319 320 321 322 321 321 321 323 322 322 322 322 322 322 322
306 306 306 306 304 305 304 310 317 317 314 319 320 320 320 320 318 319 318 319 317 318 319 316 317 317 317 318 318 320 320 320 321 322 322 322 322 323 323 322 322 322 322 322 323
303 303 304 304 303 302 304 312 317 315 317 318 319 319 319 320 321 319 318 319 318 320 320 320 318 318 317 318 319 320 320 321 321 320 321 322 322 323 324 323 323 324 323 322 322
301 301 301 301 302 313 314 313 312 314 318 318 317 318 319 319 320 322 318 319 320 320 320 319 320 318 319 319 319 320 320 321 320 320 321 320 321 323 323 323 324 324 323 323 322
299 299 299 299 308 313 309 312 314 317 320 317 319 319 319 319 321 321 319 319 320 321 320 319 320 320 319 319 320 321 320 319 319 320 321 321 321 323 324 323 325 326 325 325 324
300 299 299 299 305 309 309 310 312 317 318 320 320 320 319 319 321 321 321 319 321 321 321 321 321 320 319 320 320 320 320 319 319 319 320 321 323 323 324 324 326 327 326 327 328
300 300 300 305 310 310 310 311 313 319 318 318 323 322 322 320 321 321 322 319 319 321 321 321 320 320 320 320 320 319 319 319 320 321 321 321 324 324 325 325 326 327 327 328 327
300 300 300 304 307 309 310 311 312 313 316 318 322 324 324 323 323 323 323 322 321 322 321 320 321 320 320 320 320 320 320 322 323 323 322 321 322 324 324 324 328 327 326 326 325
300 300 303 308 310 311 310 313 312 311 315 316 321 321 324 323 323 323 323 321 320 321 322 322 321 320 320 321 320 320 322 323 326 325 323 323 324 322 323 325 325 326 325 325 325
301 307 308 309 311 311 311 314 311 312 312 315 317 319 319 322 323 323 323 322 321 321 322 322 322 320 321 320 322 322 323 322 323 326 330 325 324 327 326 324 326 326 325 325 324
304 308 311 312 312 312 313 313 312 311 311 315 319 320 322 324 323 323 323 323 322 321 321 323 323 322 320 320 321 322 323 325 325 330 330 328 328 327 326 326 326 326 325 324 323
307 309 313 312 311 311 315 313 312 310 310 312 317 318 317 321 320 325 323 323 323 322 321 322 324 324 321 321 321 322 325 326 328 326 329 328 328 326 327 326 326 325 324 323 321
306 311 312 311 312 311 314 312 314 312 311 312 316 316 316 320 319 319 322 325 322 323 321 322 324 327 322 322 322 324 323 327 328 328 328 328 329 324 325 326 325 325 323 322 321
307 308 310 311 313 313 313 314 314 315 313 313 315 314 315 318 322 322 320 322 321 323 325 324 324 329 328 325 324 325 324 325 325 327 327 330 327 323 323 326 325 324 323 321 319
306 311 311 312 312 314 314 313 315 314 314 315 318 318 320 321 319 322 323 320 321 321 322 324 326 326 329 328 326 325 324 324 327 332 327 325 324 324 324 324 324 323 322 320 319
307 310 310 312 312 312 313 314 314 315 314 312 317 318 319 319 320 320 322 323 321 320 321 323 328 326 325 326 324 326 323 323 325 326 328 324 323 326 324 324 323 321 321 319 319
307 309 308 310 310 313 312 314 315 313 310 316 314 317 318 318 321 321 321 323 323 322 322 321 325 325 327 326 325 324 324 324 324 324 322 322 322 324 323 322 322 320 320 319 319
305 307 308 307 310 311 313 313 313 313 312 312 315 314 315 319 318 318 318 320 321 324 324 323 325 323 326 323 322 323 323 323 322 322 321 321 321 321 322 323 322 321 320 319 318

GFSSW_850_thetae_108.txt.gz
Theta_e
314 312 314 311 309 309 309 309 309 308 308 309 310 310 311 311 311 311 314 313 319 319 316 314 315 315 315 316 317 318 319 320 320 321 322 324 323 322 322 321 321 322 321 328 337
315 311 312 311 309 308 309 309 308 308 307 307 308 309 309 310 311 312 310 310 317 317 313 314 317 315 317 316 317 319 319 319 321 322 323 323 322 321 321 320 320 321 321 322 326
316 315 311 311 310 309 309 308 308 308 308 307 307 308 309 310 315 319 320 316 314 315 315 315 317 317 317 317 317 318 320 320 320 321 321 321 320 320 321 320 320 320 320 320 320
314 315 313 309 309 309 309 308 307 308 308 307 307 308 309 311 321 322 317 314 316 317 317 315 316 318 319 317 317 318 319 319 319 319 320 319 319 319 319 320 320 320 320 320 320
313 314 311 308 308 309 309 308 307 306 307 307 307 307 312 317 317 318 318 318 314 314 315 315 317 317 318 318 318 318 318 318 319 319 319 318 318 318 319 320 320 319 319 319 319
313 312 310 309 308 308 307 308 307 306 306 307 307 309 313 317 316 320 320 319 316 314 316 316 317 317 317 318 318 318 318 318 318 319 319 319 318 319 319 320 319 319 319 319 319
307 308 310 311 310 309 308 307 306 307 306 306 306 313 314 318 320 319 319 321 319 318 318 316 317 317 317 318 317 318 318 319 319 318 319 319 320 320 320 320 321 321 320 320 319
308 307 306 307 308 307 306 305 305 306 306 306 309 314 316 317 320 319 320 320 319 317 317 317 316 316 316 317 317 318 319 318 319 320 318 320 320 322 321 321 321 321 320 320 320
306 305 305 305 304 304 303 302 303 305 308 313 314 314 318 320 319 320 321 321 321 319 317 316 316 316 315 316 317 319 319 319 319 321 321 320 320 322 322 322 322 322 322 322 321
304 302 301 301 301 302 303 302 305 312 314 313 315 316 316 319 321 320 320 322 321 320 317 316 315 316 316 316 317 320 320 320 320 321 321 321 321 322 323 323 323 323 323 323 322
301 301 301 301 301 301 302 307 315 316 315 319 319 318 318 321 321 320 320 322 321 319 319 317 317 317 316 317 317 320 321 321 320 321 322 322 322 322 323 323 323 323 323 323 323
299 300 300 300 300 300 308 313 311 315 315 316 318 318 320 321 321 320 320 321 322 322 319 319 318 318 318 317 317 319 319 321 321 321 323 323 322 323 323 324 323 323 323 323 323
299 299 299 300 300 304 315 315 311 313 316 315 315 315 318 319 321 322 321 321 322 322 321 321 320 319 319 319 318 319 319 320 322 321 321 321 322 323 323 323 324 324 325 324 323
300 300 300 301 304 311 309 311 312 314 316 314 316 317 316 318 320 320 321 321 322 322 322 322 322 322 320 319 319 319 319 320 321 322 321 322 322 324 323 324 324 324 325 324 324
300 300 300 300 300 305 309 311 311 313 316 316 321 319 319 318 319 320 321 320 322 322 321 322 322 322 321 320 319 320 321 321 321 321 321 320 322 322 323 324 325 327 325 324 329
301 301 302 303 307 308 311 312 312 316 314 316 319 322 321 320 319 321 320 321 320 322 322 322 321 321 321 321 320 320 321 321 321 320 321 320 321 322 324 325 325 327 326 326 331
301 301 302 303 304 307 309 312 314 315 313 315 316 320 324 323 321 321 322 324 324 323 324 323 322 322 322 321 321 321 321 320 321 322 321 321 321 322 325 326 326 327 329 330 329
301 301 303 307 309 310 310 312 315 313 314 314 314 314 321 323 322 321 323 326 323 322 323 325 323 322 322 321 321 321 322 321 323 323 322 323 324 323 326 327 326 327 328 328 327
302 305 307 309 311 311 312 315 312 312 313 313 313 314 315 319 319 322 323 326 325 324 324 325 323 322 322 321 321 321 321 322 324 326 331 328 324 325 325 328 328 326 326 326 326
303 308 312 313 313 312 313 314 312 312 313 313 313 312 315 320 318 322 325 324 325 323 323 323 324 323 321 321 321 322 322 323 324 329 331 330 328 326 326 329 328 328 327 326 325
307 309 313 314 313 312 312 311 311 311 313 315 316 312 312 315 319 318 318 324 324 322 322 322 324 325 323 322 321 322 323 324 327 327 332 332 331 329 329 328 329 327 326 326 324
306 310 312 313 313 312 313 312 313 314 314 315 316 312 312 317 317 320 319 319 319 323 325 323 327 327 324 322 322 321 323 325 331 329 329 329 332 328 328 328 327 326 326 324 323
305 307 309 311 315 315 314 313 313 315 314 316 316 315 316 314 317 316 320 318 320 322 327 326 326 332 328 325 323 321 322 325 329 331 330 333 330 325 326 327 325 325 325 324 322
306 310 310 312 312 314 312 312 314 313 315 314 315 316 317 317 318 317 321 317 321 322 322 326 326 328 329 326 325 324 323 325 327 332 330 328 326 325 325 327 326 324 321 323 321
305 308 309 312 312 311 312 313 315 315 314 312 314 315 317 319 318 320 321 321 322 321 321 327 327 328 327 324 327 327 325 325 326 328 329 326 325 326 326 326 325 326 324 322 321
306 306 304 306 310 311 312 313 315 315 314 314 311 311 314 314 315 320 321 320 322 322 322 324 328 326 328 324 325 326 324 326 326 327 325 324 324 323 324 324 323 323 322 321 320
302 303 305 307 310 311 312 313 313 314 314 313 314 313 315 317 318 319 319 320 322 322 323 325 324 325 328 326 325 326 324 324 326 325 324 326 325 325 325 324 323 322 321 321 320

GFSSW_850_thetae_111.txt.gz
Theta_e
316 315 310 311 310 308 308 308 308 308 308 307 307 307 307 308 309 309 309 310 312 317 316 313 317 314 312 316 317 317 313 313 314 316 317 319 318 322 322 321 321 321 329 339 346
313 314 315 313 309 309 309 308 308 308 308 308 307 307 307 308 310 312 313 312 310 315 319 317 315 315 315 315 315 314 312 314 315 315 315 318 319 320 320 320 320 320 321 324 332
310 312 313 314 310 307 307 308 308 307 307 307 307 307 307 308 312 314 321 317 315 317 319 315 314 316 315 316 315 315 314 314 317 318 318 317 318 319 319 318 320 320 320 320 321
309 313 313 312 309 308 307 307 307 307 306 306 306 307 307 308 315 320 320 316 316 312 317 317 316 315 314 313 316 313 315 316 317 318 318 315 318 317 318 318 319 319 320 320 320
309 307 307 309 311 310 309 308 306 305 307 306 306 306 308 313 316 315 318 317 318 316 314 317 316 315 314 316 316 314 314 316 317 318 318 318 317 317 317 318 319 319 319 319 319
309 308 307 306 305 305 306 307 306 306 305 306 307 306 308 313 311 318 317 318 320 316 317 317 316 315 317 316 315 316 315 316 317 317 317 316 316 317 318 318 319 319 319 319 319
308 307 305 303 304 303 303 303 303 303 304 304 306 309 311 308 312 320 320 319 320 317 313 314 315 317 317 314 317 317 315 315 316 316 315 317 315 315 318 318 319 320 319 319 319
303 304 304 302 301 302 302 302 303 303 303 304 308 311 312 306 309 315 320 320 322 319 318 316 315 315 316 317 316 314 314 314 314 315 316 316 314 317 319 319 319 320 320 320 320
300 300 301 301 301 301 301 301 302 302 304 310 313 312 315 312 317 313 319 319 320 320 318 318 317 316 316 313 312 313 313 313 314 315 316 315 315 317 320 320 320 320 321 320 320
301 301 300 300 300 300 300 301 302 306 310 313 314 314 313 311 316 320 319 320 321 321 319 317 318 314 313 311 312 313 313 314 317 316 317 317 315 315 319 321 320 321 321 321 321
301 301 301 301 301 300 300 300 311 313 314 316 316 315 313 317 319 320 320 320 321 322 319 318 314 314 314 314 314 314 315 316 318 319 318 317 318 318 319 321 321 322 322 322 323
301 301 301 301 301 301 301 303 313 313 312 313 314 316 318 314 319 321 320 320 321 322 319 317 316 315 315 315 314 315 314 315 317 319 317 317 320 319 320 320 322 322 322 322 323
300 301 301 300 301 304 313 313 310 312 313 313 314 315 314 316 318 318 320 320 322 322 321 318 317 317 317 315 316 315 314 315 317 319 319 320 320 322 322 322 321 323 322 323 324
299 300 300 302 303 311 309 306 311 312 310 310 311 315 314 315 316 318 320 320 321 322 321 320 318 318 317 317 317 315 316 317 318 319 320 319 317 320 321 320 320 323 324 324 324
299 299 301 303 302 302 303 310 312 312 313 312 315 317 318 315 317 317 320 321 321 321 321 322 320 319 319 318 318 318 318 317 317 318 320 319 317 317 320 320 319 322 324 324 327
299 299 301 301 302 301 305 307 309 313 314 312 314 313 316 318 317 318 318 320 321 321 321 321 321 320 320 321 319 319 318 317 317 317 318 318 318 316 319 320 319 321 325 330 332
300 300 300 302 302 303 305 307 314 316 311 312 312 313 313 314 321 321 319 319 322 323 323 323 321 320 321 321 321 318 316 317 320 318 317 317 318 317 321 326 321 321 330 330 331
300 300 301 303 305 309 309 310 314 311 312 312 312 312 313 316 319 318 318 322 321 321 322 323 324 321 321 321 319 318 317 317 319 319 318 319 319 317 319 325 326 329 328 328 328
300 301 304 313 308 308 310 312 309 309 309 311 312 312 313 316 319 318 319 322 321 321 322 322 323 322 322 322 320 319 318 317 319 326 327 325 323 320 324 326 327 327 327 327 326
302 305 307 314 311 310 312 312 312 312 311 311 313 314 315 315 317 317 316 319 323 322 322 322 323 323 323 322 321 318 318 319 318 326 327 328 330 331 327 326 326 326 326 327 326
302 306 306 312 313 312 313 311 310 311 313 313 315 315 315 316 317 318 319 318 320 323 320 323 325 324 325 323 320 318 320 319 321 323 323 326 328 329 328 326 325 324 326 324 324
302 304 304 309 310 312 312 312 310 312 312 315 314 314 315 315 317 318 318 318 315 314 320 324 322 324 324 323 322 318 318 323 324 326 326 326 329 328 326 326 325 326 325 324 323
302 303 308 311 313 312 311 310 311 313 314 314 315 314 315 316 317 316 316 317 316 316 324 324 324 325 326 324 321 322 319 323 324 324 326 327 329 324 325 326 326 324 325 324 323
303 306 308 308 308 307 310 311 312 312 314 314 313 315 311 316 316 317 318 319 318 320 321 322 326 324 326 324 323 323 321 323 323 326 327 327 328 326 327 326 325 325 324 322 322
304 306 304 306 305 307 309 311 312 315 313 314 313 312 313 316 317 317 318 320 320 321 321 321 327 326 325 324 326 326 327 324 326 326 328 327 325 325 323 325 324 324 323 322 321
302 302 302 303 305 307 309 311 313 314 314 314 314 314 314 315 315 317 318 316 319 321 319 321 327 327 327 327 325 327 326 325 326 327 327 326 326 325 324 324 323 323 322 322 320
300 301 302 303 305 307 309 310 311 312 313 313 313 312 312 314 311 314 317 318 319 322 318 321 325 323 326 323 325 325 324 325 325 326 324 324 322 324 323 325 324 323 322 318 315

GFSSW_850_thetae_114.txt.gz
Theta_e
311 310 312 313 315 309 306 306 306 306 307 306 307 307 306 306 306 307 309 309 309 310 315 314 316 316 315 314 315 315 310 309 311 313 314 316 315 319 320 320 320 324 333 345 355
309 308 312 315 315 314 308 306 305 305 306 306 306 306 306 306 306 308 313 314 313 312 313 315 313 316 315 313 315 312 310 311 310 312 313 315 316 317 318 319 319 321 347 352 350
311 309 307 306 307 310 311 309 307 305 305 305 306 306 305 305 306 310 319 318 316 314 311 314 317 315 314 313 314 312 313 312 313 315 316 315 315 317 317 316 319 319 320 332 335
310 309 308 307 306 306 305 306 308 308 307 306 305 306 307 307 307 319 316 317 316 313 311 318 318 317 311 311 314 312 313 314 315 316 315 314 317 316 317 318 318 319 319 319 319
305 306 306 306 304 303 304 304 304 304 304 304 305 306 308 309 311 308 317 317 317 312 316 318 318 315 312 311 313 312 313 315 315 315 316 315 314 314 317 318 318 318 319 319 319
301 301 302 303 304 303 302 302 302 303 303 304 304 308 308 308 308 312 316 315 317 317 313 317 318 317 313 313 312 315 315 315 315 314 314 314 315 314 316 318 318 318 319 319 319
301 301 301 301 301 301 301 301 301 302 301 302 303 309 310 307 308 308 318 319 317 318 317 314 314 316 315 313 316 315 314 314 313 313 311 314 313 314 316 317 318 318 319 319 319
303 302 302 302 301 301 301 301 302 301 301 301 304 309 312 307 307 307 308 309 319 318 320 317 315 316 315 315 315 313 313 314 314 312 314 313 314 314 317 317 317 317 319 319 319
302 303 303 303 302 301 301 303 304 302 301 303 309 310 310 311 311 314 313 310 318 320 321 318 316 316 315 313 313 310 313 310 312 311 313 312 314 314 317 317 317 317 318 319 319
299 300 301 302 302 302 301 303 305 305 308 309 311 313 312 312 313 319 320 314 319 320 321 319 317 313 313 311 315 314 310 312 312 314 312 313 313 313 316 316 317 319 319 319 320
298 299 299 300 300 301 301 303 305 312 313 313 314 313 314 314 313 316 318 317 318 321 320 318 316 317 316 314 313 313 312 312 313 313 315 313 314 314 315 314 316 318 319 320 320
298 298 299 299 299 300 301 304 310 311 313 313 314 314 313 312 313 313 315 319 320 320 319 318 318 316 315 315 314 313 312 312 312 314 314 316 316 315 315 315 318 320 318 320 321
298 298 299 299 299 301 306 308 306 308 310 311 312 314 313 314 314 315 315 319 319 320 321 320 318 317 315 314 314 313 312 312 312 314 315 316 315 317 317 319 320 322 320 320 322
298 299 299 300 301 301 300 302 305 308 309 310 309 311 312 314 315 315 315 318 320 320 321 321 318 317 315 315 314 313 313 314 314 314 314 316 316 316 319 319 319 321 321 324 329
299 298 299 299 300 300 300 302 307 310 310 309 311 314 315 315 315 317 316 316 320 321 321 322 320 319 316 316 315 314 315 315 315 313 315 316 315 314 316 319 319 320 322 339 338
300 298 300 300 300 300 302 306 308 311 311 309 311 312 311 313 316 315 317 317 318 320 320 321 320 319 318 317 317 317 317 316 315 313 315 315 316 315 316 317 318 321 331 338 338
299 299 299 301 302 302 304 305 310 312 309 311 311 310 311 311 314 319 318 319 321 323 322 322 321 320 319 318 318 318 317 316 315 315 316 315 315 315 316 317 321 329 333 333 336
299 298 299 303 308 305 307 307 310 308 309 310 309 311 311 312 318 318 318 317 316 320 322 323 325 321 321 319 319 319 318 314 317 318 316 316 316 315 316 324 323 330 330 332 333
297 299 300 311 310 306 308 310 307 308 308 309 311 310 312 312 315 317 318 318 319 320 324 324 323 321 321 321 320 321 320 316 317 323 320 320 324 320 323 325 326 326 327 326 326
298 300 304 308 310 307 309 311 311 311 311 312 313 311 312 314 314 316 317 317 317 316 321 324 324 321 322 322 321 320 317 317 316 324 323 324 328 327 326 326 326 325 325 325 325
299 301 301 305 306 306 310 311 311 311 311 313 312 314 314 314 314 315 317 317 317 318 318 323 324 324 322 323 323 320 319 317 316 319 320 322 322 326 325 325 324 324 325 324 324
299 302 304 309 306 308 310 310 308 310 311 313 312 314 315 315 315 315 319 318 316 316 317 320 324 325 324 323 323 323 322 318 320 324 319 320 321 326 325 325 324 323 323 322 322
299 301 304 306 304 305 306 308 309 311 312 313 314 314 311 313 316 315 318 317 314 315 317 321 325 324 326 324 322 323 322 319 317 318 323 324 325 325 326 326 325 324 323 320 322
301 302 304 303 302 305 306 308 309 309 312 313 314 312 312 312 313 316 316 318 315 315 316 316 325 321 324 324 322 323 319 321 320 320 323 323 327 326 326 326 326 324 323 321 318
301 301 301 301 302 303 305 306 309 310 311 311 314 313 313 314 314 316 316 319 319 318 317 320 326 324 325 323 323 326 326 324 321 321 323 326 325 326 324 324 324 323 322 323 320
301 299 300 301 302 303 304 308 306 306 309 313 314 313 311 313 314 315 315 317 318 320 319 319 326 325 327 324 324 327 325 325 325 326 326 325 324 323 323 324 324 324 323 322 316
298 299 300 301 302 303 305 306 307 307 311 311 311 312 311 312 311 311 311 314 317 320 318 318 324 323 327 326 325 325 325 326 325 326 326 326 324 323 324 324 324 323 322 316 314

GFSSW_850_thetae_117.txt.gz
Theta_e
311 310 308 307 307 307 309 310 309 306 305 305 306 306 306 305 305 305 305 308 308 309 314 316 315 315 314 313 313 314 310 309 311 311 312 314 314 317 318 317 319 326 334 339 352
309 308 307 307 307 306 306 306 307 309 308 307 306 305 305 306 306 306 311 315 316 311 310 314 316 316 315 314 314 311 307 309 309 311 311 313 314 315 315 315 318 332 346 352 355
303 303 304 305 305 305 304 304 305 304 304 305 306 305 306 306 305 309 316 316 316 316 312 310 314 315 314 312 313 311 311 310 312 314 315 312 313 316 314 313 317 318 344 354 355
303 303 302 302 303 303 303 303 303 303 303 303 303 304 308 307 305 316 316 316 317 315 313 311 313 316 309 310 312 310 310 313 313 315 314 313 315 314 315 316 317 318 318 325 341
304 304 304 303 303 303 302 302 302 302 302 302 302 303 308 308 309 308 312 314 316 315 314 311 315 317 310 309 311 310 311 313 314 314 315 315 312 313 314 317 317 317 318 318 319
304 304 304 304 304 304 304 304 303 302 302 301 301 303 308 307 309 307 313 309 309 313 312 310 317 317 314 312 310 312 313 312 313 314 314 312 313 313 315 316 317 317 317 318 318
300 300 301 302 302 303 304 304 303 302 302 301 300 305 308 307 308 308 308 315 316 315 315 312 318 316 315 313 314 314 312 312 311 313 311 314 311 311 314 316 316 317 317 318 318
298 299 299 299 299 300 301 302 304 304 303 302 301 306 308 305 308 307 309 307 312 317 318 317 315 316 313 313 313 312 312 314 312 311 311 312 313 312 315 315 315 317 317 317 318
298 298 298 298 299 299 299 300 301 302 304 304 305 308 309 308 310 311 314 313 308 312 313 319 316 315 315 314 312 311 311 310 313 310 312 310 313 313 315 315 314 316 317 317 317
297 297 297 298 298 299 299 299 300 303 310 309 311 310 309 308 310 314 316 318 313 311 316 319 316 313 313 313 316 313 309 312 311 311 310 311 309 311 315 313 313 315 317 317 318
297 297 298 298 298 298 299 299 303 310 309 311 312 311 311 311 312 313 313 317 315 318 321 318 317 316 315 314 313 313 312 311 310 312 312 311 311 311 312 313 312 315 316 316 318
296 297 299 299 298 297 299 303 306 306 305 307 307 309 308 309 312 312 315 317 315 320 320 317 321 318 315 313 313 313 312 310 311 313 311 312 312 313 313 313 314 315 316 317 317
296 297 298 300 299 301 301 299 301 303 305 307 307 310 311 312 313 313 313 313 316 318 320 320 318 318 317 316 315 314 314 311 311 313 313 314 313 313 314 314 316 316 317 317 317
296 296 297 299 300 299 299 300 300 304 307 309 310 310 312 313 314 314 314 313 315 317 319 320 319 318 317 316 315 315 312 312 312 312 311 313 312 313 313 315 315 317 318 319 318
296 296 297 297 300 302 300 301 305 307 307 307 309 311 313 313 313 315 316 314 315 318 320 321 320 320 317 316 315 314 313 312 312 312 312 313 313 313 314 317 317 316 329 332 330
296 296 296 299 302 302 302 303 306 309 309 307 309 310 310 310 310 316 317 315 315 317 320 319 319 320 319 317 315 314 313 313 313 310 312 311 313 314 314 315 316 326 337 337 338
296 296 298 307 306 304 303 305 308 310 307 309 308 310 310 309 310 318 317 316 318 322 322 321 320 319 319 318 315 315 314 313 314 312 314 311 313 313 315 316 319 333 334 335 336
296 297 306 307 309 305 304 305 307 305 308 307 309 310 310 309 316 316 318 317 315 317 320 323 324 321 320 319 318 314 313 313 316 315 314 314 315 314 314 319 322 334 333 333 335
296 297 308 306 307 306 306 305 304 306 307 311 311 311 310 311 312 314 316 318 316 316 321 325 322 320 321 319 318 317 317 313 315 321 315 315 318 322 323 325 330 330 331 329 329
296 297 304 305 306 306 305 310 310 310 310 311 312 311 312 311 313 313 315 316 317 318 318 319 325 320 321 321 320 319 316 317 315 321 320 322 324 320 326 325 327 328 326 326 326
297 299 304 305 306 305 308 309 308 308 310 312 314 314 313 314 314 314 314 316 316 318 317 320 321 323 321 323 322 321 321 319 316 318 320 324 324 325 324 323 324 323 323 324 325
298 295 303 303 303 303 306 306 306 309 310 311 313 313 314 315 313 315 314 316 317 317 318 317 319 324 323 320 321 321 319 319 317 319 318 320 321 323 322 321 321 322 322 322 324
298 298 303 301 300 304 304 304 306 309 308 312 311 312 312 312 313 314 314 316 316 316 318 318 321 323 325 323 322 323 321 317 316 319 321 320 325 324 323 322 322 321 322 322 322
299 301 301 300 300 302 303 304 306 306 307 308 311 313 312 312 312 314 315 316 315 316 317 315 318 323 323 323 321 323 323 320 318 321 322 319 329 325 324 323 322 321 320 320 320
299 301 300 298 299 299 301 303 306 307 306 307 312 310 309 313 312 313 315 315 316 316 317 317 320 321 323 323 323 323 322 322 319 318 322 324 327 326 324 323 321 321 317 316 316
298 298 298 299 299 300 301 304 305 306 307 310 311 310 310 312 311 312 313 314 317 318 318 318 320 323 324 324 323 326 326 323 321 321 323 325 324 323 323 323 322 323 319 316 314
298 298 299 299 300 301 301 303 304 305 305 306 309 311 310 311 310 310 310 310 312 316 318 317 317 325 327 324 324 324 325 326 326 324 323 324 322 323 323 323 323 322 323 317 315